[[{"header":{"parameterUnit":"m.s-1","parameterCategory":1,"la1":30.6,"la2":28.766,"lo1":-90.7593,"lo2":-88.6598,"dy":0.0162,"dx":0.0183,"nx":116,"ny":114,"refTime":"2023-05-24T00:00:00:Z","depth":0,"parameterNumber":2,"parameterNumberName":"U-component_of_WINDS"},"data":[0.0,0.0,0.0,0.0,0.0,0.0,0.0,0.0,0.0,0.0,0.0,0.0,0.0,0.0,0.0,0.0,0.0,0.0,0.0,0.0,0.0,0.0,0.0,0.0,0.0,0.0,0.0,0.0,0.0,0.0,0.0,0.0,0.0,0.0,0.0,0.0,0.0,0.0,0.0,0.0,0.0,0.0,0.0,0.0,0.0,0.0,0.0,0.0,0.0,0.0,0.0,0.0,0.0,0.0,0.0,0.0,0.0,0.0,0.0,0.0,0.0,0.0,0.0,0.0,0.0,0.0,0.0,0.0,0.0,0.0,0.0,0.0,0.0,0.0,0.0,0.0,0.0,0.0,0.0,0.0,0.0,0.0,0.0,0.0,0.0,0.0,0.0,0.0,0.0,0.0,0.0,0.0,0.0,0.0,0.0,0.0,0.0,0.0,0.0,0.0,0.0,0.0,0.0,0.0,0.0,0.0,0.0,0.0,0.0,0.0,0.0,0.0,0.0,0.0,0.0,0.0,0.0,0.0,0.0,0.0,0.0,0.0,0.0,0.0,0.0,0.0,0.0,0.0,0.0,0.0,0.0,0.0,0.0,0.0,0.0,0.0,0.0,0.0,0.0,0.0,0.0,0.0,0.0,0.0,0.0,0.0,0.0,0.0,0.0,0.0,0.0,0.0,0.0,0.0,0.0,0.0,0.0,0.0,0.0,0.0,0.0,0.0,0.0,0.0,0.0,0.0,0.0,0.0,0.0,0.0,0.0,0.0,0.0,0.0,0.0,0.0,0.0,0.0,0.0,0.0,0.0,0.0,0.0,0.0,0.0,0.0,0.0,0.0,0.0,0.0,0.0,0.0,0.0,0.0,0.0,0.0,0.0,0.0,0.0,0.0,0.0,0.0,0.0,0.0,0.0,0.0,0.0,0.0,0.0,0.0,0.0,0.0,0.0,0.0,0.0,0.0,0.0,0.0,0.0,0.0,0.0,0.0,0.0,0.0,0.0,0.0,0.0,0.0,0.0,0.0,0.0,0.0,0.0,0.0,0.0,0.0,0.0,0.0,0.0,0.0,0.0,0.0,0.0,0.0,0.0,0.0,0.0,0.0,0.0,0.0,0.0,0.0,0.0,0.0,0.0,0.0,0.0,0.0,0.0,0.0,0.0,0.0,0.0,0.0,0.0,0.0,0.0,0.0,0.0,0.0,0.0,0.0,0.0,0.0,0.0,0.0,0.0,0.0,0.0,0.0,0.0,0.0,0.0,0.0,0.0,0.0,0.0,0.0,0.0,0.0,0.0,0.0,0.0,0.0,0.0,0.0,0.0,0.0,0.0,0.0,0.0,0.0,0.0,0.0,0.0,0.0,0.0,0.0,0.0,0.0,0.0,0.0,0.0,0.0,0.0,0.0,0.0,0.0,0.0,0.0,0.0,0.0,0.0,0.0,0.0,0.0,0.0,0.0,0.0,0.0,0.0,0.0,0.0,0.0,0.0,0.0,0.0,0.0,0.0,0.0,0.0,0.0,0.0,0.0,0.0,0.0,0.0,0.0,0.0,0.0,0.0,0.0,0.0,0.0,0.0,0.0,0.0,0.0,0.0,0.0,0.0,0.0,0.0,0.0,0.0,0.0,0.0,0.0,0.0,0.0,0.0,0.0,0.0,0.0,0.0,0.0,0.0,0.0,0.0,0.0,0.0,0.0,0.0,0.0,0.0,0.0,0.0,0.0,0.0,0.0,0.0,0.0,0.0,0.0,0.0,0.0,0.0,0.0,0.0,0.0,0.0,0.0,0.0,0.0,0.0,0.0,0.0,0.0,0.0,0.0,0.0,0.0,0.0,0.0,0.0,0.0,0.0,0.0,0.0,0.0,0.0,0.0,0.0,0.0,0.0,0.0,0.0,0.0,0.0,0.0,0.0,0.0,0.0,0.0,0.0,0.0,0.0,0.0,0.0,0.0,0.0,0.0,0.0,0.0,0.0,0.0,0.0,0.0,0.0,0.0,0.0,0.0,0.0,0.0,0.0,0.0,0.0,0.0,0.0,0.0,0.0,0.0,0.0,0.0,0.0,0.0,0.0,0.0,0.0,0.0,0.0,0.0,0.0,0.0,0.0,0.0,0.0,0.0,0.0,0.0,0.0,0.0,0.0,0.0,0.0,0.0,0.0,0.0,0.0,0.0,0.0,0.0,0.0,0.0,0.0,0.0,0.0,0.0,0.0,0.0,0.0,0.0,0.0,0.0,0.0,0.0,0.0,0.0,0.0,0.0,0.0,0.0,0.0,0.0,0.0,0.0,0.0,0.0,0.0,0.0,0.0,0.0,0.0,0.0,0.0,0.0,0.0,0.0,0.0,0.0,0.0,0.0,0.0,0.0,0.0,0.0,0.0,0.0,0.0,0.0,0.0,0.0,0.0,0.0,0.0,0.0,0.0,0.0,0.0,0.0,0.0,0.0,0.0,0.0,0.0,0.0,0.0,0.0,0.0,0.0,0.0,0.0,0.0,0.0,0.0,0.0,0.0,0.0,0.0,0.0,0.0,0.0,0.0,0.0,0.0,0.0,0.0,0.0,0.0,0.0,0.0,0.0,0.0,0.0,0.0,0.0,0.0,0.0,0.0,0.0,0.0,0.0,0.0,0.0,0.0,0.0,0.0,0.0,0.0,0.0,0.0,0.0,0.0,0.0,0.0,0.0,0.0,0.0,0.0,0.0,0.0,0.0,0.0,0.0,0.0,0.0,0.0,0.0,0.0,0.0,0.0,0.0,0.0,0.0,0.0,0.0,0.0,0.0,0.0,0.0,0.0,0.0,0.0,0.0,0.0,0.0,0.0,0.0,0.0,0.0,0.0,0.0,0.0,0.0,0.0,0.0,0.0,0.0,0.0,0.0,0.0,0.0,0.0,0.0,0.0,0.0,0.0,0.0,0.0,0.0,0.0,0.0,0.0,0.0,0.0,0.0,0.0,0.0,0.0,0.0,0.0,0.0,0.0,0.0,0.0,0.0,0.0,0.0,0.0,0.0,0.0,0.0,0.0,0.0,0.0,0.0,0.0,0.0,0.0,0.0,0.0,0.0,0.0,0.0,0.0,0.0,0.0,0.0,0.0,0.0,0.0,0.0,0.0,0.0,0.0,0.0,0.0,0.0,0.0,0.0,0.0,0.0,0.0,0.0,0.0,0.0,0.0,0.0,0.0,0.0,0.0,0.0,0.0,0.0,0.0,0.0,0.0,0.0,0.0,0.0,0.0,0.0,0.0,0.0,0.0,0.0,0.0,0.0,0.0,0.0,0.0,0.0,0.0,0.0,0.0,0.0,0.0,0.0,0.0,0.0,0.0,0.0,0.0,0.0,0.0,0.0,0.0,0.0,0.0,0.0,0.0,0.0,0.0,0.0,0.0,0.0,0.0,0.0,0.0,0.0,0.0,0.0,0.0,0.0,0.0,0.0,0.0,0.0,0.0,0.0,0.0,0.0,0.0,0.0,0.0,0.0,0.0,0.0,0.0,0.0,0.0,0.0,0.0,0.0,0.0,0.0,0.0,0.0,0.0,0.0,0.0,0.0,0.0,0.0,0.0,0.0,0.0,0.0,0.0,0.0,0.0,0.0,0.0,0.0,0.0,0.0,0.0,0.0,0.0,0.0,0.0,0.0,0.0,0.0,0.0,0.0,0.0,0.0,0.0,0.0,0.0,0.0,0.0,0.0,0.0,0.0,0.0,0.0,0.0,0.0,0.0,0.0,0.0,0.0,0.0,0.0,0.0,0.0,0.0,0.0,0.0,0.0,0.0,0.0,0.0,0.0,0.0,0.0,0.0,0.0,0.0,0.0,0.0,0.0,0.0,0.0,0.0,0.0,0.0,0.0,0.0,0.0,0.0,0.0,0.0,0.0,0.0,0.0,0.0,0.0,0.0,0.0,0.0,0.0,0.0,0.0,0.0,0.0,0.0,0.0,0.0,0.0,0.0,0.0,0.0,0.0,0.0,0.0,0.0,0.0,0.0,0.0,0.0,0.0,0.0,0.0,0.0,0.0,0.0,0.0,0.0,0.0,0.0,0.0,0.0,0.0,0.0,0.0,0.0,0.0,0.0,0.0,0.0,0.0,0.0,0.0,0.0,0.0,0.0,0.0,0.0,0.0,0.0,0.0,0.0,0.0,0.0,0.0,0.0,0.0,0.0,0.0,0.0,0.0,0.0,0.0,0.0,0.0,0.0,0.0,0.0,0.0,0.0,0.0,0.0,0.0,0.0,0.0,0.0,0.0,0.0,0.0,0.0,0.0,0.0,0.0,0.0,0.0,0.0,0.0,0.0,0.0,0.0,0.0,0.0,0.0,0.0,0.0,0.0,0.0,0.0,0.0,0.0,0.0,0.0,0.0,0.0,0.0,0.0,0.0,0.0,0.0,0.0,0.0,0.0,0.0,0.0,0.0,0.0,0.0,0.0,0.0,0.0,0.0,0.0,0.0,0.0,0.0,0.0,0.0,0.0,0.0,0.0,0.0,0.0,0.0,0.0,0.0,0.0,0.0,0.0,0.0,0.0,0.0,0.0,0.0,0.0,0.0,0.0,0.0,0.0,0.0,0.0,0.0,0.0,0.0,0.0,0.0,0.0,0.0,0.0,0.0,0.0,0.0,0.0,0.0,0.0,0.0,0.0,0.0,0.0,0.0,0.0,0.0,0.0,0.0,0.0,0.0,0.0,0.0,0.0,0.0,0.0,0.0,0.0,0.0,0.0,0.0,0.0,0.0,0.0,0.0,0.0,0.0,0.0,0.0,0.0,0.0,0.0,0.0,0.0,0.0,0.0,0.0,0.0,0.0,0.0,0.0,0.0,0.0,0.0,0.0,0.0,0.0,0.0,0.0,0.0,0.0,0.0,0.0,0.0,0.0,0.0,0.0,0.0,0.0,0.0,0.0,0.0,0.0,0.0,0.0,0.0,0.0,0.0,0.0,0.0,0.0,0.0,0.0,0.0,0.0,0.0,0.0,0.0,0.0,0.0,0.0,0.0,0.0,0.0,0.0,0.0,0.0,0.0,0.0,0.0,0.0,0.0,0.0,0.0,0.0,0.0,0.0,0.0,0.0,0.0,0.0,0.0,0.0,0.0,0.0,0.0,0.0,0.0,0.0,0.0,0.0,0.0,0.0,0.0,0.0,0.0,0.0,0.0,0.0,0.0,0.0,0.0,0.0,0.0,0.0,0.0,0.0,0.0,0.0,0.0,0.0,0.0,0.0,0.0,0.0,0.0,0.0,0.0,0.0,0.0,0.0,0.0,0.0,0.0,0.0,0.0,0.0,0.0,0.0,0.0,0.0,0.0,0.0,0.0,0.0,0.0,0.0,0.0,0.0,0.0,0.0,0.0,0.0,0.0,0.0,0.0,0.0,0.0,0.0,0.0,0.0,0.0,0.0,0.0,0.0,0.0,0.0,0.0,0.0,0.0,0.0,0.0,0.0,0.0,0.0,0.0,0.0,0.0,0.0,0.0,0.0,0.0,0.0,0.0,0.0,0.0,0.0,0.0,0.0,0.0,0.0,0.0,0.0,0.0,0.0,0.0,0.0,0.0,0.0,0.0,0.0,0.0,0.0,0.0,0.0,0.0,0.0,0.0,0.0,0.0,0.0,0.0,0.0,0.0,0.0,0.0,0.0,0.0,0.0,0.0,0.0,0.0,0.0,0.0,0.0,0.0,0.0,0.0,0.0,0.0,0.0,0.0,0.0,0.0,0.0,0.0,0.0,0.0,0.0,0.0,0.0,0.0,0.0,0.0,0.0,0.0,0.0,0.0,0.0,0.0,0.0,0.0,0.0,0.0,0.0,0.0,0.0,0.0,0.0,0.0,0.0,0.0,0.0,0.0,0.0,0.0,0.0,0.0,0.0,0.0,0.0,0.0,0.0,0.0,0.0,0.0,0.0,0.0,0.0,0.0,0.0,0.0,0.0,0.0,0.0,0.0,0.0,0.0,0.0,0.0,0.0,0.0,0.0,0.0,0.0,0.0,0.0,0.0,0.0,0.0,0.0,0.0,0.0,0.0,0.0,0.0,0.0,0.0,0.0,0.0,0.0,0.0,0.0,0.0,0.0,0.0,0.0,0.0,0.0,0.0,0.0,0.0,0.0,3.1787,0.0,0.0,0.0,0.0,0.0,0.0,0.0,0.0,0.0,0.0,0.0,0.0,0.0,0.0,0.0,0.0,0.0,0.0,0.0,0.0,0.0,0.0,0.0,0.0,0.0,0.0,0.0,0.0,0.0,0.0,0.0,0.0,0.0,0.0,0.0,0.0,0.0,0.0,0.0,2.4593,2.5273,2.584,2.8067,2.9217,2.9391,0.0,0.0,0.0,0.0,0.0,0.0,0.0,0.0,0.0,0.0,0.0,0.0,0.0,0.0,0.0,0.0,0.0,0.0,0.0,0.0,0.0,0.0,0.0,0.0,0.0,0.0,0.0,0.0,0.0,0.0,0.0,0.0,0.0,0.0,0.0,0.0,0.0,0.0,0.0,0.0,0.0,0.0,0.0,0.0,0.0,0.0,0.0,0.0,0.0,0.0,0.0,0.0,0.0,0.0,0.0,0.0,0.0,0.0,0.0,0.0,0.0,0.0,0.0,0.0,0.0,0.0,0.0,0.0,0.0,0.0,3.4135,3.323,0.0,0.0,0.0,0.0,0.0,0.0,0.0,0.0,0.0,0.0,0.0,0.0,0.0,0.0,0.0,0.0,0.0,0.0,0.0,0.0,0.0,0.0,0.0,0.0,2.1289,2.2326,2.2718,2.298,0.0,0.0,0.0,0.0,0.0,0.0,0.0,0.0,0.0,0.0,2.361,2.5085,2.7587,2.8828,2.9121,2.8635,2.897,0.0,0.0,0.0,0.0,0.0,0.0,0.0,0.0,0.0,0.0,0.0,0.0,0.0,0.0,0.0,0.0,0.0,0.0,0.0,0.0,0.0,0.0,0.0,0.0,0.0,0.0,0.0,0.0,0.0,0.0,0.0,0.0,0.0,0.0,0.0,0.0,0.0,0.0,0.0,0.0,0.0,0.0,0.0,0.0,0.0,0.0,0.0,0.0,0.0,0.0,0.0,0.0,0.0,0.0,0.0,0.0,0.0,0.0,0.0,0.0,0.0,0.0,0.0,3.8093,3.9011,4.0109,4.0079,3.9909,3.9508,3.7913,3.6618,3.5609,3.4967,0.0,0.0,0.0,0.0,0.0,0.0,0.0,0.0,0.0,0.0,0.0,0.0,0.0,0.0,0.0,0.0,0.0,0.0,0.0,0.0,0.0,2.0862,2.155,2.1731,2.132,2.1474,0.0,0.0,0.0,0.0,0.0,0.0,0.0,2.3088,2.3354,2.3871,2.4837,2.6557,2.8925,2.8501,2.9018,3.027,2.9875,3.0018,3.0448,0.0,0.0,0.0,0.0,0.0,0.0,0.0,0.0,0.0,0.0,0.0,0.0,0.0,0.0,0.0,0.0,0.0,0.0,0.0,0.0,0.0,0.0,0.0,0.0,0.0,0.0,0.0,0.0,0.0,0.0,0.0,0.0,0.0,0.0,0.0,0.0,0.0,0.0,0.0,0.0,0.0,2.8655,3.0516,0.0,0.0,0.0,0.0,0.0,0.0,0.0,0.0,0.0,0.0,0.0,0.0,0.0,3.7306,3.8494,3.9837,4.0565,4.0775,4.2022,4.2701,4.286,4.2801,4.3369,4.4387,4.4117,0.0,3.6314,3.5639,0.0,0.0,0.0,0.0,0.0,0.0,0.0,0.0,0.0,0.0,0.0,0.0,0.0,0.0,0.0,0.0,0.0,0.0,0.0,0.0,0.0,2.1798,2.2724,2.3391,2.4331,2.4532,2.3802,2.3568,0.0,0.0,0.0,0.0,2.3088,2.3429,2.4205,2.541,2.7419,2.8943,3.0008,3.0943,3.1587,3.2005,3.1745,3.0959,2.9725,2.8131,0.0,0.0,0.0,0.0,0.0,0.0,0.0,0.0,0.0,0.0,0.0,0.0,0.0,0.0,0.0,0.0,0.0,0.0,0.0,0.0,0.0,0.0,0.0,0.0,0.0,0.0,0.0,0.0,0.0,0.0,0.0,0.0,0.0,0.0,0.0,0.0,0.0,0.0,0.0,2.8741,3.0664,3.0033,3.2463,3.3469,0.0,0.0,0.0,0.0,0.0,0.0,0.0,0.0,0.0,3.864,3.9299,4.0268,4.1565,4.2542,4.3599,4.4746,4.5704,4.6332,4.6732,4.7048,4.7328,4.754,4.754,4.5434,4.1824,3.9718,3.799,3.6493,0.0,0.0,0.0,0.0,3.54,3.5908,0.0,0.0,0.0,0.0,0.0,0.0,0.0,0.0,0.0,0.0,0.0,0.0,2.1713,2.2992,2.4213,2.5213,2.6765,2.6917,2.5118,2.4858,0.0,0.0,0.0,2.2558,2.3088,2.4247,2.572,2.7546,3.0156,3.1652,3.2129,3.3771,3.4461,3.4346,3.407,3.2552,3.0061,2.8423,2.7562,2.7253,0.0,0.0,0.0,0.0,0.0,0.0,0.0,0.0,0.0,0.0,0.0,0.0,0.0,0.0,0.0,0.0,0.0,0.0,0.0,0.0,0.0,0.0,0.0,0.0,0.0,0.0,0.0,0.0,0.0,0.0,0.0,0.0,0.0,0.0,0.0,0.0,0.0,3.032,3.1932,2.9744,3.3483,3.5122,0.0,0.0,0.0,0.0,0.0,0.0,3.8332,3.9379,4.0606,4.2132,4.298,4.4018,4.5303,4.5822,4.6909,4.8566,4.9056,4.9576,5.0055,5.0679,5.0529,4.9786,4.9965,4.8996,4.7037,4.3569,4.1074,3.9188,3.6913,3.6425,3.7075,3.7563,3.8042,3.8721,0.0,0.0,0.0,0.0,0.0,0.0,0.0,0.0,0.0,0.0,0.0,2.1826,2.2224,2.4313,2.586,2.6383,2.6525,2.6298,2.5611,2.362,2.2659,2.3088,2.2576,2.2558,2.3088,2.5762,2.8197,3.0387,3.2641,3.455,3.6095,3.623,3.6808,3.7713,3.6683,3.5276,3.3445,3.0186,2.9132,2.9437,2.732,0.0,0.0,0.0,0.0,0.0,0.0,0.0,0.0,0.0,0.0,0.0,0.0,0.0,0.0,0.0,0.0,0.0,0.0,0.0,0.0,0.0,0.0,0.0,0.0,0.0,0.0,0.0,0.0,0.0,0.0,0.0,0.0,0.0,0.0,0.0,0.0,0.0,0.0,3.0659,3.5093,0.0,0.0,0.0,0.0,3.7186,3.899,4.0427,4.1164,4.297,4.4905,4.6879,4.8229,4.9505,5.0787,5.0828,5.1217,5.1947,5.1977,5.2007,5.2067,5.2737,5.2336,5.1128,5.1768,5.1277,4.9699,4.5762,4.3399,4.2051,4.0645,4.0526,4.1104,4.1134,4.1164,4.1224,0.0,0.0,0.0,0.0,0.0,0.0,0.0,0.0,2.1498,2.0569,2.1435,2.2587,2.3787,2.6215,2.8294,2.9541,3.0326,3.005,2.8407,2.6549,2.5444,2.5293,2.4079,2.4649,2.736,2.906,3.1185,3.3753,3.5278,3.6508,3.7437,3.7838,3.8014,3.8002,3.8014,3.7261,3.5817,3.2455,3.0548,2.9613,2.7395,2.6373,0.0,0.0,0.0,0.0,0.0,0.0,0.0,0.0,0.0,0.0,0.0,0.0,0.0,0.0,0.0,0.0,0.0,0.0,0.0,0.0,0.0,0.0,0.0,0.0,0.0,0.0,0.0,0.0,0.0,0.0,0.0,0.0,0.0,0.0,0.0,0.0,0.0,3.674,4.0313,0.0,3.8859,3.9418,4.0487,4.1764,4.3309,4.4855,4.6413,4.7508,4.8813,5.0391,5.0912,5.2019,5.3773,5.2905,5.3037,5.4144,5.3683,5.3264,5.2857,5.3545,5.3354,5.2498,5.2737,5.2097,5.0727,4.9321,4.7238,4.4706,4.2541,4.2082,4.2631,4.2631,4.318,4.3968,0.0,0.0,0.0,0.0,0.0,0.0,0.0,0.0,2.113,2.0818,2.2034,2.3782,2.5938,2.848,3.0688,3.2365,3.2702,3.21,3.0442,2.8056,2.6582,2.6214,2.5326,2.6473,3.0005,3.1486,3.3495,3.6083,3.6737,3.7556,3.858,3.8486,3.8487,3.8592,3.8982,3.8642,3.76,3.5203,3.2781,3.0432,2.8417,2.7713,2.7638,0.0,0.0,0.0,0.0,0.0,0.0,0.0,0.0,0.0,0.0,0.0,0.0,0.0,0.0,0.0,0.0,0.0,0.0,0.0,0.0,0.0,0.0,0.0,0.0,0.0,0.0,0.0,0.0,0.0,0.0,0.0,0.0,0.0,0.0,0.0,4.1749,4.0766,4.419,4.5704,4.3279,4.3678,4.4686,4.6181,4.7527,4.8854,5.0205,5.1307,5.2294,5.3174,5.3623,5.4491,5.582,5.4952,5.4952,5.585,5.5388,5.473,5.3905,5.4563,5.4264,5.3228,5.3456,5.2785,5.1517,5.1307,4.977,4.7437,4.5475,4.4966,4.5324,4.5324,4.5873,4.6661,0.0,0.0,0.0,0.0,0.0,0.0,0.0,1.9593,2.0152,2.0684,2.2688,2.5327,2.8621,3.0989,3.2997,3.4628,3.3233,3.2014,3.1472,2.7779,2.5636,2.567,2.6315,2.7946,3.0653,3.2828,3.4997,3.7152,3.6868,3.772,3.9607,3.8216,3.8321,3.9697,3.9735,3.9434,3.8919,3.8316,3.5881,3.2254,3.0583,3.0196,3.0387,0.0,0.0,0.0,0.0,0.0,0.0,0.0,0.0,0.0,0.0,0.0,0.0,0.0,0.0,0.0,0.0,0.0,0.0,0.0,0.0,0.0,0.0,0.0,0.0,0.0,0.0,0.0,0.0,0.0,0.0,0.0,0.0,0.0,3.6172,4.0765,4.3812,4.2424,4.6511,4.8708,4.6749,4.8263,4.9669,5.0327,5.1559,5.2276,5.2276,5.4129,5.5188,5.5188,5.6332,5.7003,5.7124,5.7055,5.7055,5.7094,5.7094,5.6436,5.5222,5.588,5.5114,5.3306,5.3952,5.3461,5.2187,5.1517,5.0847,5.0177,4.9535,4.9288,4.9288,4.9288,4.9258,4.9127,0.0,0.0,0.0,0.0,0.0,0.0,0.0,2.0051,1.9945,2.1634,2.417,2.706,3.0357,3.3442,3.5602,3.6445,3.4625,3.3018,3.2028,2.8391,2.6608,2.7369,2.9478,3.1444,3.3165,3.4198,3.5073,3.5822,3.6792,3.7559,3.8124,3.8779,3.9323,3.9735,4.0124,4.0199,4.001,3.9471,3.8391,3.6771,3.3517,3.1798,3.0934,0.0,0.0,0.0,0.0,0.0,0.0,0.0,0.0,0.0,0.0,0.0,0.0,0.0,0.0,0.0,0.0,0.0,0.0,0.0,0.0,0.0,0.0,0.0,0.0,0.0,0.0,0.0,0.0,0.0,0.0,0.0,0.0,4.3362,4.1543,4.5877,4.9461,5.0026,5.1715,5.2815,5.2755,5.1743,5.208,5.4386,5.4266,5.4087,5.4087,5.4594,5.4899,5.4899,5.4112,5.5009,5.7802,5.6225,5.6003,5.7094,5.7094,5.6436,5.5222,5.588,5.5623,5.4653,5.4862,5.4174,5.2917,5.2737,5.1977,5.0817,4.9726,4.9288,4.9228,4.8738,4.8278,4.7818,0.0,0.0,0.0,0.0,0.0,0.0,0.0,1.9369,1.9667,2.2275,2.5285,2.8417,3.1748,3.4684,3.6431,3.6471,3.4712,3.2893,3.1311,2.8658,2.7754,2.9092,3.098,3.2804,3.4488,3.4883,3.5209,3.556,3.6613,3.7154,3.7154,3.8709,3.9427,3.9413,4.041,4.0826,4.08,4.0512,4.0186,3.9697,3.7198,3.5378,3.3922,3.1702,3.116,3.1421,3.0175,3.0241,3.0748,2.9543,0.0,0.0,0.0,0.0,0.0,0.0,0.0,0.0,0.0,0.0,0.0,0.0,0.0,0.0,0.0,0.0,0.0,0.0,0.0,0.0,0.0,0.0,0.0,0.0,4.3543,4.6691,4.6554,4.9621,5.225,5.333,5.3451,5.3721,5.4369,5.3001,5.3137,5.5798,5.4626,5.4075,5.4753,5.5082,5.5225,5.5225,5.4559,5.5576,5.849,5.633,5.5979,5.7513,5.7244,5.6598,5.5641,5.6013,5.582,5.5192,5.5192,5.4593,5.3635,5.3635,5.2845,5.1517,0.0,0.0,0.0,0.0,4.8686,4.8098,0.0,0.0,0.0,0.0,0.0,0.0,0.0,1.8361,1.9428,2.2837,2.6054,2.9277,3.2627,3.4924,3.6018,3.5533,3.4022,3.2185,3.003,2.9001,2.9151,3.0667,3.164,3.297,3.4718,3.4922,3.5159,3.5488,3.6293,3.6673,3.6644,3.8493,3.9272,3.9244,4.0782,4.1503,4.1503,4.1553,4.1565,4.154,4.1051,3.9835,3.8053,3.5882,3.5705,3.6318,3.422,3.2903,3.2039,3.1376,0.0,0.0,0.0,0.0,0.0,0.0,0.0,0.0,0.0,0.0,0.0,0.0,0.0,0.0,0.0,0.0,0.0,0.0,0.0,0.0,0.0,0.0,0.0,0.0,4.5776,4.8676,5.0726,5.2041,5.3045,5.3691,5.3037,5.2779,5.3459,5.2744,5.3182,5.548,5.3662,5.3083,5.4485,0.0,0.0,0.0,0.0,5.6849,5.8798,5.6706,5.6427,5.7979,5.7453,5.6868,5.6192,5.6192,5.5893,5.5311,5.5222,5.482,5.4209,5.4209,5.3401,5.2127,5.1457,5.1146,5.0996,5.0327,4.9703,4.9108,0.0,0.0,0.0,0.0,0.0,0.0,0.0,1.9432,1.9698,2.3905,2.6214,2.8709,3.2003,3.3961,3.5155,3.5458,3.4022,3.2351,3.0548,3.0633,3.0968,3.1475,3.3635,3.436,3.3325,3.4104,3.3997,3.293,3.5446,3.6687,3.6745,3.9544,4.0859,4.0896,4.2121,4.2674,4.2699,4.3137,4.3338,4.3299,4.3198,4.1893,3.9835,3.8053,3.7513,3.7513,3.6232,3.6182,3.6508,3.5043,3.4739,3.4597,3.2612,0.0,0.0,0.0,0.0,0.0,0.0,0.0,0.0,0.0,0.0,0.0,0.0,0.0,0.0,0.0,0.0,0.0,0.0,0.0,0.0,4.5386,4.8843,5.1397,5.1742,5.2387,5.298,5.3416,5.3315,5.3472,5.4151,5.244,5.2401,5.5097,5.3699,5.2874,5.3171,5.3294,5.319,5.2752,5.1579,5.2963,5.7117,5.5505,5.5537,5.7304,5.7709,0.0,5.6192,5.6192,5.6132,5.5983,5.5431,5.482,5.4209,5.4209,5.3401,5.2127,5.1457,5.0877,5.0338,4.9714,4.9067,4.8397,0.0,0.0,0.0,0.0,0.0,0.0,0.0,1.9186,1.9892,2.3471,2.5168,2.6992,2.9478,3.0964,3.1591,3.1035,2.9682,2.9347,3.0533,3.0343,3.1225,3.3549,3.4038,3.4064,3.3656,3.4412,3.444,3.37,3.7037,3.8239,3.7528,4.0685,4.187,4.1418,4.2775,4.3729,4.4256,4.4532,4.4644,4.4669,4.4945,4.4378,4.3223,4.1542,4.0576,4.0075,3.981,3.9358,3.8718,3.7877,3.7236,3.6457,3.45,3.2943,3.1853,0.0,0.0,0.0,0.0,0.0,0.0,0.0,0.0,0.0,0.0,0.0,0.0,0.0,0.0,4.0204,0.0,0.0,4.6712,4.8563,5.0837,5.249,5.2748,5.21,5.1867,5.261,5.1998,5.1641,5.1962,5.1205,5.1627,5.3828,5.2512,5.1951,5.2754,5.2554,5.2279,5.202,5.1221,5.2715,5.665,5.4507,5.4828,5.759,5.7304,5.6808,5.6192,5.6192,5.6013,5.5683,5.5341,5.4999,5.464,5.3994,5.3306,5.2618,5.1576,5.0996,5.0578,4.9666,4.9108,4.8648,0.0,0.0,0.0,0.0,0.0,0.0,0.0,1.8804,1.9961,2.2594,2.3747,2.4942,2.6624,2.7586,2.7661,2.66,2.5795,2.6919,3.0527,3.012,3.1404,3.5159,3.4018,3.378,3.4819,3.5279,3.5649,3.593,3.929,4.0203,3.8879,4.1887,4.2923,4.2271,4.3643,4.4844,4.5824,4.5939,4.5964,4.5999,4.6451,4.6612,4.6436,4.4995,4.3854,4.3003,4.2989,4.1569,3.9735,3.9823,3.8743,3.7173,3.6019,3.5141,3.4372,3.3574,3.3752,0.0,0.0,0.0,0.0,0.0,0.0,0.0,0.0,0.0,3.8868,4.118,4.2299,4.3426,4.5154,4.7283,4.9366,5.1156,5.2041,5.27,5.3224,5.1827,5.0975,5.1612,5.0525,4.9766,4.9766,5.0167,5.0973,5.241,5.1328,5.1098,5.2259,5.2056,5.1742,5.1523,5.1523,5.3039,5.6208,5.3942,5.4587,5.8085,5.7064,5.6479,5.6372,5.6252,5.5923,5.5401,5.5251,5.5132,5.4922,5.3695,5.3126,5.2863,5.1375,5.0875,5.0888,4.9726,4.9288,4.9108,0.0,0.0,0.0,0.0,0.0,0.0,0.0,0.0,1.981,2.2081,2.2508,2.3211,2.4892,2.5193,2.5578,2.6424,2.7507,2.9075,3.1262,3.2008,3.2967,3.429,3.4622,3.5284,3.6423,3.6502,3.7203,3.8572,4.0958,4.1742,4.1076,4.3372,4.4642,4.506,4.5724,4.6361,4.6948,4.7415,4.7616,4.7631,4.7707,4.7716,4.7657,4.6973,4.6361,4.5598,4.3678,4.1569,3.9772,4.0236,3.9283,3.8053,3.8868,3.8077,3.6846,3.6983,0.0,3.3677,3.4838,3.4959,0.0,3.8174,3.7674,3.8161,0.0,0.0,4.4672,4.5935,4.8019,4.928,4.813,4.9293,5.0863,5.214,5.2233,5.2195,5.2262,5.2068,5.159,5.0705,5.0416,5.0302,5.0302,5.0377,5.0702,5.1403,5.1288,5.1029,5.068,5.1117,5.0915,4.9905,4.9854,5.1408,5.4623,5.4322,5.5509,5.8085,5.7979,5.756,5.6987,5.6419,5.6162,5.6042,5.5461,5.485,5.4239,5.3516,5.2857,5.2109,5.0189,4.9791,5.0237,4.9546,4.9288,4.9108,0.0,0.0,0.0,0.0,0.0,0.0,0.0,0.0,0.0,2.1149,2.1382,2.1633,2.2336,2.2096,2.215,2.2781,2.4506,2.679,2.9635,3.0739,3.2854,3.6373,3.6189,3.6803,3.8534,3.948,4.0106,4.0406,4.2561,4.3349,4.2833,4.4388,4.5422,4.5999,4.6537,4.7265,4.8109,4.8325,4.8586,4.8887,4.8887,4.8887,4.8736,4.7214,4.6085,4.5081,4.3215,4.1105,0.0,3.9484,3.9107,3.8605,3.9082,3.8662,3.7813,3.6852,3.6488,0.0,3.8003,0.0,0.0,0.0,4.2242,4.3778,4.7589,4.8596,4.9031,5.0,5.1254,5.1985,5.1436,5.1445,5.1792,0.0,5.2641,5.2561,5.2561,5.2442,5.194,5.0711,5.0693,5.0521,4.9972,5.1059,5.1894,5.2152,5.2152,5.2049,5.1816,5.083,5.0092,4.9615,4.959,5.1152,5.4357,5.3076,5.4532,5.8653,5.6986,5.6244,5.6302,5.5318,5.4671,5.4371,5.4939,5.482,5.4149,5.3486,5.2342,5.0991,5.054,5.0051,4.9508,4.846,4.8345,4.8577,0.0,0.0,0.0,0.0,0.0,0.0,0.0,0.0,0.0,0.0,2.044,2.044,2.044,2.0068,1.9914,2.0175,2.2067,2.4587,2.7785,2.928,3.2345,3.7563,3.7089,3.804,4.0906,4.1978,4.2508,4.2524,4.4387,4.5031,4.4503,4.5623,4.6451,4.7004,4.739,4.8109,4.9028,4.9179,4.938,4.9615,4.9766,4.9464,4.8686,4.6612,4.4654,4.2861,4.1532,3.9522,3.7475,3.7148,3.7048,3.7146,3.7738,3.8017,3.8002,3.7266,3.7912,3.9059,3.9886,0.0,0.0,4.3938,4.6271,4.8473,4.9898,5.1223,5.2226,5.2543,5.2969,5.3232,5.2953,5.2459,5.2226,5.2611,5.2795,5.2991,5.3309,5.2887,5.2077,5.0734,5.071,5.0258,4.8825,5.0632,5.2103,5.2533,5.2323,5.2286,5.2575,5.0825,4.9741,4.959,4.959,5.0932,5.37,5.2116,5.3459,5.779,5.5515,5.4599,5.4855,5.4038,5.3648,5.3649,5.4552,5.4551,5.3825,5.2807,5.1606,5.0446,5.0186,4.9728,4.9063,4.7689,4.7787,4.8468,0.0,0.0,0.0,0.0,0.0,0.0,0.0,0.0,0.0,0.0,0.0,0.0,0.0,1.9811,1.9914,2.0175,2.1806,2.3852,2.6321,2.8435,3.1755,3.6538,3.6717,3.8859,4.348,4.3245,4.3835,4.5363,4.6481,4.6747,4.6235,4.7315,4.8134,4.8718,4.8743,4.9053,4.9615,5.0126,5.0051,4.964,5.0151,4.9097,4.6998,4.5307,4.2333,3.8994,3.8354,3.6383,3.3872,3.2781,3.2405,3.275,3.4754,3.6162,0.0,3.9543,3.979,3.9385,0.0,0.0,4.3149,4.6381,4.8663,5.0538,5.2132,5.3552,5.4149,5.2859,5.3139,5.3132,5.1646,5.1758,5.2126,5.2126,5.2561,5.3267,5.4308,5.3327,5.1951,5.0484,5.0331,4.9274,0.0,4.8407,5.0334,5.1922,5.1059,5.0911,5.1979,5.0979,5.0142,4.9615,4.959,5.0404,5.2066,5.2009,5.2826,5.452,5.3855,5.3217,5.2595,5.2906,5.3795,5.5099,5.4496,5.3832,5.3071,5.1108,5.0625,5.0911,4.8252,4.8056,4.9144,4.7718,4.8091,4.9078,0.0,0.0,0.0,0.0,0.0,0.0,0.0,0.0,0.0,0.0,0.0,0.0,0.0,0.0,0.0,0.0,2.1784,2.3782,2.6055,2.8322,3.1408,3.5452,3.7299,3.9657,4.2758,4.4048,4.4958,4.5512,4.6587,4.6823,4.6336,4.7823,4.8617,4.8843,4.954,4.9766,4.9656,5.0176,5.0092,4.9515,4.8595,4.7776,4.6722,4.3209,3.9935,3.6932,0.0,3.3014,3.1808,3.1106,3.1434,3.2402,3.3943,3.487,3.5645,3.6776,3.8531,4.0358,4.1625,0.0,4.8101,5.0262,5.2304,5.3977,5.4679,5.5548,5.5521,5.3205,5.2385,5.1345,4.8951,4.867,4.9022,4.9782,5.193,5.3576,5.3799,5.5014,5.4542,5.0987,5.1474,0.0,0.0,0.0,0.0,5.2857,5.17,5.1696,5.3504,5.1239,4.9791,4.9615,4.959,5.0372,5.1989,5.0948,5.1741,5.4371,5.273,5.1227,4.9886,5.139,5.2121,5.2291,5.3609,5.329,5.1792,5.1584,4.9775,4.722,4.8627,4.8341,4.7238,4.7734,4.8249,4.8528,0.0,0.0,0.0,0.0,0.0,0.0,0.0,0.0,0.0,0.0,0.0,0.0,0.0,0.0,0.0,0.0,0.0,2.3386,2.5158,2.7309,3.0183,3.4012,3.5727,3.7609,3.9746,4.1192,4.1957,4.2069,4.3189,4.4118,4.4869,4.5838,4.6665,4.7346,4.8259,4.846,4.8174,4.8711,4.8284,4.7145,4.5874,4.4403,4.2568,3.9157,3.6181,0.0,3.0861,2.9786,2.9541,2.8953,2.9735,3.1123,3.2322,3.4205,3.6079,3.6697,3.9221,4.2362,4.5034,4.8189,5.1243,5.3468,5.4898,5.5635,5.5219,5.5344,5.4705,5.1941,5.0342,4.8826,4.6853,4.6108,4.6306,4.7999,4.965,5.1261,5.2813,5.4044,5.378,5.1095,5.1449,5.0782,0.0,0.0,0.0,5.2328,5.1648,5.1759,5.3193,5.0939,4.959,4.959,4.959,5.011,5.1126,4.9923,5.0144,5.1775,5.0393,4.9587,4.9336,5.0665,5.1528,5.1989,5.2756,5.2494,5.1428,5.0687,4.9134,4.7371,4.888,4.8562,4.7254,4.7535,4.7477,4.72,0.0,0.0,0.0,0.0,0.0,0.0,0.0,0.0,0.0,0.0,0.0,0.0,0.0,0.0,0.0,0.0,0.0,0.0,2.3699,2.5394,2.8073,3.2006,3.2136,3.2995,3.4836,3.5238,3.5557,3.5843,3.7039,3.91,4.1895,4.17,4.2553,4.4328,4.4895,4.516,4.5211,4.5698,4.4669,4.2612,4.2048,3.922,3.5193,3.36,3.1387,2.8943,2.7372,2.7043,2.7225,2.6573,0.0,0.0,3.04,3.4307,3.864,3.9391,4.1964,4.5423,4.9249,5.1095,5.2675,5.5736,5.6207,5.5488,5.3811,5.2986,5.1779,4.9112,4.7091,4.5621,0.0,0.0,4.4071,4.6712,4.6245,4.7164,5.1788,5.1155,5.0421,0.0,0.0,0.0,0.0,0.0,0.0,5.0395,5.0729,5.0928,5.122,5.0192,4.959,4.959,4.959,4.959,4.959,4.9133,4.8287,4.7099,4.7175,4.8362,5.0491,5.0505,5.1763,5.3758,5.1806,5.1341,5.1725,4.8531,4.8622,5.068,4.8935,4.8594,4.8834,4.7083,4.5987,4.5377,0.0,0.0,0.0,0.0,0.0,0.0,0.0,0.0,0.0,0.0,0.0,0.0,0.0,0.0,0.0,0.0,0.0,0.0,2.3175,2.3836,2.5203,2.7472,2.9119,3.0608,3.194,3.3511,3.4537,3.5006,3.6153,3.7132,3.7877,3.8639,3.9461,4.0363,4.0514,4.0577,4.0602,4.0715,3.9748,3.8002,3.7022,3.5454,3.3535,3.2029,3.0256,2.8582,2.8471,2.7994,0.0,0.0,0.0,0.0,0.0,3.7207,4.0217,4.1834,4.5333,4.906,5.0767,5.394,5.6462,5.5329,5.5006,5.4293,5.1793,5.013,4.8447,4.6017,4.3525,4.1236,0.0,0.0,0.0,4.4687,4.807,0.0,5.4998,5.6624,0.0,5.2712,0.0,5.2304,4.9091,4.9469,0.0,0.0,4.8672,4.9168,5.1668,5.0406,4.959,4.959,4.959,4.959,4.959,5.0145,4.9312,4.7114,4.821,4.8288,4.7449,4.8154,4.878,4.9351,4.9001,4.8964,4.9128,4.8795,4.7618,4.6199,4.8218,4.7602,4.5709,4.669,4.6368,4.5252,0.0,0.0,0.0,0.0,0.0,0.0,0.0,0.0,0.0,0.0,0.0,0.0,0.0,0.0,0.0,0.0,0.0,0.0,0.0,2.2729,2.3444,2.4612,2.564,2.6422,2.6949,2.8388,2.9236,2.9431,3.0593,3.1678,3.2771,3.3013,3.3761,3.4924,3.5164,3.539,3.5591,3.5365,3.4435,0.0,0.0,3.069,2.9504,2.8682,2.8036,2.7598,0.0,0.0,0.0,0.0,0.0,3.7593,3.9011,4.1294,4.3787,4.5573,0.0,5.1512,5.2775,5.4877,5.6388,5.4916,5.3622,5.1978,4.8932,4.7263,4.5425,4.21,4.0339,0.0,3.6734,3.7799,0.0,0.0,0.0,0.0,5.4386,5.618,5.6104,0.0,5.3471,0.0,5.0014,4.9605,4.9377,0.0,4.8891,4.9333,5.0524,4.9942,4.959,4.959,4.938,4.9028,4.8494,4.9045,4.8303,4.6401,4.7223,4.7254,4.6568,4.7095,4.7538,4.7838,4.7379,4.7342,4.7629,4.7186,4.6273,4.5264,4.6657,4.604,4.4429,4.4691,4.4349,4.3551,0.0,0.0,0.0,0.0,0.0,0.0,0.0,0.0,0.0,0.0,0.0,0.0,0.0,0.0,0.0,0.0,0.0,0.0,0.0,0.0,2.2207,2.2751,2.234,2.2018,2.1848,2.2525,2.278,2.2543,2.3588,2.5221,2.7317,2.6699,2.7332,2.906,2.9443,2.9895,3.0392,2.9845,2.8998,2.7953,2.7207,2.6086,2.489,0.0,0.0,0.0,0.0,0.0,0.0,0.0,3.8661,4.0127,4.325,4.5894,4.8231,4.9984,5.1573,5.3087,5.4553,5.4774,5.4599,5.4575,5.2498,4.9634,4.648,4.4845,4.2734,3.8328,0.0,3.7101,3.5467,3.6722,3.9192,4.2803,0.0,4.7337,5.2518,5.349,5.3593,5.3428,5.288,5.1884,5.0289,4.8447,4.7767,4.8843,5.01,5.0261,4.8957,4.9355,4.9565,4.9506,4.9028,4.8234,4.7124,4.7288,4.6748,4.5512,4.5693,4.6078,4.6593,4.6528,4.6875,4.7466,4.6167,4.6036,4.6569,4.4887,4.484,4.5714,4.4838,4.4348,4.3931,4.2403,4.1752,4.1444,0.0,0.0,0.0,0.0,0.0,0.0,0.0,0.0,0.0,0.0,1.9729,1.9315,0.0,0.0,0.0,0.0,0.0,0.0,0.0,0.0,0.0,2.1087,2.1043,2.1169,2.1546,2.1706,2.1749,2.172,2.2352,2.2874,2.3311,2.3629,2.4208,2.4983,2.4583,2.4741,2.5234,2.4658,2.4031,2.3523,2.4445,2.4359,2.3866,0.0,0.0,0.0,0.0,0.0,0.0,0.0,4.295,4.6132,4.8334,4.9886,5.1433,5.3866,5.4177,5.3884,5.4457,5.4916,5.5133,5.4625,5.2575,5.0043,4.7752,4.4379,0.0,0.0,3.5459,3.4293,3.3627,3.4893,3.7726,4.2967,0.0,0.0,0.0,0.0,5.5121,0.0,0.0,0.0,0.0,0.0,0.0,0.0,4.9712,4.9744,4.9455,4.954,4.9405,4.8953,4.8843,4.8234,4.7124,4.8315,4.7777,4.5527,4.674,4.6501,4.4983,4.4531,4.4419,4.4505,4.382,4.3972,4.4677,4.4348,4.383,4.3332,4.4154,4.353,4.2192,4.2897,4.2496,4.1554,0.0,0.0,0.0,0.0,0.0,0.0,0.0,1.8223,1.8938,2.0861,2.0646,2.0407,2.0671,2.0162,0.0,0.0,0.0,0.0,0.0,0.0,0.0,0.0,0.0,0.0,2.0621,2.0929,2.0929,2.0621,0.0,2.1299,2.1002,2.1253,2.1536,2.1794,2.1504,2.1719,2.2236,2.1637,2.1612,2.2021,2.3027,2.3669,0.0,0.0,0.0,0.0,0.0,0.0,0.0,0.0,4.2621,4.7746,5.0328,5.2149,5.348,5.3998,5.3797,5.3421,5.3612,5.3866,5.3981,5.3608,5.116,4.8047,4.5088,0.0,0.0,0.0,3.3339,3.2913,3.2369,0.0,0.0,0.0,0.0,0.0,0.0,0.0,0.0,0.0,0.0,0.0,0.0,0.0,4.8919,4.9154,4.9179,4.9305,4.9606,4.933,4.8928,4.835,4.8058,4.7516,4.6672,4.7406,4.6834,4.5045,4.5765,4.5277,4.3765,4.3489,4.3759,4.4349,4.3107,4.3206,4.4085,4.2813,4.1982,4.1544,4.1868,4.1417,4.068,4.1307,4.1132,4.0604,0.0,0.0,0.0,0.0,0.0,0.0,0.0,1.9002,1.9716,2.1776,2.1633,2.1432,2.1658,2.0671,1.9936,0.0,0.0,0.0,0.0,0.0,0.0,0.0,0.0,0.0,0.0,0.0,0.0,0.0,2.0276,0.0,0.0,0.0,0.0,0.0,0.0,2.0153,2.0683,2.0213,2.0642,0.0,0.0,2.3721,0.0,0.0,0.0,0.0,0.0,0.0,0.0,0.0,4.0376,4.5658,4.8502,5.1595,5.3852,5.2381,5.2213,5.2533,5.2683,5.3061,5.3384,5.3171,5.0457,4.6907,4.316,3.9258,0.0,0.0,3.1566,3.1772,3.1368,0.0,3.5857,0.0,4.0406,4.3777,0.0,0.0,0.0,0.0,0.0,0.0,0.0,0.0,0.0,4.8601,4.8601,4.8802,4.9213,4.8827,4.835,4.7741,4.7324,4.6848,4.6311,4.62,4.5608,4.4589,4.4478,4.394,4.3014,4.3014,4.3575,4.4496,4.2893,4.2711,4.3414,4.134,4.0437,4.0287,3.9873,3.9697,3.9697,3.9697,3.9772,3.9873,0.0,0.0,0.0,0.0,0.0,0.0,0.0,1.9002,2.0143,2.3351,2.2017,2.113,2.2114,2.1256,2.039,0.0,0.0,0.0,0.0,0.0,0.0,0.0,0.0,0.0,0.0,0.0,0.0,0.0,0.0,0.0,0.0,0.0,0.0,0.0,0.0,0.0,0.0,2.0729,0.0,0.0,0.0,0.0,0.0,0.0,0.0,0.0,0.0,0.0,0.0,0.0,0.0,3.8622,4.0428,4.5951,5.1383,4.9676,0.0,0.0,5.2034,5.3653,5.5095,5.4839,5.256,4.9407,4.5794,0.0,0.0,3.2169,3.0608,3.0027,3.0485,0.0,0.0,0.0,0.0,3.9817,0.0,0.0,0.0,0.0,0.0,0.0,0.0,4.8324,4.7465,4.7958,4.7983,4.8008,4.8043,4.8008,4.7716,4.7199,4.7124,4.6848,4.6311,4.5824,4.5246,4.4589,4.4116,4.3578,4.3014,4.3014,4.3059,4.3145,4.248,4.1952,4.1515,4.0778,4.0211,3.9772,3.9735,3.9697,3.9697,3.9697,4.0023,4.0437,0.0,0.0,0.0,0.0,0.0,0.0,1.9202,1.9472,2.045,2.3103,2.2415,2.1701,2.1802,2.0822,1.9943,0.0,0.0,0.0,0.0,0.0,0.0,0.0,0.0,0.0,0.0,0.0,0.0,0.0,0.0,0.0,0.0,0.0,0.0,0.0,0.0,0.0,0.0,0.0,0.0,0.0,0.0,0.0,0.0,0.0,0.0,0.0,0.0,0.0,0.0,0.0,0.0,0.0,3.3756,3.7668,0.0,0.0,4.6504,4.8375,5.0921,5.3478,5.5138,5.4109,5.1359,4.7966,4.4375,0.0,3.3477,3.1346,2.9887,2.9182,2.9841,2.996,3.0821,3.3432,3.4187,0.0,3.9777,0.0,0.0,0.0,0.0,0.0,0.0,0.0,4.7199,4.74,4.74,4.729,4.6938,4.7239,4.7324,4.7124,4.6772,4.6512,4.6286,4.5773,4.5196,4.4589,4.4066,4.3528,4.2989,4.2676,4.2967,4.3639,4.192,4.1507,4.1983,4.0589,3.9898,3.9697,3.9697,3.9697,3.9697,3.9697,3.9848,4.0023,0.0,0.0,0.0,0.0,0.0,1.7383,1.9271,1.9704,2.0532,2.2594,2.2264,2.1676,2.1306,1.9968,1.9001,1.8788,0.0,0.0,0.0,0.0,0.0,0.0,0.0,0.0,0.0,0.0,0.0,1.9811,1.9993,0.0,0.0,0.0,0.0,0.0,0.0,0.0,0.0,0.0,0.0,0.0,0.0,0.0,0.0,0.0,0.0,0.0,0.0,0.0,0.0,0.0,0.0,0.0,0.0,0.0,0.0,0.0,4.2766,4.609,4.9155,5.2839,5.5298,5.3409,5.0395,4.6846,0.0,0.0,3.2071,3.0552,2.9212,2.844,2.8926,2.9016,2.9488,3.095,3.1757,3.3132,3.5777,3.7897,0.0,0.0,0.0,4.4336,0.0,4.6715,4.6848,4.6848,4.6848,4.6712,4.6311,4.6662,4.6772,4.6637,4.6261,4.5974,4.5809,4.5271,4.4769,4.4353,4.3815,4.3377,4.2989,4.2626,4.2948,4.3736,4.1644,4.1306,4.2073,4.0388,3.9697,3.9697,3.9697,3.9697,3.9697,3.9697,3.9798,3.9948,0.0,0.0,0.0,0.0,0.0,0.0,1.8842,1.9472,2.0407,2.2081,2.1382,2.0717,2.0698,1.873,1.7644,1.8148,0.0,0.0,0.0,0.0,0.0,0.0,0.0,0.0,0.0,0.0,1.9811,1.9811,2.039,2.039,1.9811,2.0408,0.0,0.0,0.0,0.0,0.0,0.0,0.0,0.0,0.0,0.0,0.0,0.0,0.0,0.0,0.0,0.0,0.0,0.0,0.0,0.0,0.0,0.0,0.0,0.0,3.9463,4.5473,4.6635,5.1666,5.5934,5.3272,5.0413,4.71,0.0,0.0,3.1951,2.9997,2.8543,2.7615,2.7615,2.7615,2.8274,3.0193,3.1069,3.2123,3.3873,3.6145,0.0,0.0,0.0,4.1608,4.6335,4.6505,4.6311,4.6311,4.6311,4.6311,4.6286,4.6311,4.6075,4.5537,4.5512,4.5221,4.4614,4.4077,4.3815,4.379,4.3251,4.3014,4.3014,4.2989,4.2989,4.2953,4.1793,4.1302,4.124,4.0149,3.9697,3.9697,3.9697,3.9697,3.9697,3.9697,4.0049,4.0487,0.0,0.0,0.0,0.0,0.0,0.0,0.0,1.8059,1.8606,1.9867,1.9428,1.9139,1.9503,1.8266,1.7468,1.7638,0.0,0.0,0.0,0.0,0.0,0.0,0.0,0.0,0.0,0.0,1.9993,2.0415,2.0623,2.1042,2.1701,2.1439,2.1848,0.0,0.0,0.0,0.0,0.0,0.0,0.0,0.0,0.0,0.0,0.0,0.0,0.0,0.0,0.0,0.0,0.0,0.0,0.0,0.0,0.0,0.0,2.9279,0.0,0.0,4.197,4.58,4.8517,4.5876,4.4067,4.1932,3.8212,0.0,3.0695,2.9212,2.8201,2.7591,2.7591,2.7591,2.8387,3.08,3.1757,3.2376,0.0,0.0,0.0,3.8301,4.1152,4.3636,0.0,0.0,4.5748,4.5748,4.61,4.615,4.5773,4.5748,4.5688,4.5512,4.5512,4.5221,4.4614,4.4077,4.379,4.379,4.3251,4.3014,4.2989,4.2612,4.2222,4.1793,4.1076,4.0563,4.0186,3.9848,3.9697,3.9697,3.9697,3.9697,3.9697,3.9697,3.981,3.9948,0.0,0.0,0.0,0.0,0.0,0.0,0.0,1.7261,1.7638,1.8318,1.8103,1.8098,1.8638,1.7721,1.716,1.7392,0.0,0.0,0.0,0.0,0.0,0.0,0.0,0.0,0.0,1.9811,2.0194,2.0986,2.1213,2.1858,2.2908,2.2722,2.2999,2.3669,2.327,0.0,0.0,0.0,0.0,0.0,0.0,0.0,2.524,0.0,0.0,0.0,0.0,0.0,0.0,0.0,0.0,0.0,0.0,0.0,0.0,0.0,3.0154,3.387,0.0,4.1227,4.3581,4.1425,3.9891,0.0,0.0,0.0,2.9864,2.8816,2.8088,2.7591,2.7591,2.7369,2.7955,3.0376,0.0,0.0,0.0,0.0,0.0,0.0,0.0,0.0,0.0,4.4895,4.5587,4.5773,4.5924,4.5849,4.5512,4.5271,4.507,4.4844,4.4844,4.4568,4.4016,4.3664,4.3503,4.3489,4.3151,4.3014,4.2989,4.2637,4.2185,4.1605,4.1065,4.0512,0.0,3.9772,3.9697,3.9697,3.9697,3.9697,3.9697,3.9697,3.9697,3.9697,0.0,0.0,0.0,0.0,0.0,0.0,0.0,0.0,1.7342,1.7342,1.7367,1.7562,1.8028,1.7202,1.6858,1.7409,0.0,0.0,0.0,0.0,0.0,0.0,0.0,0.0,0.0,1.9729,2.0288,2.1425,2.2085,2.2811,2.3625,2.4225,2.4306,2.3913,2.3855,0.0,0.0,0.0,0.0,0.0,0.0,0.0,0.0,0.0,0.0,0.0,0.0,0.0,0.0,0.0,0.0,0.0,0.0,0.0,0.0,0.0,0.0,0.0,0.0,3.7358,0.0,0.0,0.0,0.0,0.0,0.0,0.0,2.8673,2.8021,2.7621,2.7735,2.7091,2.7294,0.0,0.0,0.0,0.0,0.0,0.0,0.0,4.1915,0.0,4.3011,4.4457,4.5623,4.61,4.5698,4.5437,4.5386,4.4855,4.4303,4.3765,4.374,4.3489,4.3,4.3014,4.3014,4.3014,4.3014,4.3014,4.3014,4.2964,4.2637,4.2098,4.1491,4.0951,4.0412,3.9898,3.9697,3.9697,3.9697,3.9697,3.9697,3.9697,3.9697,3.9697,0.0,0.0,0.0,0.0,0.0,0.0,0.0,0.0,0.0,0.0,1.7105,1.7261,1.6937,1.7439,1.7867,0.0,0.0,0.0,0.0,0.0,0.0,0.0,0.0,0.0,0.0,1.8995,1.9761,2.0893,2.2508,2.4113,2.5718,2.6414,2.646,2.5901,2.5379,2.433,0.0,0.0,0.0,0.0,0.0,0.0,0.0,0.0,0.0,0.0,2.4445,2.4074,0.0,0.0,0.0,0.0,0.0,0.0,0.0,0.0,2.5573,2.5675,2.7359,0.0,3.1397,3.0566,3.0416,3.02,0.0,0.0,0.0,0.0,0.0,2.7914,2.8926,2.8032,2.8253,0.0,0.0,0.0,0.0,0.0,0.0,4.1195,4.3591,4.4366,4.2564,4.3854,4.4679,4.4418,4.4654,4.4629,4.4217,4.4066,4.374,4.3201,4.3176,4.3126,4.3014,4.3014,4.3014,4.3014,4.3014,4.3014,4.2989,4.2576,4.2071,4.1478,4.0926,4.0387,3.9873,3.9747,3.9697,3.9697,3.9697,3.9697,3.9697,3.9697,3.9697,3.9697,0.0,0.0,0.0,0.0,0.0,0.0,0.0,0.0,0.0,0.0,0.0,0.0,0.0,0.0,0.0,0.0,0.0,0.0,0.0,0.0,0.0,0.0,0.0,0.0,1.8932,1.9797,2.0814,2.1937,2.3299,2.4943,2.6807,2.7225,2.6954,2.6093,2.5136,2.3944,0.0,0.0,0.0,0.0,2.3726,0.0,0.0,0.0,0.0,0.0,2.4111,2.3847,0.0,2.361,2.361,2.3664,0.0,0.0,0.0,0.0,2.467,2.4281,2.4969,2.6829,2.8517,2.8141,2.856,2.8949,0.0,0.0,0.0,0.0,0.0,0.0,2.8757,0.0,0.0,0.0,0.0,0.0,0.0,0.0,0.0,4.3391,4.4532,4.502,0.0,4.4934,4.4895,4.4593,4.4367,4.4116,4.3815,4.3327,4.3065,4.3014,4.2484,4.2459,4.2989,4.3014,4.3014,4.3014,4.3014,4.2864,4.2612,4.2324,4.1758,4.0926,4.0638,4.0199,3.9697,3.9697,3.9697,3.9697,3.9697,3.9697,3.9697,3.9697,3.9697,3.9697,0.0,0.0,0.0,0.0,0.0,0.0,0.0,0.0,0.0,0.0,0.0,0.0,0.0,0.0,0.0,0.0,0.0,0.0,0.0,0.0,0.0,0.0,0.0,1.981,1.9839,2.0985,2.2107,2.3166,2.4333,2.5669,2.7189,2.7712,2.7166,2.5698,2.4233,2.3321,0.0,0.0,0.0,0.0,2.3269,0.0,0.0,0.0,0.0,0.0,0.0,0.0,0.0,2.361,2.361,2.361,2.361,0.0,0.0,0.0,0.0,0.0,2.4545,2.6709,2.8637,2.8128,2.8733,2.9398,0.0,0.0,0.0,0.0,0.0,0.0,0.0,0.0,0.0,0.0,0.0,0.0,0.0,0.0,4.1831,4.5236,4.5683,0.0,4.7739,4.6731,4.5885,4.5631,4.4425,4.3589,4.3438,4.2637,4.2375,4.2724,4.1804,4.1754,4.2724,4.2749,4.2774,4.2889,4.2774,4.2498,4.206,4.1998,4.1418,4.0487,4.0412,4.0124,3.9697,3.9697,3.9697,3.9697,3.9697,3.9697,3.9697,3.9697,3.9697,3.9697,0.0,0.0,0.0,0.0,0.0,0.0,0.0,0.0,0.0,0.0,0.0,0.0,0.0,0.0,0.0,0.0,0.0,0.0,0.0,0.0,0.0,0.0,2.0072,1.948,2.0046,2.0701,2.1353,2.2063,2.5454,2.6934,2.6694,2.9527,2.9287,2.6369,2.4453,2.3555,2.346,0.0,0.0,0.0,0.0,0.0,0.0,0.0,0.0,0.0,0.0,0.0,0.0,2.361,2.361,2.361,2.361,0.0,0.0,0.0,0.0,0.0,2.5094,2.741,2.877,2.5926,2.7009,2.8464,0.0,0.0,0.0,0.0,0.0,0.0,0.0,0.0,0.0,0.0,0.0,3.7475,0.0,0.0,4.501,4.605,0.0,5.0112,4.8025,4.8112,4.7695,4.6206,4.4254,4.2685,4.1729,4.1996,4.2009,4.1578,4.1389,4.1364,4.1553,4.1553,4.1831,4.2324,4.1806,4.1528,4.1428,4.0964,4.0676,4.0487,4.0023,3.9772,3.9697,3.9697,3.9697,3.9697,3.9697,3.9697,3.9697,3.9697,3.9697,3.9697,0.0,0.0,0.0,0.0,0.0,0.0,0.0,0.0,0.0,0.0,0.0,0.0,0.0,0.0,0.0,0.0,0.0,0.0,0.0,0.0,0.0,2.171,2.0575,2.0094,2.0357,2.16,2.2666,2.3528,2.6001,2.7223,2.7214,2.7837,2.7198,2.5453,2.4173,2.361,2.361,2.361,0.0,0.0,0.0,0.0,0.0,0.0,0.0,0.0,0.0,0.0,0.0,0.0,2.3789,2.399,2.3682,0.0,0.0,0.0,0.0,0.0,2.479,2.6752,2.8147,2.6608,2.8757,3.1001,0.0,0.0,0.0,0.0,0.0,0.0,0.0,0.0,0.0,0.0,0.0,3.9836,4.2235,4.324,4.4777,0.0,0.0,5.1091,5.1784,5.129,4.9866,4.7365,4.5323,4.3337,4.1404,4.1304,4.1279,4.1289,4.0725,4.07,4.1289,4.0738,4.0877,4.1706,4.1428,4.1138,4.0851,4.06,4.0337,4.0049,3.981,3.9697,3.9697,3.9697,3.9697,3.9697,3.9697,3.9697,3.9697,3.9697,3.9697,3.966,0.0,0.0,0.0,0.0,0.0,0.0,0.0,0.0,0.0,0.0,0.0,0.0,0.0,0.0,0.0,0.0,0.0,0.0,0.0,0.0,2.1547,2.1682,2.1035,2.0849,2.1259,2.2656,2.3938,2.502,2.6318,2.7226,2.7691,2.6098,2.5077,2.4569,2.3903,2.361,2.361,2.361,2.361,0.0,0.0,0.0,0.0,0.0,0.0,0.0,0.0,0.0,0.0,0.0,0.0,0.0,0.0,0.0,0.0,2.4354,2.3988,2.3784,2.461,2.6183,2.7651,2.7788,0.0,0.0,0.0,0.0,0.0,0.0,0.0,0.0,0.0,0.0,0.0,0.0,4.0036,4.1329,4.2587,4.3284,4.5182,4.92,5.08,5.2646,5.5375,5.4337,5.207,4.8592,4.6395,4.3949,4.1081,4.065,4.0638,4.0926,4.0136,4.0099,4.0926,4.0124,4.0174,4.1127,4.1001,4.07,4.0312,4.0312,4.0099,3.9697,3.9697,3.9635,3.9534,3.9647,3.9546,3.932,3.9459,3.9509,3.9509,3.9509,3.9597,3.9635,0.0,0.0,0.0,0.0,0.0,0.0,0.0,0.0,0.0,0.0,0.0,0.0,0.0,0.0,0.0,0.0,0.0,0.0,0.0,0.0,2.106,2.1677,2.0991,2.1419,2.3162,2.3322,2.3967,2.5105,2.6484,2.7295,2.7478,2.6104,2.5162,2.4569,2.3903,2.361,2.361,2.361,2.361,2.361,0.0,0.0,0.0,0.0,0.0,0.0,0.0,0.0,0.0,0.0,0.0,0.0,0.0,0.0,2.3664,2.368,2.3645,2.3879,2.519,2.6554,2.7735,2.8368,0.0,0.0,0.0,0.0,0.0,0.0,0.0,0.0,0.0,0.0,3.5511,3.8429,4.0691,4.2637,4.4202,0.0,4.8586,5.0066,5.4324,5.6996,5.6637,5.6145,5.4021,4.9634,4.6745,4.3623,4.0014,4.0236,4.0287,3.9823,3.9747,3.9747,3.9798,3.9747,3.9998,4.0563,4.0049,3.9798,3.976,3.976,3.9747,3.9697,3.9697,3.9409,3.8994,3.9484,3.9069,3.8191,3.8743,3.8944,3.8944,3.8944,3.9258,3.9635,0.0,0.0,0.0,0.0,0.0,0.0,0.0,0.0,0.0,0.0,0.0,0.0,0.0,0.0,0.0,0.0,0.0,0.0,0.0,0.0,2.1111,2.0602,2.0269,2.0599,2.1694,2.3077,2.4503,2.598,2.6141,2.5932,2.5371,2.4579,2.392,2.3428,2.3536,2.361,2.361,2.361,2.361,2.361,2.361,0.0,0.0,0.0,0.0,0.0,0.0,0.0,0.0,0.0,2.3815,2.4053,2.3693,2.3826,2.4042,2.3687,2.361,2.3699,2.4233,2.5926,2.7651,2.7908,0.0,0.0,0.0,0.0,0.0,0.0,0.0,0.0,0.0,0.0,3.7876,3.9622,4.1468,4.3039,4.3966,4.5717,4.7828,5.0364,5.3416,5.5913,5.7419,5.671,5.4625,5.0872,4.7684,4.4447,4.1048,4.0312,3.9898,3.971,3.9697,3.9697,3.9697,3.9697,3.9798,3.9998,3.9798,3.9697,3.9697,3.9697,3.9697,3.9672,3.9333,3.9095,3.8894,3.8705,3.8391,3.8028,3.8241,3.8341,3.8341,3.8341,3.8467,3.8567,0.0,0.0,0.0,0.0,0.0,0.0,0.0,0.0,0.0,0.0,0.0,0.0,0.0,0.0,0.0,0.0,0.0,0.0,2.0723,2.1335,2.1234,2.0206,2.0296,2.0541,2.0941,2.26,2.4213,2.572,2.5117,2.4302,2.3289,2.2991,2.2661,2.2397,2.2818,2.3108,2.3308,2.3308,2.3417,2.361,2.361,2.361,0.0,0.0,0.0,0.0,0.0,0.0,0.0,0.0,2.3847,2.4064,2.3709,2.3853,2.409,2.3698,2.361,2.361,2.361,2.5261,2.7069,0.0,0.0,0.0,0.0,0.0,0.0,0.0,0.0,0.0,0.0,0.0,0.0,0.0,4.1491,4.266,4.3226,4.4862,4.7042,4.9773,5.2391,5.4831,5.6989,5.6196,5.4205,5.0916,4.7844,4.4795,4.1757,4.0223,3.9434,3.9434,3.9245,3.9245,3.9434,3.9258,3.9258,3.9434,3.9245,3.9245,3.9434,3.9245,3.917,3.9145,3.8781,3.8517,3.8341,3.809,3.7902,3.7739,3.7563,3.7588,3.7739,3.7739,3.7864,3.7914,0.0,0.0,0.0,0.0,0.0,0.0,0.0,0.0,0.0,0.0,0.0,0.0,0.0,0.0,0.0,0.0,0.0,0.0,2.0693,2.1331,2.1415,2.0728,2.1264,2.1547,2.1491,2.2028,2.2849,2.3979,2.3379,2.2588,2.1595,2.1595,2.1632,2.1698,2.171,2.2068,2.2694,2.2706,2.3043,2.361,2.361,2.361,0.0,0.0,0.0,0.0,0.0,0.0,0.0,0.0,2.358,2.358,2.361,2.361,2.361,2.361,2.361,2.361,2.361,2.4592,2.5944,0.0,0.0,0.0,0.0,0.0,0.0,0.0,0.0,0.0,0.0,0.0,0.0,3.9333,4.0575,4.1491,4.2098,4.453,4.6779,4.813,5.176,5.4418,5.5102,5.4551,5.2803,4.9522,4.6929,4.4342,4.1743,3.9902,3.8906,3.8894,3.8316,3.8291,3.8906,3.8303,3.8303,3.8869,3.8266,3.8303,3.8869,3.8266,3.8002,3.8002,3.7977,3.7688,3.7248,3.7764,3.7663,3.7135,3.6619,3.6708,3.7198,3.7198,3.7525,3.7914,0.0,0.0,0.0,0.0,0.0,0.0,0.0,0.0,0.0,0.0,0.0,0.0,0.0,0.0,0.0,0.0,0.0,0.0,2.0723,2.1759,2.1929,2.0885,2.0963,2.0857,2.0458,2.1335,2.2137,2.2791,2.2633,2.1994,2.0973,2.1029,2.1047,2.1107,2.2003,2.2523,2.2723,2.3143,2.3428,2.361,2.361,2.361,2.361,0.0,0.0,0.0,0.0,0.0,0.0,0.0,0.0,0.0,2.3465,2.3928,2.4221,2.3729,2.3928,2.4192,2.3724,2.5267,0.0,0.0,0.0,0.0,0.0,0.0,0.0,0.0,0.0,3.8052,3.8529,0.0,0.0,3.8467,3.9433,4.0375,4.0927,4.2553,4.4482,4.6635,4.8759,5.0668,5.221,5.139,5.0145,4.8718,4.6194,4.383,4.1789,4.0302,3.9127,3.8291,3.809,3.809,3.8278,3.809,3.809,3.8266,3.7688,3.7726,3.8266,3.809,3.8002,3.799,3.7588,3.7349,3.7173,3.6959,3.6783,3.6619,3.6468,3.6494,3.6644,3.6644,3.6745,3.6859,0.0,0.0,0.0,0.0,0.0,0.0,0.0,0.0,0.0,0.0,0.0,0.0,0.0,0.0,0.0,0.0,0.0,0.0,0.0,2.1799,2.2013,2.0497,2.0885,2.0883,2.0322,2.116,2.174,2.2065,2.2038,2.1595,2.0739,2.052,2.0396,2.0446,2.1476,2.2067,2.234,2.2987,2.3373,2.361,2.361,2.361,2.361,0.0,0.0,0.0,0.0,0.0,0.0,0.0,0.0,0.0,2.3495,2.3874,2.4132,2.3724,2.3724,2.3874,2.3958,0.0,0.0,0.0,0.0,0.0,0.0,0.0,0.0,0.0,0.0,3.7252,3.7698,3.773,0.0,3.8066,3.9011,3.9898,4.0437,4.1479,4.2865,4.4621,4.5998,4.726,4.8451,4.7825,4.7096,4.6469,4.4254,4.2441,4.1372,3.9682,3.8427,3.7713,3.7249,3.7124,3.7349,3.691,3.6798,3.6986,3.6446,3.6383,3.6697,3.7173,3.7374,3.7324,3.6759,3.6521,3.6508,3.6182,3.618,3.6393,3.6393,3.6393,3.6393,3.6393,3.6393,3.6464,0.0,0.0,0.0,0.0,0.0,0.0,0.0,0.0,0.0,0.0,0.0,0.0,0.0,0.0,0.0,0.0,0.0,0.0,0.0,0.0,2.1804,1.9954,2.0996,2.1346,2.0808,2.1342,2.1674,2.1793,2.1715,2.1395,2.0783,2.0169,1.9869,1.9843,2.0559,2.1192,2.1758,2.2466,2.3093,2.361,2.361,2.361,2.361,2.361,0.0,0.0,0.0,0.0,0.0,0.0,0.0,0.0,2.3585,2.361,2.361,2.361,2.3171,2.2997,2.4341,0.0,0.0,0.0,0.0,0.0,0.0,0.0,0.0,0.0,0.0,3.4862,3.5927,3.5897,3.6305,3.7966,3.8891,3.963,4.0273,4.0887,4.1571,4.2337,4.3416,4.4139,4.4319,4.41,4.3691,4.3174,4.1437,4.0344,4.0233,3.8277,3.7104,3.6984,3.5958,3.5668,3.6167,3.5191,3.4917,3.5344,3.4904,3.4703,3.4728,3.5767,3.6242,3.6205,3.5656,3.5433,3.5433,3.5433,3.5743,3.6242,3.6292,3.6318,3.6318,3.6368,3.6393,3.6545,0.0,0.0,0.0,0.0,0.0,0.0,0.0,0.0,0.0,0.0,0.0,0.0,0.0,0.0,0.0,0.0,0.0,0.0,0.0,0.0,2.1735,2.1293,2.1076,2.0937,2.0795,2.1367,2.1938,2.2472,2.2413,2.184,2.0795,2.0646,2.0295,1.9837,2.0988,2.1586,2.1781,2.2919,2.3466,2.361,2.361,2.361,2.361,2.361,2.3321,0.0,0.0,0.0,0.0,0.0,0.0,0.0,2.3465,2.361,2.361,2.361,2.3171,2.3087,0.0,2.545,0.0,0.0,0.0,0.0,0.0,0.0,0.0,0.0,3.5584,3.5823,3.6053,3.5721,3.5915,3.7425,3.7492,3.7777,3.9067,3.8969,3.9362,4.0988,4.1005,4.1293,4.2291,4.1134,4.0108,3.9564,3.8647,3.7706,3.6743,3.6671,3.6218,3.5276,3.5004,3.4739,3.4435,3.4614,3.4552,3.4237,3.4552,3.4703,3.4703,3.494,3.5066,3.5066,3.4929,3.4867,3.4867,3.4867,3.4954,3.5116,3.5531,3.5707,3.5757,3.623,3.6393,3.6482,0.0,0.0,0.0,0.0,0.0,0.0,0.0,0.0,0.0,0.0,0.0,0.0,0.0,0.0,0.0,0.0,0.0,0.0,0.0,0.0,2.1365,2.1682,2.1128,2.1097,2.169,2.2021,2.2489,2.3126,2.3097,2.2447,2.1228,2.1211,2.0852,2.034,2.1586,2.2142,2.2253,2.3203,2.361,2.361,2.361,2.361,2.361,2.361,2.3231,2.2643,2.2308,0.0,0.0,0.0,0.0,0.0,0.0,0.0,2.2747,2.3082,2.2478,2.2178,0.0,0.0,0.0,0.0,0.0,0.0,0.0,0.0,0.0,3.0795,3.1742,3.2668,3.3463,3.3968,3.4501,3.5266,3.5565,3.5947,3.6718,3.6407,3.6702,3.8303,3.8213,3.8344,3.9154,3.8364,3.7473,3.6688,3.556,3.4724,3.4275,3.3833,3.3536,3.3454,3.3175,3.3049,3.3083,3.3108,3.2993,3.2702,3.2993,3.3258,3.3524,3.4327,3.4564,3.4313,3.4313,3.4313,3.4313,3.4313,3.4463,3.4728,3.5004,3.5118,3.5155,3.5479,3.5591,3.5757,0.0,0.0,0.0,0.0,0.0,0.0,0.0,0.0,0.0,0.0,0.0,0.0,0.0,0.0,0.0,0.0,0.0,0.0,0.0,0.0,0.0,2.1505,2.1174,2.1494,2.2666,2.2694,2.2992,2.361,2.3512,0.0,0.0,0.0,2.1669,2.1171,2.2294,2.2758,2.2734,2.3335,2.361,2.361,2.361,2.361,2.361,2.361,2.3231,2.2708,2.2708,2.2708,2.2613,2.1944,0.0,0.0,0.0,0.0,2.1665,2.2343,2.1585,2.0952,0.0,0.0,0.0,0.0,0.0,0.0,0.0,0.0,2.7948,2.7474,2.7817,2.8715,3.0369,3.1669,3.2579,3.2833,3.3502,3.4075,3.4329,3.4102,3.4393,3.5715,3.5804,3.5904,3.6214,3.5939,3.5307,3.4219,3.2668,3.1882,3.2126,3.0777,3.0526,3.1672,3.1221,3.1277,3.1918,3.1587,3.1254,3.0971,3.0861,3.105,3.1554,3.3135,3.377,3.3596,3.3495,3.352,3.3596,3.3596,3.3936,3.4427,3.4539,3.4552,3.4577,3.4678,3.4703,3.4993,0.0,0.0,0.0,0.0,0.0,0.0,0.0,0.0,0.0,0.0,0.0,0.0,0.0,0.0,0.0,0.0,0.0,0.0,2.0286,0.0,0.0,2.0817,2.1309,2.1917,2.2677,2.2694,2.2992,2.361,2.3076,0.0,0.0,0.0,0.0,2.2484,0.0,2.3252,2.2734,2.3335,2.361,2.361,2.361,2.361,2.361,2.361,2.3231,2.2708,0.0,2.2708,2.2613,2.1944,2.2159,0.0,0.0,0.0,2.0972,2.164,2.0891,2.0298,0.0,0.0,0.0,0.0,0.0,0.0,0.0,0.0,2.6041,0.0,2.7544,2.7932,2.9487,2.9923,3.0489,3.1779,3.1705,3.1932,3.3216,3.348,3.4012,3.5173,3.5061,3.5071,3.5572,3.4357,3.3062,3.1934,3.0764,2.9907,2.9447,2.8783,2.8919,3.0085,3.0034,3.024,3.0804,3.121,3.0663,2.9234,2.8765,2.858,2.8692,2.9914,3.1174,3.2405,3.1949,3.1989,3.243,3.243,3.2767,3.3366,3.3822,3.3997,3.4073,3.4527,3.4703,3.4819,0.0,0.0,0.0,0.0,0.0,0.0,0.0,0.0,0.0,0.0,0.0,0.0,0.0,0.0,0.0,2.154,2.0615,1.9945,1.9945,2.0441,2.0882,2.1244,2.1904,2.2688,2.3636,2.3368,2.3488,2.4033,0.0,0.0,0.0,2.4102,2.375,0.0,0.0,0.0,0.0,2.3105,2.328,2.361,2.361,2.3406,2.3147,2.346,2.2987,2.2243,0.0,0.0,0.0,0.0,2.164,2.152,2.1236,0.0,0.0,0.0,2.0472,0.0,2.2027,0.0,0.0,0.0,0.0,0.0,2.5711,0.0,2.4458,2.5197,2.5242,2.5941,2.8414,2.8861,2.9158,3.0044,3.0172,3.0661,3.2155,3.2624,3.3513,3.5386,3.4917,3.4628,3.5002,3.357,3.2139,3.1035,2.9642,2.8852,2.8838,2.8007,2.807,2.9194,2.863,2.8571,2.9192,2.8831,2.8266,2.7563,2.7618,2.7654,2.7697,2.8798,2.988,3.088,3.124,3.1712,3.2204,3.2204,3.2566,3.3115,3.3366,3.3456,3.3481,3.3732,3.3796,3.386,0.0,0.0,0.0,0.0,0.0,0.0,0.0,0.0,0.0,0.0,0.0,0.0,0.0,0.0,0.0,0.0,2.054,1.9799,1.9712,2.049,2.1188,2.168,2.2617,2.3539,2.4384,2.4127,2.4127,0.0,0.0,0.0,2.4415,2.4101,2.378,0.0,2.3547,0.0,0.0,0.0,0.0,2.358,2.3435,2.3112,2.2733,0.0,0.0,2.2094,2.3016,0.0,0.0,0.0,0.0,0.0,0.0,0.0,0.0,0.0,0.0,0.0,0.0,0.0,2.2212,2.3063,2.411,2.4545,0.0,0.0,2.3608,0.0,2.3736,2.4449,2.6878,2.7591,2.7818,2.7802,2.8892,3.0131,3.1263,3.2346,3.369,3.5494,3.503,3.4543,3.4441,3.3184,3.1853,3.0683,2.9185,2.8335,2.8404,2.7474,2.7403,2.8387,2.7453,2.7308,2.8084,2.6748,2.6057,2.6079,2.6179,2.6226,2.6279,2.7657,2.8542,2.9033,3.0402,3.1311,3.1792,3.1792,3.2139,3.2663,3.2663,3.2663,3.2663,3.2663,3.2663,3.2729,0.0,0.0,0.0,0.0,0.0,0.0,0.0,0.0,0.0,0.0,0.0,0.0,2.0943,2.0971,2.1138,2.1555,2.0777,2.0106,1.9735,2.0922,2.167,2.17,2.3392,0.0,2.44,2.4881,2.4891,0.0,0.0,0.0,2.4189,2.3051,2.3039,2.3969,2.4243,2.3764,2.2769,0.0,0.0,0.0,0.0,0.0,0.0,0.0,0.0,0.0,0.0,0.0,0.0,0.0,0.0,0.0,0.0,0.0,0.0,0.0,0.0,0.0,0.0,1.8786,0.0,1.9477,0.0,0.0,0.0,0.0,2.389,2.4268,2.4345,2.4407,2.4574,2.5644,2.6101,2.4927,2.7893,3.0415,3.0628,3.3191,3.5068,3.5144,3.5263,3.491,3.386,3.3155,3.2165,3.0718,2.9525,2.8437,2.7422,2.6849,2.6803,2.7345,2.6818,2.705,2.8084,2.5963,2.4893,2.4883,2.382,2.3317,2.3393,2.56,2.6641,2.6788,2.8958,3.0181,3.0688,3.0688,3.0999,3.1497,3.1497,3.1497,3.1497,3.1497,3.1497,3.1482,0.0,0.0,0.0,0.0,0.0,0.0,0.0,0.0,0.0,0.0,0.0,0.0,0.0,2.0317,2.0325,2.0724,2.0249,2.018,2.0821,2.1658,2.2502,2.3257,2.4336,2.5081,2.5416,2.5283,0.0,0.0,0.0,2.3967,2.3719,2.29,2.2498,2.2458,2.2531,2.2777,2.3112,2.2574,0.0,0.0,0.0,0.0,0.0,0.0,0.0,0.0,0.0,0.0,0.0,0.0,0.0,0.0,0.0,0.0,0.0,0.0,0.0,0.0,0.0,0.0,0.0,1.8997,1.9912,2.0723,2.0961,2.159,2.2166,2.2323,2.2791,2.2942,2.2176,2.3714,2.529,2.5829,2.8476,3.1203,3.3258,3.5617,3.7309,3.7783,3.7011,3.5699,3.3821,3.2816,3.1916,3.1042,2.9698,2.9025,2.9286,2.8164,2.7601,2.7816,2.7284,2.7035,2.7065,2.5567,2.4798,2.4798,2.5115,2.4904,2.4264,2.65,2.7522,2.7602,2.915,3.0105,3.0588,3.0588,3.0924,3.1396,3.1396,3.1396,3.1396,3.1396,3.1396,3.1346,0.0,0.0,0.0,0.0,0.0,0.0,0.0,0.0,0.0,0.0,0.0,0.0,0.0,0.0,1.9884,2.0391,2.0201,2.0484,2.1513,2.2297,2.3097,2.3917,2.4912,2.5654,2.5983,2.5824,0.0,0.0,0.0,0.0,0.0,2.2917,2.248,2.2204,2.1747,2.2047,0.0,0.0,0.0,2.352,0.0,0.0,2.2004,0.0,0.0,0.0,0.0,0.0,0.0,0.0,0.0,0.0,0.0,0.0,0.0,0.0,0.0,0.0,1.7898,0.0,0.0,0.0,0.0,1.9349,1.9581,2.0162,2.073,2.0948,2.1572,2.1963,2.164,2.293,2.4488,2.5903,2.9182,3.2509,3.5146,3.7196,3.8518,3.8799,3.7474,3.5546,3.2922,3.2281,3.1622,3.0658,2.9643,2.9268,2.9742,2.8709,2.7932,2.7558,2.7219,2.6753,2.6204,2.5453,2.5165,2.5378,2.613,2.6088,2.5431,2.7279,2.8094,2.8154,2.9317,3.0005,3.0322,3.0322,3.0532,3.0869,3.0869,3.0869,3.0869,3.0869,3.0869,3.0819,0.0,0.0,0.0,0.0,0.0,0.0,0.0,0.0,0.0,1.9703,0.0,0.0,0.0,0.0,0.0,2.0663,2.0723,2.1006,2.1724,2.2783,2.3425,2.3471,2.5116,2.601,2.601,0.0,0.0,0.0,0.0,0.0,0.0,0.0,2.2933,2.3335,2.2199,2.1695,2.1734,0.0,2.2973,2.349,0.0,2.2094,2.2613,0.0,0.0,0.0,2.2643,2.2643,0.0,0.0,0.0,0.0,0.0,0.0,0.0,0.0,0.0,0.0,0.0,0.0,0.0,0.0,0.0,0.0,1.8322,0.0,1.9736,2.0405,2.0869,2.158,2.2976,2.3258,2.3686,2.4851,2.9856,3.4186,3.5903,3.7612,3.8446,3.7734,3.6427,3.4329,3.1112,3.1552,3.1302,2.9539,2.9399,2.9126,2.8553,2.8206,2.7557,2.6538,2.6472,2.6188,2.5666,2.5649,2.5925,2.6533,2.6564,2.6564,2.6586,2.7653,2.8144,2.8217,2.9326,2.9814,2.9814,2.9814,2.9814,2.9814,2.9814,2.9814,2.9814,2.9814,2.9814,2.9814,0.0,0.0,0.0,0.0,0.0,0.0,0.0,0.0,0.0,0.0,0.0,0.0,0.0,2.0187,2.0702,2.1361,2.142,2.1837,2.2874,2.3596,2.436,2.5223,2.6075,2.6517,2.6517,0.0,0.0,0.0,0.0,2.4629,2.3557,2.2973,0.0,0.0,2.2072,2.1689,2.1709,2.1891,0.0,0.0,2.2208,2.2094,0.0,0.0,0.0,0.0,0.0,2.1545,0.0,0.0,2.0693,2.0587,0.0,0.0,0.0,0.0,0.0,0.0,1.6832,0.0,0.0,0.0,0.0,0.0,0.0,0.0,1.8331,1.8959,1.9664,2.0419,2.1199,2.2343,2.3775,2.5709,2.8909,3.1979,3.4342,3.5357,3.6073,3.6745,3.4424,3.2212,3.0921,3.0675,3.0323,2.9721,2.9238,2.8988,2.9065,2.7426,2.65,2.6498,2.5706,2.5973,2.739,2.6643,2.6521,2.7081,2.7873,2.8026,2.7693,2.8831,2.9336,2.9356,2.9663,2.9814,2.9814,2.9814,2.9814,2.9814,2.9814,2.9814,2.9814,2.9814,2.9814,2.9814,0.0,0.0,0.0,0.0,0.0,0.0,0.0,0.0,0.0,0.0,0.0,0.0,2.0507,2.0887,2.1395,2.2064,2.2129,2.2602,2.3755,2.4333,2.5038,2.597,2.6461,2.67,2.67,2.67,2.6219,0.0,2.5202,2.4657,2.3604,2.3231,0.0,0.0,0.0,0.0,0.0,0.0,0.0,0.0,2.2119,0.0,0.0,2.2203,2.1894,0.0,0.0,0.0,2.1944,2.0707,2.0268,0.0,0.0,0.0,0.0,0.0,0.0,0.0,0.0,0.0,0.0,0.0,0.0,0.0,1.7336,1.7373,1.7442,0.0,1.8542,1.9281,2.0181,2.1331,2.2825,2.4882,2.7039,2.9706,3.3337,3.3638,3.3761,3.4632,3.2368,3.022,2.8967,2.9148,2.9151,2.8758,2.8631,2.8511,2.8352,2.678,2.6098,2.6567,2.5629,2.5972,2.7745,2.7155,2.7226,2.7984,2.8589,2.8868,2.8826,2.9507,2.9814,2.9814,2.9814,2.9814,2.9814,2.9814,2.9814,2.9814,2.9814,2.9814,2.9814,2.9814,2.9814,2.9814,0.0,0.0,0.0,0.0,0.0,0.0,0.0,0.0,0.0,0.0,2.0403,2.1061,2.1729,2.1819,2.2069,2.2733,2.2793,2.3216,2.4246,2.4876,2.5406,2.5888,2.6435,2.67,2.67,2.67,2.6245,2.5288,2.523,2.4687,2.3677,0.0,0.0,0.0,0.0,0.0,0.0,0.0,0.0,2.2553,2.1944,2.2448,0.0,0.0,2.3495,0.0,2.2877,2.2708,2.2393,2.0466,1.9807,0.0,0.0,0.0,0.0,0.0,1.7953,0.0,0.0,0.0,0.0,0.0,0.0,0.0,1.7069,1.7018,1.7006,1.7301,1.7645,1.831,1.9681,2.0357,2.1288,2.3079,2.4582,2.7215,3.224,3.1955,3.1367,3.182,3.0082,2.8057,2.6104,2.7214,2.779,2.7037,2.7805,2.7954,2.7085,2.6419,2.6206,2.6517,2.5936,2.6114,2.711,2.7185,2.7729,2.8722,2.8772,2.9107,2.9704,2.9754,2.9814,2.9814,2.9739,2.9796,2.9953,2.9877,2.9835,2.9814,2.9814,2.9814,2.9814,2.9814,2.9814,2.9814,0.0,0.0,0.0,0.0,0.0,0.0,0.0,0.0,0.0,2.0488,2.1096,2.1759,0.0,0.0,2.2757,2.3376,2.3406,2.3514,2.3741,2.4667,2.525,2.535,2.6228,2.67,2.67,2.67,2.6406,2.5847,2.5406,2.4881,2.4225,0.0,0.0,0.0,0.0,0.0,0.0,0.0,0.0,2.1879,2.1759,0.0,2.3555,2.3057,2.2882,2.2853,2.2733,2.2708,2.2486,0.0,2.0539,2.0489,0.0,0.0,0.0,0.0,0.0,0.0,0.0,0.0,0.0,0.0,0.0,0.0,1.7421,1.72,1.7204,1.7684,1.7842,1.8246,1.9395,1.9808,2.0417,2.1761,2.2163,2.3968,2.8715,2.8667,2.8412,2.9081,2.6544,2.4745,2.473,2.5547,2.5981,2.5764,2.7434,2.8131,2.7352,2.7189,2.6578,2.5459,2.5691,2.5867,2.5921,2.6415,2.6968,2.7629,2.8037,2.853,2.9082,2.9578,2.9814,2.9754,2.9292,2.9792,3.0887,3.0452,3.0099,2.9814,2.9814,2.9814,2.9814,2.9814,2.9814,2.9814,0.0,0.0,0.0,0.0,0.0,0.0,0.0,0.0,2.1211,2.1211,2.1789,2.2573,0.0,0.0,0.0,0.0,2.4107,2.4198,2.4486,2.5265,2.5826,2.6028,2.719,2.7482,2.6733,2.7059,2.6843,2.5988,2.5742,2.5321,2.4802,0.0,0.0,0.0,0.0,0.0,0.0,0.0,2.2498,2.2189,2.2189,0.0,2.3141,2.3141,2.3141,2.3117,2.2823,2.2493,2.2157,2.1801,2.149,0.0,0.0,2.0675,2.0546,0.0,1.9629,1.929,0.0,0.0,0.0,1.8198,0.0,0.0,0.0,1.7671,1.7451,1.8323,1.8216,1.8256,1.9132,1.9332,1.9731,2.088,2.1449,2.276,2.5638,2.5611,2.5441,2.5799,2.3964,2.2623,2.2551,2.3487,2.4853,2.6647,2.7803,2.838,2.8287,2.774,2.6868,2.5701,2.5557,2.5405,2.5209,2.5778,2.634,2.6918,2.7428,2.7971,2.8505,2.9082,2.9343,2.9371,2.9832,3.0485,3.1196,3.1057,3.0634,3.0118,3.0375,3.0037,2.9393,2.9679,2.9814,2.9814,0.0,0.0,0.0,0.0,0.0,0.0,0.0,0.0,2.1939,2.2059,2.2657,0.0,0.0,0.0,0.0,0.0,0.0,2.4806,0.0,0.0,0.0,2.6744,2.8051,2.8121,2.6729,2.7291,2.7118,2.6122,2.6033,2.5788,2.535,2.5254,0.0,0.0,0.0,0.0,0.0,0.0,0.0,2.2703,0.0,2.2882,2.2942,2.34,2.361,2.3525,2.3057,2.2543,2.2146,2.2694,0.0,2.1779,2.1794,2.1726,0.0,0.0,0.0,0.0,0.0,0.0,0.0,0.0,0.0,1.8143,0.0,0.0,0.0,1.8853,1.8645,1.8456,1.9109,1.9137,1.9357,2.0318,2.1257,2.2219,2.317,2.3122,2.2963,2.2925,2.1986,2.1109,2.045,2.1789,2.4242,2.7867,2.8126,2.8376,2.8968,2.7967,2.6967,2.6078,2.5463,2.5029,2.4847,2.5258,2.5745,2.6315,2.6893,2.7478,2.8122,2.8656,2.8947,2.9139,3.0347,3.1013,3.1304,3.1464,3.106,3.0352,3.0704,2.999,2.8806,2.9292,2.9528,2.9603,1.9703,2.0168,0.0,0.0,2.164,0.0,0.0,0.0,2.2787,2.331,2.3958,0.0,0.0,0.0,0.0,0.0,0.0,0.0,2.7198,0.0,0.0,0.0,2.7352,0.0,2.6733,2.6763,2.6776,2.6624,2.6188,2.5961,2.5897,2.5421,0.0,0.0,2.4611,0.0,0.0,0.0,2.3207,0.0,2.3286,2.3495,0.0,2.358,2.361,2.358,2.3525,2.3465,2.3404,0.0,2.3108,2.2482,0.0,2.2367,2.2089,0.0,0.0,0.0,0.0,0.0,0.0,0.0,1.9667,0.0,0.0,0.0,1.8826,1.892,0.0,1.8988,1.9522,0.0,0.0,2.0228,2.0768,2.1303,2.1766,2.1826,2.1718,2.1541,2.0689,1.9854,1.9255,2.1377,2.422,2.767,2.7681,2.7732,2.8279,2.7676,2.6795,2.5635,2.5341,2.5152,2.5067,2.4949,2.5168,2.572,2.6323,2.711,2.8122,2.8656,2.9183,2.9677,2.9642,3.0351,3.1536,3.133,3.0761,3.0014,2.973,2.9022,2.8188,2.8273,2.859,2.8922,2.0408,2.0198,0.0,0.0,2.1485,2.2159,2.2248,2.3161,2.3898,2.4137,2.476,0.0,0.0,0.0,0.0,0.0,0.0,2.5806,0.0,0.0,0.0,0.0,0.0,0.0,0.0,2.7355,2.7127,2.67,2.6513,2.6422,2.6414,2.6184,0.0,0.0,2.4899,0.0,2.3736,0.0,2.3465,0.0,0.0,0.0,0.0,2.361,2.361,2.361,2.361,2.361,2.3602,0.0,2.3387,0.0,0.0,0.0,0.0,0.0,0.0,0.0,0.0,0.0,0.0,0.0,0.0,0.0,2.0522,0.0,2.0189,0.0,0.0,0.0,0.0,0.0,0.0,0.0,2.1079,2.1487,2.1952,2.1775,2.1378,2.0738,2.0103,1.9841,2.0131,2.2002,2.4335,2.7007,2.7588,2.7832,2.7866,2.7727,2.6665,2.4471,2.4621,2.4335,2.3471,2.4059,2.4448,2.4682,2.5552,2.6197,2.6691,2.757,2.8106,2.8424,2.968,3.0554,3.1135,3.1166,3.0738,2.9886,2.8821,2.8092,2.767,2.7996,2.8238,2.8405,0.0,0.0,0.0,0.0,0.0,0.0,0.0,0.0,0.0,0.0,0.0,0.0,2.7728,2.7878,0.0,0.0,0.0,2.7297,0.0,0.0,2.7651,0.0,0.0,0.0,0.0,0.0,2.7422,2.67,2.6577,2.6577,2.67,2.6573,2.5993,0.0,0.0,2.4596,2.3598,0.0,0.0,2.361,2.361,2.361,2.361,2.361,2.361,2.361,2.361,2.361,2.364,2.3814,2.3651,0.0,2.3631,0.0,0.0,0.0,0.0,0.0,2.238,0.0,0.0,0.0,0.0,0.0,0.0,0.0,0.0,0.0,0.0,0.0,0.0,0.0,2.0946,2.1229,0.0,2.2007,2.2264,2.2007,2.1393,2.0332,1.9915,2.0054,2.0976,2.2478,2.4195,2.6159,2.6783,2.696,2.6745,2.682,2.5842,2.3634,2.3925,2.3798,2.3149,2.3763,2.416,2.4305,2.5078,2.5523,2.5619,2.6448,2.701,2.74,2.9187,2.9943,2.9955,3.0261,2.9821,2.8837,2.7847,2.7204,2.6909,2.7453,2.7745,2.7871,2.3186,2.3705,0.0,0.0,0.0,0.0,0.0,0.0,0.0,0.0,0.0,0.0,0.0,0.0,0.0,0.0,0.0,2.9056,3.0276,0.0,2.7587,0.0,0.0,2.8235,0.0,0.0,0.0,2.67,2.6228,2.6241,2.6687,2.6257,2.6001,0.0,0.0,2.4879,2.4328,2.3826,2.361,2.361,2.361,2.361,2.361,0.0,2.361,2.361,2.361,0.0,0.0,2.4341,2.4054,2.3502,0.0,0.0,0.0,0.0,0.0,0.0,0.0,0.0,0.0,2.3125,0.0,0.0,0.0,0.0,2.2458,0.0,0.0,0.0,2.1789,2.2022,2.2239,2.1996,2.235,0.0,0.0,2.2306,2.1775,2.0365,2.0083,0.0,2.1218,2.2406,2.3745,2.5222,2.4785,2.4465,2.4601,2.4347,2.4003,2.3509,2.3453,2.4043,2.5287,2.4617,2.4544,2.506,2.5112,2.5298,2.5594,2.5644,2.6247,2.7314,2.764,2.7797,2.7819,2.8146,2.7479,2.6285,2.6736,2.6401,2.572,2.6315,2.6876,2.7261,0.0,0.0,0.0,0.0,0.0,0.0,0.0,2.5639,0.0,0.0,0.0,0.0,0.0,0.0,3.1525,0.0,0.0,3.0501,3.0485,2.9647,0.0,0.0,0.0,2.8624,0.0,0.0,0.0,2.67,0.0,2.6551,2.6695,2.6543,0.0,0.0,0.0,2.491,0.0,0.0,0.0,0.0,0.0,2.3874,2.4221,0.0,2.361,2.361,2.361,2.361,2.364,2.3868,2.4014,2.4079,2.3814,2.3821,2.3879,2.3879,2.4102,2.4402,2.4908,0.0,2.588,2.4819,0.0,0.0,0.0,0.0,0.0,0.0,0.0,0.0,0.0,0.0,2.2096,2.2007,2.2234,2.2406,0.0,2.2032,2.1783,0.0,0.0,0.0,0.0,2.3099,2.398,2.4728,2.4846,2.4521,2.368,2.4127,2.3789,2.2355,2.3506,2.414,2.4203,2.4744,2.4854,2.4581,2.492,2.4889,2.4556,2.49,2.5276,2.5703,2.673,2.7164,2.7188,2.7295,2.7069,2.6593,2.62,2.5859,2.567,2.6273,2.66,2.6742,2.3462,0.0,0.0,0.0,0.0,0.0,0.0,0.0,0.0,0.0,3.014,0.0,3.2333,0.0,3.2938,0.0,3.2602,3.1734,3.0582,3.0088,0.0,2.8504,2.8795,0.0,0.0,0.0,0.0,0.0,0.0,2.6263,2.6461,0.0,0.0,0.0,0.0,2.5091,2.4379,0.0,2.3768,0.0,0.0,2.3874,0.0,0.0,2.3759,2.3928,0.0,2.361,2.361,2.361,2.3994,2.4412,2.395,2.4223,2.4695,2.4695,2.4887,2.5203,2.5674,2.6336,2.673,2.6052,2.5922,0.0,2.4808,0.0,2.4586,0.0,0.0,0.0,0.0,0.0,0.0,2.2799,2.3175,2.3297,0.0,2.2445,0.0,0.0,0.0,0.0,0.0,0.0,2.4155,2.4386,2.4444,0.0,2.2815,2.3341,2.3062,2.1722,2.2846,2.3725,2.4267,2.48,2.5067,2.5084,2.5165,2.483,2.4124,2.4171,2.4307,2.458,2.5466,2.5875,2.5875,2.5875,2.591,2.5929,2.5558,2.5539,2.5779,2.6299,2.6508,2.6508,0.0,0.0,0.0,0.0,2.4363,0.0,0.0,0.0,2.9847,0.0,3.1189,3.1877,3.2572,3.3215,3.3851,3.4496,3.3979,0.0,3.0791,3.0612,0.0,0.0,2.7917,2.7887,2.6492,2.6377,0.0,0.0,0.0,0.0,0.0,0.0,0.0,0.0,2.5974,0.0,2.444,2.4384,2.4084,2.361,2.361,2.361,2.364,2.361,2.4023,2.4509,2.3844,2.361,2.361,2.361,2.4023,2.4542,2.4499,2.4951,2.546,2.546,2.5953,2.6496,2.6529,2.7081,2.7435,2.6824,2.6608,2.6279,0.0,0.0,2.525,0.0,0.0,0.0,0.0,0.0,0.0,2.4203,2.4901,2.5063,2.365,0.0,0.0,0.0,0.0,0.0,0.0,0.0,0.0,2.4192,2.3577,0.0,0.0,2.1946,2.1864,2.1603,2.1684,2.2912,2.5484,2.4879,2.5182,2.6454,2.5707,2.4966,2.4224,2.3444,2.3404,2.3954,2.3979,2.4004,2.4004,2.4051,2.4164,2.4385,2.4939,2.5489,2.5981,2.6366,2.6508,2.6508,2.3805,2.4725,2.5205,0.0,2.4945,2.6171,0.0,0.0,0.0,0.0,3.2886,3.3417,3.4614,3.4883,3.507,3.522,3.51,0.0,0.0,0.0,0.0,2.9564,2.933,2.8593,2.7155,2.7078,0.0,2.5802,0.0,0.0,2.653,0.0,0.0,0.0,0.0,0.0,2.495,2.4132,2.3719,2.361,2.361,2.3903,2.4281,0.0,2.4023,2.4509,2.3844,2.361,2.361,2.361,2.4365,2.523,2.4681,2.5293,2.6216,2.6216,2.6343,2.6608,2.7178,2.7452,2.7555,2.7375,2.698,2.6518,2.6159,2.5818,0.0,0.0,0.0,0.0,0.0,0.0,0.0,0.0,0.0,0.0,0.0,0.0,0.0,2.4427,0.0,0.0,0.0,0.0,2.4192,2.4192,2.3577,2.2834,2.1938,2.1946,2.1909,2.1692,2.2582,2.3887,2.5562,2.54,2.5483,2.5757,2.5008,2.4279,2.3552,2.3254,2.317,2.3354,2.3803,2.4004,2.4051,2.4586,2.4846,2.4954,2.5647,2.6149,2.65,2.6485,2.6508,2.6508,2.4037,0.0,0.0,2.6315,0.0,0.0,2.8846,0.0,0.0,3.3275,3.3769,0.0,3.4989,3.531,3.5511,3.5511,3.522,0.0,3.3155,0.0,0.0,3.0545,2.9593,2.8613,2.7521,2.6813,0.0,2.5794,0.0,0.0,2.6874,0.0,0.0,0.0,0.0,2.5416,2.5134,2.4074,2.3759,2.4018,2.3724,2.3819,0.0,2.3754,2.3844,2.4102,2.3729,2.361,2.361,2.361,2.4502,2.5544,2.5099,2.591,2.699,2.699,2.699,2.714,2.7829,2.7818,2.7681,2.7961,2.7542,2.695,2.6674,2.6087,2.5519,2.5208,2.464,2.4239,2.446,0.0,0.0,0.0,0.0,0.0,0.0,0.0,0.0,0.0,2.4733,0.0,0.0,0.0,2.4564,2.4229,2.3577,2.2834,2.1938,2.1946,2.1923,2.1704,2.2359,2.3374,2.4758,2.4747,2.486,2.5139,2.4644,2.4191,2.3761,2.3299,2.3088,2.312,2.3454,2.362,2.365,2.4041,2.4432,2.4892,2.614,2.6948,2.7413,2.755,2.7129,2.6508,0.0,0.0,0.0,0.0,0.0,0.0,0.0,3.1629,0.0,3.3784,0.0,3.4765,3.4765,3.519,3.5511,3.5511,0.0,3.3979,3.2691,3.2542,3.1884,3.0545,2.9355,2.8344,2.7495,2.6205,0.0,0.0,0.0,0.0,2.7349,2.7013,0.0,0.0,0.0,0.0,0.0,2.4037,2.3933,2.4425,2.3844,2.361,2.361,2.361,2.361,2.361,2.361,2.361,2.361,2.3699,2.4562,2.5609,2.5698,2.6584,2.7591,2.7591,2.7591,2.7741,2.8314,2.8051,2.7735,2.8314,2.8021,2.7435,2.6854,2.6153,2.5477,2.506,2.4283,2.3904,2.4518,0.0,0.0,0.0,0.0,0.0,0.0,0.0,0.0,0.0,0.0,0.0,2.4388,2.4897,2.4934,2.4266,2.3612,2.2899,2.2051,2.1975,2.1796,2.1549,2.1488,2.2196,2.371,2.3556,2.3928,2.4809,2.4373,2.4199,2.4249,2.3374,2.3037,2.3088,2.3088,2.3088,2.3103,2.3208,2.3769,2.4774,2.6634,2.7717,2.8233,2.8716,2.7921,2.6587,0.0,0.0,0.0,0.0,0.0,3.2804,3.2804,3.359,3.4578,3.5797,3.6074,3.6164,3.6164,3.5759,3.5511,3.5511,3.4907,0.0,0.0,0.0,0.0,3.0545,2.9811,2.859,2.6824,2.6413,2.6206,0.0,0.0,0.0,2.865,2.7932,0.0,0.0,0.0,0.0,2.4506,2.3874,0.0,2.3754,2.364,2.361,2.361,2.361,2.361,2.361,2.361,2.361,2.3694,2.4251,2.4939,2.5698,2.6249,2.698,2.7591,2.7591,2.7591,2.7621,2.7735,2.7675,2.7615,2.7735,2.7675,2.7555,2.7435,2.6494,2.5863,2.6734,2.5513,2.4601,2.5665,2.5869,0.0,0.0,0.0,0.0,0.0,0.0,0.0,0.0,0.0,2.5696,0.0,0.0,2.4341,2.4192,2.3832,2.3275,2.2521,2.1899,2.1317,2.0724,2.0802,2.1801,2.3751,2.3172,2.3722,2.5414,2.3708,2.3153,2.3545,2.2799,2.2676,2.3088,2.3088,2.3088,2.3148,2.3831,2.4901,2.6275,2.778,2.7996,2.7537,2.819,2.7767,2.6997,0.0,0.0,0.0,0.0,0.0,0.0,0.0,3.5326,3.5655,3.5938,3.5968,3.5857,3.5506,3.5489,3.5511,3.5511,3.4907,3.4226,3.3544,3.2878,3.2063,3.1069,3.011,0.0,2.7159,2.7293,2.7211,2.6879,0.0,0.0,2.9537,2.8789,0.0,2.7734,0.0,2.5756,0.0,0.0,2.4235,2.4466,2.3848,2.361,2.361,2.361,2.361,2.361,2.361,2.361,2.364,2.3958,2.4765,2.5663,2.5974,2.6764,2.7591,2.7591,2.7591,2.7675,2.8021,2.7848,2.7757,2.8428,2.8326,2.8143,2.8444,2.7775,2.7223,2.7788,2.6877,2.622,2.7093,2.7066,2.7009,0.0,0.0,0.0,0.0,0.0,0.0,0.0,0.0,0.0,0.0,0.0,0.0,0.0,0.0,2.3391,2.2655,2.2432,2.1903,2.094,2.1623,2.2216,2.2716,2.2982,2.3438,2.41,2.3396,2.3391,2.3931,2.3179,2.3151,2.3706,2.3283,2.3088,2.3155,2.3959,2.495,2.6071,2.748,2.8018,2.8056,2.8738,2.8503,2.7803,0.0,3.061,0.0,0.0,3.3305,0.0,3.6036,3.6515,3.6545,3.6178,3.5878,3.5519,3.4975,3.5258,3.5511,3.5511,3.4907,3.4226,3.3544,3.2878,3.2153,3.1331,3.0193,2.9022,2.7822,2.8121,2.8137,0.0,0.0,0.0,3.0306,2.9576,2.8721,0.0,0.0,0.0,2.6318,2.5304,2.5138,2.5523,2.4288,2.3814,2.3814,2.364,2.361,2.361,2.361,2.3699,2.3814,2.3814,2.4621,2.5639,2.5944,2.6764,2.7591,2.7591,2.7591,2.7711,2.8224,2.7998,2.7862,2.9009,2.8896,2.8665,2.9259,2.8874,2.8431,2.8549,2.814,2.7875,2.8295,2.8071,2.7786,0.0,0.0,0.0,0.0,0.0,0.0,0.0,0.0,0.0,2.4226,0.0,0.0,0.0,0.0,2.3555,2.299,2.3134,2.2696,2.1543,2.251,2.2689,2.1969,2.2885,2.3264,2.3118,2.3264,2.3751,2.4478,2.3715,2.3703,2.4276,2.3761,2.3429,2.3346,2.4303,2.4981,2.5536,2.6969,2.796,2.8637,2.9039,2.9009,2.8651,0.0,0.0,0.0,0.0,0.0,0.0,3.5571,3.6558,3.7524,3.8071,3.7114,3.6374,3.6314,3.5818,3.5511,3.5511,3.4907,3.4226,3.3544,3.2878,3.1944,3.0635,2.996,2.9225,2.8428,2.833,2.8575,0.0,0.0,3.0374,3.1094,3.034,2.9219,2.7802,2.794,2.7632,2.6967,2.6504,2.634,2.628,2.5024,2.4509,2.4449,2.3844,2.361,2.361,2.361,2.3988,2.4509,2.4509,2.4993,2.5818,2.7039,2.7495,2.7591,2.7591,2.7591,2.7615,2.7675,2.7651,2.7772,2.8436,2.8555,2.8665,2.9259,2.8874,2.8538,2.9031,2.8986,2.8866,2.8903,2.8317,2.7786,2.7786,0.0,0.0,0.0,0.0,0.0,0.0,0.0,0.0,0.0,2.3059,0.0,0.0,2.3998,0.0,2.4153,2.3835,2.3201,2.2229,2.244,2.2643,2.2782,2.2768,2.3338,2.4425,2.3297,2.3379,2.4468,2.3856,2.3825,2.4332,2.4715,2.4532,2.402,2.5429,2.5795,2.5557,2.7007,2.7993,2.8517,2.8004,2.8513,2.9318,0.0,0.0,0.0,0.0,0.0,0.0,0.0,3.6178,3.6507,3.7174,3.6814,3.6335,3.5938,3.5669,3.5511,3.5511,3.4907,3.4376,3.4136,3.3095,3.2273,3.1704,3.0702,2.982,2.9125,2.9402,2.9458,0.0,0.0,0.0,0.0,3.0886,3.0205,2.9171,2.8845,2.8531,2.8189,2.7331,2.6746,2.6293,2.5067,2.4371,2.3958,2.3699,2.361,2.361,2.361,2.3784,2.4107,2.4939,2.5639,2.6303,2.683,2.7285,2.7591,2.7591,2.7591,2.7591,2.7591,2.7315,2.7218,2.8138,2.841,2.8689,2.9604,2.9967,3.0153,3.0344,3.035,3.032,3.032,2.9334,2.8522,2.8522,0.0,0.0,0.0,0.0,0.0,0.0,0.0,0.0,0.0,2.3369,0.0,0.0,0.0,0.0,2.3652,2.3477,2.3012,2.2165,2.2898,2.3157,2.2786,2.3489,2.4105,2.4593,2.407,2.4516,2.5736,2.5041,2.4583,2.4339,2.4916,2.472,2.4078,2.5236,2.5777,2.6,2.714,2.8028,2.8577,2.8284,2.88,2.9457,3.3769,0.0,3.4009,0.0,3.4787,3.5108,3.6066,3.5789,3.5661,3.6148,3.6216,3.6036,3.5541,3.5511,3.5511,3.5511,3.5078,3.4697,3.4496,3.3432,3.2699,3.2512,3.1233,0.0,3.0367,3.0377,3.0344,3.0194,3.0869,0.0,0.0,3.1195,3.0818,3.0065,2.9576,2.9305,2.925,2.8272,2.7594,2.712,2.5927,2.494,2.4178,2.3963,2.3759,2.361,2.361,2.3729,2.4083,2.5214,2.6063,2.6638,2.6824,2.7219,2.7591,2.7591,2.7591,2.7591,2.7591,2.7255,2.7164,2.8318,2.8655,2.8989,3.0146,3.0818,3.1151,3.0958,3.0918,3.0764,3.0438,2.9336,2.8387,2.8214,2.7352,0.0,0.0,2.6311,0.0,0.0,2.4966,2.4116,2.3082,2.3324,0.0,0.0,0.0,0.0,2.3717,2.3594,2.3215,2.2655,2.3747,2.4072,2.3531,2.4406,2.4921,2.5088,2.5088,2.5623,2.653,2.6006,2.5581,2.5193,2.5168,2.5078,2.4984,2.5431,2.6,2.668,2.7542,2.8291,2.8876,2.8876,2.9415,2.9993,3.4376,3.4496,3.4697,3.537,3.5481,3.5481,3.5511,3.5519,3.5511,3.5511,3.5511,3.5511,3.5511,3.5511,3.5511,3.5511,3.5481,3.522,3.4555,3.3851,3.3185,0.0,0.0,3.1121,3.243,3.1106,3.1,3.2249,0.0,0.0,3.1195,3.1195,3.0818,3.0098,3.0098,3.0098,3.0036,2.9443,2.9246,2.9254,2.7987,2.6717,2.5513,2.4844,2.4192,2.361,2.361,2.4023,2.4689,2.5358,2.6063,2.6704,2.7375,2.7591,2.7591,2.7591,2.7591,2.7591,2.7591,2.7585,2.7873,2.91,2.9401,2.9717,3.0918,3.1195,3.1013,3.0435,3.0214,2.9766,2.8645,2.7715,2.6962,2.643,2.5726,0.0,0.0,2.4654,0.0,2.414,2.3546,2.2819,2.2085,2.239,0.0,0.0,0.0,0.0,2.4953,2.4482,2.4145,2.4067,2.4915,2.5407,2.5481,2.5427,2.5696,2.6273,2.6273,2.6324,2.6405,2.6447,2.6766,2.7189,2.5738,2.5888,2.7122,2.6464,2.6694,2.7556,2.8314,2.9003,2.9585,2.9585,3.0395,3.1156,3.513,3.5198,3.5258,3.5451,3.5511,3.5511,3.5511,3.5511,3.5511,3.5511,3.5511,3.5511,3.5511,3.5511,3.5511,0.0,3.5511,3.5228,0.0,3.3881,3.3215,3.2512,3.1637,3.1596,3.2474,3.1567,3.1493,3.2293,0.0,3.1195,3.12,3.0683,3.0306,3.0065,2.9567,2.9339,2.9307,2.8703,2.8214,2.7738,2.6534,2.5828,2.5357,2.4316,2.4077,2.4221,2.3754,2.3729,2.4083,2.5214,2.5453,2.5493,2.6979,2.7806,2.8204,2.8204,2.8204,2.8107,2.771,2.7255,2.7194,2.8349,2.8665,2.9027,3.0175,3.0504,3.0419,2.9805,2.9664,2.9513,2.9164,2.8056,2.7189,2.7021,2.5975,2.5051,2.4589,0.0,2.3285,2.2785,2.2091,2.1595,2.133,2.1416,0.0,0.0,0.0,0.0,2.3407,2.3923,2.4141,2.396,2.5263,2.6026,2.6165,2.7024,2.7291,2.6995,2.7485,2.7528,2.7178,2.8131,2.7652,2.6091,2.6544,2.665,2.6515,2.6434,2.6785,2.7387,2.7767,2.8321,2.8913,2.8913,2.9707,3.0563,3.5511,3.5511,3.5511,3.5511,3.5511,3.5511,3.5511,3.5511,3.5511,3.5511,3.5511,3.5511,3.5511,3.528,3.5228,3.5481,3.528,3.4967,3.4526,3.3642,3.2938,3.2519,3.1869,3.1831,3.253,3.2049,3.1978,3.2345,3.1559,3.106,3.0784,3.0306,2.9963,2.9634,2.8895,2.873,2.8953,2.8271,2.7684,2.7109,2.6408,2.5698,2.5008,2.4269,2.4077,2.4162,2.3754,2.3754,2.4137,2.5214,2.5328,2.5252,2.693,2.7918,2.8469,2.8434,2.8453,2.8415,2.8057,2.7465,2.7255,2.8418,2.8729,2.9033,2.995,3.0255,3.0053,2.9231,2.9008,2.8782,2.8101,2.7211,2.6441,2.5973,2.4966,2.4095,2.3708,0.0,2.2498,0.0,0.0,2.1552,2.128,2.1644,2.1845,0.0,0.0,2.2949,2.2454,2.3588,2.4159,2.4025,2.5743,2.6978,2.7551,2.8302,2.8591,2.8345,2.8586,2.8667,2.8573,2.8937,2.8216,2.6658,2.6972,2.7107,2.71,2.6933,2.7249,2.7825,2.8198,2.844,2.8637,2.8876,2.9282,2.9531,3.5511,3.5511,3.5511,3.5511,3.5511,3.5511,3.5511,3.5511,3.5511,3.5511,3.5511,3.5511,3.5511,3.4929,3.4787,3.537,3.4817,3.4406,3.4376,3.3185,3.2482,3.2415,3.1839,3.1874,3.2632,3.2557,3.2452,3.2379,3.1559,3.0784,3.0098,2.9997,2.9562,2.887,2.8069,2.8141,2.8802,2.8035,2.7533,2.7243,2.7171,2.616,2.4711,2.4573,2.4162,2.3664,2.361,2.3988,2.4629,2.5298,2.5513,2.569,2.6963,2.7812,2.833,2.8313,2.8437,2.8553,2.8511,2.807,2.7903,2.91,2.9462,2.9651,3.0112,3.0251,2.9892,2.8701,2.8312,2.7683,2.5975,2.5435,2.4904,2.3786,2.3052,2.2613,2.2558,2.2064,2.1909,2.2493,2.2643,2.2433,2.1764,2.2665,2.2504,2.0649,0.0,2.4177,2.2259,2.3629,2.4433,2.4351,2.6429,2.8132,2.9349,2.9349,2.9628,3.0161,2.9551,2.9593,3.0179,2.9083,2.851,2.8366,2.7119,2.7329,2.8471,2.7775,2.7919,2.8577,2.9219,2.9069,2.8607,2.9219,2.8964,2.8174,3.5511,3.5511,3.5511,3.5511,3.5511,3.5511,3.5511,3.5511,3.5511,3.5511,3.5511,3.5511,3.5511,3.537,3.5138,3.4757,3.4121,3.3514,3.2998,3.2669,3.2265,3.175,3.1593,3.2083,3.3339,3.28,3.2453,3.2308,3.102,3.0272,3.006,2.891,2.8263,2.8035,2.7296,2.7067,2.7241,2.7029,2.6897,2.6796,2.6024,2.5754,2.5676,2.435,2.4048,2.4306,2.3784,2.3699,2.3933,2.461,2.4496,2.4283,2.5521,2.6698,2.7725,2.8228,2.8753,2.9083,2.863,2.807,2.7903,2.91,3.008,3.0565,2.9788,2.9612,2.9276,2.8052,2.7376,2.6873,2.6453,2.5064,2.3916,2.3637,2.2652,2.1759,2.1241,2.1485,2.1575,2.1216,2.2069,2.2433,2.1764,2.2405,2.2773,2.2606,0.0,2.3896,2.3752,2.5213,2.5958,2.5716,2.7333,2.8785,3.0056,3.0505,3.0802,3.092,3.0215,2.9765,2.9516,2.9283,2.8667,2.7725,2.7463,2.7522,2.7805,2.7652,2.7678,2.7848,2.8004,2.7974,2.7854,2.7998,2.7633,2.6985,3.5511,3.5511,3.5511,3.5511,3.5511,3.5511,3.5511,3.5511,3.5511,3.5511,3.5511,3.5511,3.5511,3.4951,3.445,3.4069,3.3702,3.3215,3.2542,3.2206,3.1877,3.1511,3.1503,3.2013,3.311,3.2724,3.2432,3.2293,3.1161,3.0243,2.9571,2.875,2.7972,2.7291,2.6864,2.67,2.67,2.67,2.6585,2.6298,2.5519,2.526,2.5246,2.4038,2.3819,2.4107,2.3724,2.3814,2.4102,2.4485,2.4371,2.4157,2.4821,2.6113,2.7456,2.7826,2.8623,2.9327,2.8991,2.8475,2.8307,2.9518,3.0524,3.0906,2.9671,2.9401,2.906,2.786,2.7315,2.678,2.5886,2.5052,2.4203,2.3343,2.2604,2.2034,2.167,2.1944,2.2119,2.2049,2.2951,2.343,2.306,2.364,2.3873,2.3467,2.4387,2.48,2.4454,2.6097,2.6963,2.6767,2.8458,2.9794,3.0716,3.136,3.1713,3.1713,3.1302,3.0961,3.0667,3.0058,2.9277,2.8375,2.8129,2.786,2.7615,2.7938,2.7878,2.7615,2.7938,2.7884,2.7591,2.7591,2.6762,2.5645,3.5511,3.5511,3.5511,3.5511,3.5511,3.5511,3.5511,3.5511,3.5511,3.5511,3.5511,3.5451,3.537,3.4322,3.3582,3.3372,3.3335,3.3058,3.2392,3.1817,3.1503,3.1503,3.1484,3.1887,3.2727,3.2685,3.2597,3.2457,3.15,3.0383,2.9174,2.8937,2.8121,2.6864,2.6763,2.67,2.67,2.67,2.6483,2.605,2.5524,2.5057,2.4587,2.4058,2.3789,2.3714,2.3714,2.4034,2.4455,2.4455,2.4515,2.4599,2.4599,2.5899,2.7444,2.7529,2.8365,2.9299,2.9485,2.9183,2.9028,3.0069,3.0822,3.0977,2.9709,2.9413,2.907,2.7835,2.7419,2.6808,2.5274,2.5058,2.4668,2.3223,2.2727,2.2583,2.2678,2.2793,2.3057,2.367,2.4526,2.5059,2.5059,2.5663,2.5579,2.4448,2.595,2.6452,2.5418,2.6973,2.7929,2.8014,2.9624,3.0832,3.1524,3.2148,3.2429,3.2293,3.2293,3.218,3.1953,3.0715,2.9832,2.9231,2.8636,2.8058,2.7645,2.8201,2.8111,2.7651,2.8231,2.8111,2.7591,2.7591,2.6349,2.4734,3.5511,3.5511,3.5511,3.5511,3.5511,3.5511,3.5511,3.5511,3.5511,3.5511,3.5511,3.528,3.4727,3.4466,3.3889,3.2759,3.2669,3.2355,3.169,3.1563,3.1503,3.1503,3.1435,3.2064,3.343,3.3325,3.3266,3.322,3.1253,3.0137,2.9895,2.8606,2.7862,2.7591,2.6996,2.67,2.67,2.67,2.6657,2.6556,2.6068,2.5829,2.5672,2.5163,2.4677,2.4271,2.4271,2.4051,2.3759,2.3759,2.4132,2.4599,2.4599,2.5921,2.7589,2.8173,2.8467,2.8845,2.9881,3.0148,3.0155,3.0403,3.093,3.1065,2.976,2.947,2.9119,2.7862,2.6642,2.5937,2.6245,2.4493,2.3264,2.4152,2.2918,2.2064,2.2613,2.3141,2.3699,2.4365,2.6039,2.7129,2.7129,2.7745,2.8038,2.7829,2.8098,2.8464,2.8793,2.9136,2.9777,3.082,3.0622,3.1334,3.3035,3.3181,3.2921,3.2293,3.2293,3.1716,3.0595,2.9881,2.9208,2.8612,2.8014,2.7685,2.7615,2.7705,2.7675,2.7615,2.7705,2.7675,2.7591,2.7591,2.6678,2.5513,3.5511,3.5511,3.5511,3.5511,3.5511,3.5511,3.5511,3.5511,3.5511,3.5511,3.519,3.4839,3.4526,3.3859,3.3185,3.2542,3.2176,3.1847,3.1533,3.1503,3.1503,3.1503,3.148,3.1755,3.2403,3.3067,3.3012,3.2205,3.119,3.0475,3.0065,2.8958,2.8205,2.7752,2.7029,2.67,2.67,2.67,2.67,2.6662,2.6179,2.5988,2.5938,2.5397,2.5057,2.4836,2.4836,2.4677,2.4415,2.4122,2.4479,2.4976,2.47,2.5944,2.7622,2.8294,2.9014,2.9632,2.9817,3.0152,3.0549,3.0892,3.0955,3.0748,3.0179,2.9744,2.9209,2.8187,2.7236,2.6438,2.6043,2.4946,2.4356,2.5026,2.4074,2.3634,2.4674,2.4723,2.5076,2.6093,2.7363,2.8291,2.8627,2.8949,2.9129,2.9129,2.9129,2.9279,2.9578,2.9615,3.0175,3.1474,3.1858,3.2684,3.3993,3.3587,3.322,3.2882,3.2163,3.1488,3.0875,2.9851,2.906,2.8481,2.8198,2.791,2.7591,2.7591,2.7591,2.7591,2.7591,2.7591,2.7591,2.7591,2.6748,2.5702,3.5511,3.5511,3.5511,3.5511,3.5511,3.5511,3.5511,3.5511,3.5451,3.528,3.4817,3.4368,3.4069,3.3125,3.2452,3.2273,3.1809,3.1503,3.1503,3.1503,3.1503,3.1503,3.1653,3.1722,3.1614,3.2496,3.2452,3.1471,3.1139,3.0769,3.034,2.9605,2.8924,2.8293,2.7363,2.6966,2.6924,2.6763,2.6797,2.6902,2.6393,2.6285,2.634,2.577,2.5482,2.5388,2.5388,2.5408,2.5404,2.4994,2.5305,2.583,2.5604,2.6528,2.7901,2.8732,2.9812,3.0606,3.009,3.0306,3.0813,3.1309,3.1093,3.0696,3.0549,3.0089,2.9511,2.8653,2.8033,2.735,2.6441,2.6039,2.6008,2.6468,2.5845,2.5698,2.6907,2.6632,2.6728,2.7914,2.865,2.9295,2.999,3.0043,3.0043,3.0043,3.0043,3.0043,3.0043,3.0043,3.0553,3.1706,3.2813,3.3655,3.424,3.3694,3.3253,3.2929,3.1883,3.1172,3.0684,2.9674,2.8851,2.8283,2.8283,2.8094,2.7798,2.7654,2.7673,2.7798,2.7641,2.7679,2.781,2.781,2.725,2.6529,3.5511,3.5511,3.5511,3.5511,3.5511,3.5511,3.5511,3.5511,3.528,3.4637,3.4526,3.4039,3.2781,3.2572,3.2235,3.163,3.154,3.1503,3.1503,3.1503,3.1503,3.1503,3.2139,3.2453,3.2319,3.1872,3.1842,3.2226,3.097,3.0637,3.1089,3.0374,3.0002,2.9862,2.8369,2.7718,2.7689,2.6996,2.7093,2.765,2.6928,2.7046,2.7602,2.6872,2.6306,2.5938,2.5938,2.6068,2.6219,2.6179,2.6698,2.7455,2.8024,2.835,2.8769,2.9992,3.0848,3.1395,3.1282,3.1292,3.1371,3.1466,3.1476,3.126,3.0652,3.0449,3.0147,2.9225,2.8478,2.8135,2.8721,2.7786,2.7418,2.9041,2.8205,2.7638,2.8344,2.8397,2.8643,2.9375,2.999,3.0628,3.1301,3.1361,3.1361,3.1361,3.1361,3.1361,3.1361,3.1361,3.1691,3.2404,3.3045,3.3418,3.3485,3.3418,3.277,3.1538,3.1462,3.0474,2.871,2.862,2.8228,2.766,2.766,2.7971,2.8385,2.7835,2.794,2.8373,2.7823,2.7953,2.8427,2.8427,2.8715,2.9033,3.5511,3.5168,3.5019,3.5429,3.5168,3.4877,3.4877,3.522,3.525,3.4585,3.4128,3.3702,3.3185,3.2392,3.178,3.1533,3.1503,3.1503,3.1503,3.1503,3.1301,3.0897,3.1603,3.1541,3.0636,3.0793,3.0765,3.0484,2.9989,3.0043,3.0626,2.9894,2.9499,2.9373,2.8268,2.7558,2.7097,2.6826,2.6702,2.6734,2.7183,2.7395,2.7405,2.7947,2.8023,2.7845,2.7845,2.7927,2.7874,2.717,2.7386,2.8003,2.7953,2.8249,2.8846,3.0126,3.0979,3.1501,3.1464,3.145,3.1478,3.1478,3.1189,3.0927,3.1062,3.0652,3.0122,2.9629,2.9382,2.9311,2.9509,2.9308,2.9612,3.1135,3.026,2.9781,3.0881,3.0306,3.0036,3.0687,3.0987,3.1212,3.1481,3.1503,3.1503,3.1503,3.1503,3.1503,3.1503,3.1474,3.1754,3.242,3.1803,3.2105,3.3379,3.259,3.1883,3.1402,3.0164,2.8977,2.7801,2.7437,2.7135,2.6932,2.6932,2.7081,2.7291,2.7078,2.7121,2.7334,2.7465,2.7938,2.8615,2.9428,2.9613,2.9436,3.4853,3.4659,3.4578,3.4831,3.4667,3.4496,3.4496,3.4907,3.5019,3.4555,3.4099,3.3732,3.3514,3.2482,3.1809,3.1809,3.1428,3.1271,3.1473,3.1301,3.0987,3.0515,3.0813,3.0522,2.9534,2.9766,2.9744,2.9401,2.9208,2.939,2.9947,2.9453,2.9147,2.8976,2.8416,2.7656,2.6852,2.7036,2.6863,2.6489,2.7283,2.768,2.783,2.8467,2.8834,2.901,2.901,2.9145,2.9237,2.843,2.8537,2.8934,2.8829,2.9102,2.9671,3.0568,3.1129,3.1503,3.1503,3.1503,3.1503,3.1503,3.1152,3.0979,3.166,3.1323,3.0833,3.0845,3.0923,3.0956,3.0866,3.107,3.1581,3.2638,3.2041,3.1772,3.2669,3.2011,3.1525,3.178,3.1809,3.172,3.1533,3.1503,3.1503,3.1503,3.1503,3.1477,3.1464,3.163,3.1766,3.1765,3.1024,3.1124,3.213,3.1227,3.0674,3.0479,2.8892,2.7794,2.7091,2.6454,2.6149,2.6169,2.639,2.662,2.6848,2.6674,2.6947,2.7487,2.7498,2.8132,2.9212,3.0357,3.0454,3.0033,3.3492,3.4039,3.4286,3.3612,3.4039,3.4496,3.4496,3.4496,3.4496,3.4496,3.4496,3.4256,3.3582,3.2878,3.2482,3.2482,3.1293,3.0777,3.1451,3.0867,3.0492,3.0492,2.99,2.956,2.9484,2.889,2.8859,2.9389,2.8807,2.874,2.9174,2.9212,2.9137,2.8996,2.8996,2.8297,2.7132,2.7809,2.7765,2.7284,2.7243,2.802,2.9118,2.8402,2.851,2.901,2.901,2.9504,3.0098,3.0094,3.0242,3.0532,3.1198,3.146,3.1503,3.1503,3.1503,3.1503,3.1503,3.1503,3.1503,3.1503,3.1503,3.1683,3.2362,3.2505,3.2621,3.3029,3.3115,3.3115,3.3115,3.3115,3.3217,3.3465,3.3522,3.3522,3.3522,3.3522,3.3275,3.2602,3.2512,3.2243,3.1563,3.1503,3.1503,3.1503,3.1503,3.1487,3.1422,3.2101,3.1873,3.0447,3.1066,3.0751,2.9401,2.9389,2.9083,2.8481,2.7739,2.7066,2.6449,2.5742,2.5405,2.5439,2.6169,2.6818,2.7338,2.6811,2.7703,2.9243,2.7993,2.8656,3.038,3.1143,3.1321,3.1223,3.3492,3.3275,3.3178,3.3462,3.3275,3.3253,3.3732,3.4188,3.4316,3.3851,3.3791,3.3552,3.2878,3.2206,3.1809,3.1809,3.1421,3.1099,3.0814,2.9767,2.9175,2.9175,2.8996,2.8681,2.8175,2.798,2.7984,2.8143,2.8379,2.8558,2.8709,2.9142,2.9033,2.8498,2.8498,2.7757,2.6497,2.717,2.6898,2.612,2.7903,2.8613,2.8751,2.9846,3.0383,3.0523,3.0523,3.0693,3.0799,3.0382,3.0632,3.1155,3.1445,3.1518,3.16,3.2056,3.2206,3.2206,3.2206,3.2542,3.2669,3.175,3.1839,3.2235,3.2452,3.2731,3.2964,3.3087,3.344,3.3728,3.3728,3.4313,3.4823,3.4903,3.4891,3.4891,3.4891,3.451,3.4128,3.3919,3.3058,3.2422,3.2206,3.178,3.1503,3.1503,3.1503,3.1922,3.2892,3.2666,3.2323,3.1895,3.1142,3.0133,2.8783,2.8783,2.8432,2.772,2.7076,2.6141,2.4957,2.4731,2.4631,2.4638,2.4865,2.5388,2.6041,2.5895,2.6423,2.735,2.7921,2.8705,2.974,3.141,3.1678,3.1277,3.2691,3.2602,3.2542,3.2691,3.2572,3.2639,3.3036,3.3462,3.3672,3.3522,3.3492,3.3335,3.2938,3.2303,3.1899,3.1899,3.1398,3.0717,2.9804,2.9026,2.8607,2.8607,2.8098,2.7745,2.7591,2.7591,2.7717,2.7965,2.8094,2.8225,2.8414,2.8546,2.833,2.7865,2.8174,2.7535,2.6314,2.7019,2.6735,2.5913,2.7466,2.8339,2.8852,2.9977,3.0748,3.1195,3.1195,3.1195,3.1185,3.1132,3.1429,3.186,3.1964,3.1778,3.1623,3.2303,3.2512,3.2572,3.2819,3.3185,3.3313,3.2482,3.2602,3.2968,3.3215,3.3475,3.3716,3.3979,3.433,3.4585,3.4585,3.5092,3.5511,3.5511,3.5511,3.5511,3.5511,3.516,3.4787,3.4526,3.3791,3.3088,3.2542,3.2355,3.2176,3.1906,3.1899,3.213,3.2693,3.2303,3.1962,3.1721,3.0672,2.9609,2.8547,2.7982,2.75,2.7015,2.6094,2.5168,2.4279,2.3959,2.3839,2.3853,2.4149,2.4598,2.5089,2.5313,2.596,2.6838,2.7574,2.8391,2.9349,3.1193,3.1403,3.0925,3.1421,3.1966,3.2213,3.16,3.1996,3.2422,3.2482,3.2512,3.2721,3.3335,3.3395,3.3395,3.3335,3.2789,3.2422,3.2422,3.1203,2.9894,2.8697,2.8547,2.8487,2.8427,2.7297,2.695,2.7495,2.7495,2.7818,2.8415,2.7928,2.7855,2.8244,2.7722,2.7405,2.7279,2.7942,2.7566,2.6486,2.7198,2.708,2.6405,2.6515,2.7609,2.9199,2.9245,3.0074,3.1195,3.1195,3.1195,3.1331,3.2119,3.2442,3.2512,3.2719,3.2273,3.1807,3.2467,3.2669,3.2819,3.3425,3.3642,3.3664,3.3612,3.3642,3.3821,3.4368,3.4555,3.4757,3.5362,3.5511,3.5511,3.5511,3.5511,3.5511,3.5511,3.5511,3.5511,3.5511,3.5511,3.528,3.4667,3.4526,3.4009,3.2789,3.3185,3.3245,3.2639,3.2572,3.2309,3.1724,3.161,3.1314,3.0704,3.0029,2.935,2.8613,2.7206,2.6454,2.637,2.4978,2.425,2.4156,2.3432,2.3088,2.3133,2.3963,2.4373,2.4526,2.5204,2.624,2.7384,2.7321,2.7981,2.9174,3.0523,3.0615,3.0301,3.0717,3.1249,3.166,3.154,3.1623,3.1899,3.2422,3.2512,3.2542,3.2699,3.2729,3.2519,3.1996,3.1809,3.172,3.172,3.0552,2.9452,2.8637,2.8111,2.7578,2.7057,2.7249,2.7195,2.683,2.683,2.7144,2.7798,2.8125,2.8125,2.7753,2.8104,2.7975,2.7504,2.768,2.7303,2.6584,2.7184,2.7029,2.6482,2.7357,2.8333,2.9235,2.9713,3.0451,3.1195,3.1195,3.1195,3.1398,3.2713,3.2818,3.2621,3.3802,3.3678,3.3196,3.3878,3.4069,3.4099,3.4256,3.4659,3.4951,3.4398,3.4689,3.4981,3.4585,3.4899,3.531,3.5459,3.5511,3.5511,3.5511,3.5511,3.5511,3.5511,3.5511,3.5511,3.5511,3.5511,3.5459,3.531,3.4817,3.4376,3.4099,3.3732,3.3432,3.3305,3.3275,3.3456,3.3828,3.3314,3.2777,3.2161,3.1493,3.0332,2.8613,2.7145,2.6169,2.5639,2.4731,2.3959,2.335,2.317,2.3088,2.3133,2.3963,2.4636,2.5266,2.6467,2.7404,2.8126,2.8582,2.8862,2.9044,2.9348,2.974,3.008,3.0425,3.0777,3.1129,3.1444,3.1503,3.163,3.1959,3.2026,3.2026,3.2026,3.2026,3.1906,3.154,3.1503,3.1249,3.0658,2.999,2.9195,2.8207,2.7788,2.7435,2.7099,2.7099,2.7099,2.7069,2.6764,2.7073,2.8039,2.807,2.807,2.8039,2.807,2.791,2.7591,2.7591,2.7579,2.7479,2.7076,2.7241,2.7737,2.7664,2.8418,2.9664,2.9965,3.0543,3.1195,3.1195,3.1437,3.1911,3.3017,3.3178,3.317,3.4653,3.4382,3.369,3.4729,3.4779,3.4555,3.4907,3.522,3.5429,3.5078,3.525,3.54,3.5048,3.5258,3.5511,3.5511,3.5511,3.5511,3.5511,3.5511,3.5511,3.5511,3.5511,3.5511,3.5511,3.5511,3.5511,3.5511,3.519,3.4989,3.4989,3.436,3.3979,3.3979,3.3979,3.3999,3.4029,3.3381,3.2871,3.255,3.1588,3.0396,2.8964,2.7498,2.6404,2.5625,2.4626,2.4075,2.3905,2.3905,2.378,2.3575,2.4339,2.4761,2.5057,2.666,2.7517,2.787,2.8344,2.8722,2.901,2.901,2.9677,3.0451,3.0073,3.0342,3.0695,3.1241,3.1421,3.1503,3.1503,3.1503,3.1503,3.1503,3.1503,3.1503,3.1503,3.1503,3.095,2.9548,2.9518,2.9016,2.7681,2.7591,2.7555,2.7435,2.701,2.698,2.7435,2.701,2.7297,2.8337,2.7854,2.786,2.8331,2.7835,2.7591,2.7591,2.7591,2.7947,2.8406,2.7241,2.7678,2.9106,2.7888,2.8514,3.0098,3.0098,3.0543,3.1195,3.1195,3.1674,3.2429,3.3152,3.3527,3.3924,3.5249,3.4824,3.4086,3.5251,3.5156,3.4787,3.534,3.5511,3.5511,3.5511,3.5511,3.5511,3.5511,3.5511,3.5511,3.5511,3.5511,3.5511,3.5511,3.5511,3.5511,3.5511,3.5511,3.5511,3.5511,3.5511,3.5511,3.5511,3.5511,3.5511,3.5511,3.4989,3.4675,3.4675,3.4675,3.4428,3.3881,3.3215,3.2789,3.2662,3.135,3.0197,2.9304,2.7856,2.6773,2.6014,2.4843,2.4448,2.4808,2.4808,2.4566,2.4184,2.5074,2.5177,2.487,2.6922,2.772,2.7692,2.8043,2.861,2.9165,2.9078,2.982,3.0579,2.8846,2.9744,3.0515,3.0635,3.1099,3.1503,3.1503,3.1503,3.1503,3.1503,3.1503,3.1503,3.1503,3.1503,3.074,2.8906,2.9279,2.9016,2.7681,2.7591,2.7345,2.6764,2.7189,2.7255,2.6764,2.7219,2.7545,2.7717,2.7629,2.7635,2.7717,2.7629,2.7591,2.7591,2.7591,2.7947,2.8467,2.8161,2.849,2.9164,2.8867,2.9283,3.0098,3.0098,3.0543,3.1195,3.1195,3.1674,3.2429,3.3152,3.3843,3.4522,3.5355,3.5473,3.5348,3.548,3.5452,3.5391,3.5481,3.5511,3.5511,3.5511,3.5511,3.5511,3.5511,3.5511,3.5511,3.5511,3.5511,3.5511,3.5511,3.5511,3.5511,3.5511,3.5511,3.5511,3.5511,3.5511,3.5511,3.5511,3.5511,3.5511,3.5511,3.5421,3.5362,3.5362,3.5362,3.534,3.5212,3.46,3.3949,3.3395,3.1907,3.0505,2.9318,2.7716,2.6821,2.6579,2.5771,2.5176,2.4808,2.4808,2.4758,2.4779,2.6272,2.6544,2.6161,2.8842,2.9624,2.9159,2.962,2.9862,2.9882,2.937,2.93,2.9295,2.8524,2.9362,3.0103,3.0425,3.1039,3.1503,3.1503,3.1503,3.1503,3.1503,3.1503,3.1361,3.0987,3.0635,2.9947,2.8697,2.8876,2.862,2.7651,2.7591,2.7471,2.7159,2.7435,2.7465,2.7165,2.7435,2.7591,2.7591,2.7591,2.7591,2.7591,2.7591,2.7591,2.7604,2.7959,2.8445,2.8999,2.8855,2.9374,3.0264,2.9815,3.0074,3.0712,3.0712,3.092,3.1263,3.1679,3.2017,3.2496,3.3631,3.424,3.4699,3.5917,3.6244,3.629,3.6681,3.6462,3.6102,3.6102,3.5814,3.5511,3.5511,3.5511,3.5511,3.5511,3.5511,3.5511,3.5511,3.5511,3.5511,3.5511,3.5511,3.5511,3.5511,3.5511,3.5511,3.5511,3.5511,3.5511,3.5511,3.5511,3.5511,3.5511,3.5511,3.5511,3.5511,3.5511,3.5239,3.4677,3.4545,3.3857,3.2471,3.1974,3.0783,2.887,2.8482,2.7724,2.6601,2.6872,2.6574,2.5753,2.5753,2.5569,2.5324,2.6539,2.676,2.6404,2.8842,2.9677,2.9448,2.9916,3.0098,3.007,2.9883,2.9815,2.9598]},{"header":{"parameterUnit":"m.s-1","parameterCategory":1,"la1":30.6,"la2":28.766,"lo1":-90.7593,"lo2":-88.6598,"dy":0.0162,"dx":0.0183,"nx":116,"ny":114,"refTime":"2023-05-24T00:00:00:Z","depth":0,"parameterNumber":3,"parameterNumberName":"V-component_of_WINDS"},"data":[0.0,0.0,0.0,0.0,0.0,0.0,0.0,0.0,0.0,0.0,0.0,0.0,0.0,0.0,0.0,0.0,0.0,0.0,0.0,0.0,0.0,0.0,0.0,0.0,0.0,0.0,0.0,0.0,0.0,0.0,0.0,0.0,0.0,0.0,0.0,0.0,0.0,0.0,0.0,0.0,0.0,0.0,0.0,0.0,0.0,0.0,0.0,0.0,0.0,0.0,0.0,0.0,0.0,0.0,0.0,0.0,0.0,0.0,0.0,0.0,0.0,0.0,0.0,0.0,0.0,0.0,0.0,0.0,0.0,0.0,0.0,0.0,0.0,0.0,0.0,0.0,0.0,0.0,0.0,0.0,0.0,0.0,0.0,0.0,0.0,0.0,0.0,0.0,0.0,0.0,0.0,0.0,0.0,0.0,0.0,0.0,0.0,0.0,0.0,0.0,0.0,0.0,0.0,0.0,0.0,0.0,0.0,0.0,0.0,0.0,0.0,0.0,0.0,0.0,0.0,0.0,0.0,0.0,0.0,0.0,0.0,0.0,0.0,0.0,0.0,0.0,0.0,0.0,0.0,0.0,0.0,0.0,0.0,0.0,0.0,0.0,0.0,0.0,0.0,0.0,0.0,0.0,0.0,0.0,0.0,0.0,0.0,0.0,0.0,0.0,0.0,0.0,0.0,0.0,0.0,0.0,0.0,0.0,0.0,0.0,0.0,0.0,0.0,0.0,0.0,0.0,0.0,0.0,0.0,0.0,0.0,0.0,0.0,0.0,0.0,0.0,0.0,0.0,0.0,0.0,0.0,0.0,0.0,0.0,0.0,0.0,0.0,0.0,0.0,0.0,0.0,0.0,0.0,0.0,0.0,0.0,0.0,0.0,0.0,0.0,0.0,0.0,0.0,0.0,0.0,0.0,0.0,0.0,0.0,0.0,0.0,0.0,0.0,0.0,0.0,0.0,0.0,0.0,0.0,0.0,0.0,0.0,0.0,0.0,0.0,0.0,0.0,0.0,0.0,0.0,0.0,0.0,0.0,0.0,0.0,0.0,0.0,0.0,0.0,0.0,0.0,0.0,0.0,0.0,0.0,0.0,0.0,0.0,0.0,0.0,0.0,0.0,0.0,0.0,0.0,0.0,0.0,0.0,0.0,0.0,0.0,0.0,0.0,0.0,0.0,0.0,0.0,0.0,0.0,0.0,0.0,0.0,0.0,0.0,0.0,0.0,0.0,0.0,0.0,0.0,0.0,0.0,0.0,0.0,0.0,0.0,0.0,0.0,0.0,0.0,0.0,0.0,0.0,0.0,0.0,0.0,0.0,0.0,0.0,0.0,0.0,0.0,0.0,0.0,0.0,0.0,0.0,0.0,0.0,0.0,0.0,0.0,0.0,0.0,0.0,0.0,0.0,0.0,0.0,0.0,0.0,0.0,0.0,0.0,0.0,0.0,0.0,0.0,0.0,0.0,0.0,0.0,0.0,0.0,0.0,0.0,0.0,0.0,0.0,0.0,0.0,0.0,0.0,0.0,0.0,0.0,0.0,0.0,0.0,0.0,0.0,0.0,0.0,0.0,0.0,0.0,0.0,0.0,0.0,0.0,0.0,0.0,0.0,0.0,0.0,0.0,0.0,0.0,0.0,0.0,0.0,0.0,0.0,0.0,0.0,0.0,0.0,0.0,0.0,0.0,0.0,0.0,0.0,0.0,0.0,0.0,0.0,0.0,0.0,0.0,0.0,0.0,0.0,0.0,0.0,0.0,0.0,0.0,0.0,0.0,0.0,0.0,0.0,0.0,0.0,0.0,0.0,0.0,0.0,0.0,0.0,0.0,0.0,0.0,0.0,0.0,0.0,0.0,0.0,0.0,0.0,0.0,0.0,0.0,0.0,0.0,0.0,0.0,0.0,0.0,0.0,0.0,0.0,0.0,0.0,0.0,0.0,0.0,0.0,0.0,0.0,0.0,0.0,0.0,0.0,0.0,0.0,0.0,0.0,0.0,0.0,0.0,0.0,0.0,0.0,0.0,0.0,0.0,0.0,0.0,0.0,0.0,0.0,0.0,0.0,0.0,0.0,0.0,0.0,0.0,0.0,0.0,0.0,0.0,0.0,0.0,0.0,0.0,0.0,0.0,0.0,0.0,0.0,0.0,0.0,0.0,0.0,0.0,0.0,0.0,0.0,0.0,0.0,0.0,0.0,0.0,0.0,0.0,0.0,0.0,0.0,0.0,0.0,0.0,0.0,0.0,0.0,0.0,0.0,0.0,0.0,0.0,0.0,0.0,0.0,0.0,0.0,0.0,0.0,0.0,0.0,0.0,0.0,0.0,0.0,0.0,0.0,0.0,0.0,0.0,0.0,0.0,0.0,0.0,0.0,0.0,0.0,0.0,0.0,0.0,0.0,0.0,0.0,0.0,0.0,0.0,0.0,0.0,0.0,0.0,0.0,0.0,0.0,0.0,0.0,0.0,0.0,0.0,0.0,0.0,0.0,0.0,0.0,0.0,0.0,0.0,0.0,0.0,0.0,0.0,0.0,0.0,0.0,0.0,0.0,0.0,0.0,0.0,0.0,0.0,0.0,0.0,0.0,0.0,0.0,0.0,0.0,0.0,0.0,0.0,0.0,0.0,0.0,0.0,0.0,0.0,0.0,0.0,0.0,0.0,0.0,0.0,0.0,0.0,0.0,0.0,0.0,0.0,0.0,0.0,0.0,0.0,0.0,0.0,0.0,0.0,0.0,0.0,0.0,0.0,0.0,0.0,0.0,0.0,0.0,0.0,0.0,0.0,0.0,0.0,0.0,0.0,0.0,0.0,0.0,0.0,0.0,0.0,0.0,0.0,0.0,0.0,0.0,0.0,0.0,0.0,0.0,0.0,0.0,0.0,0.0,0.0,0.0,0.0,0.0,0.0,0.0,0.0,0.0,0.0,0.0,0.0,0.0,0.0,0.0,0.0,0.0,0.0,0.0,0.0,0.0,0.0,0.0,0.0,0.0,0.0,0.0,0.0,0.0,0.0,0.0,0.0,0.0,0.0,0.0,0.0,0.0,0.0,0.0,0.0,0.0,0.0,0.0,0.0,0.0,0.0,0.0,0.0,0.0,0.0,0.0,0.0,0.0,0.0,0.0,0.0,0.0,0.0,0.0,0.0,0.0,0.0,0.0,0.0,0.0,0.0,0.0,0.0,0.0,0.0,0.0,0.0,0.0,0.0,0.0,0.0,0.0,0.0,0.0,0.0,0.0,0.0,0.0,0.0,0.0,0.0,0.0,0.0,0.0,0.0,0.0,0.0,0.0,0.0,0.0,0.0,0.0,0.0,0.0,0.0,0.0,0.0,0.0,0.0,0.0,0.0,0.0,0.0,0.0,0.0,0.0,0.0,0.0,0.0,0.0,0.0,0.0,0.0,0.0,0.0,0.0,0.0,0.0,0.0,0.0,0.0,0.0,0.0,0.0,0.0,0.0,0.0,0.0,0.0,0.0,0.0,0.0,0.0,0.0,0.0,0.0,0.0,0.0,0.0,0.0,0.0,0.0,0.0,0.0,0.0,0.0,0.0,0.0,0.0,0.0,0.0,0.0,0.0,0.0,0.0,0.0,0.0,0.0,0.0,0.0,0.0,0.0,0.0,0.0,0.0,0.0,0.0,0.0,0.0,0.0,0.0,0.0,0.0,0.0,0.0,0.0,0.0,0.0,0.0,0.0,0.0,0.0,0.0,0.0,0.0,0.0,0.0,0.0,0.0,0.0,0.0,0.0,0.0,0.0,0.0,0.0,0.0,0.0,0.0,0.0,0.0,0.0,0.0,0.0,0.0,0.0,0.0,0.0,0.0,0.0,0.0,0.0,0.0,0.0,0.0,0.0,0.0,0.0,0.0,0.0,0.0,0.0,0.0,0.0,0.0,0.0,0.0,0.0,0.0,0.0,0.0,0.0,0.0,0.0,0.0,0.0,0.0,0.0,0.0,0.0,0.0,0.0,0.0,0.0,0.0,0.0,0.0,0.0,0.0,0.0,0.0,0.0,0.0,0.0,0.0,0.0,0.0,0.0,0.0,0.0,0.0,0.0,0.0,0.0,0.0,0.0,0.0,0.0,0.0,0.0,0.0,0.0,0.0,0.0,0.0,0.0,0.0,0.0,0.0,0.0,0.0,0.0,0.0,0.0,0.0,0.0,0.0,0.0,0.0,0.0,0.0,0.0,0.0,0.0,0.0,0.0,0.0,0.0,0.0,0.0,0.0,0.0,0.0,0.0,0.0,0.0,0.0,0.0,0.0,0.0,0.0,0.0,0.0,0.0,0.0,0.0,0.0,0.0,0.0,0.0,0.0,0.0,0.0,0.0,0.0,0.0,0.0,0.0,0.0,0.0,0.0,0.0,0.0,0.0,0.0,0.0,0.0,0.0,0.0,0.0,0.0,0.0,0.0,0.0,0.0,0.0,0.0,0.0,0.0,0.0,0.0,0.0,0.0,0.0,0.0,0.0,0.0,0.0,0.0,0.0,0.0,0.0,0.0,0.0,0.0,0.0,0.0,0.0,0.0,0.0,0.0,0.0,0.0,0.0,0.0,0.0,0.0,0.0,0.0,0.0,0.0,0.0,0.0,0.0,0.0,0.0,0.0,0.0,0.0,0.0,0.0,0.0,0.0,0.0,0.0,0.0,0.0,0.0,0.0,0.0,0.0,0.0,0.0,0.0,0.0,0.0,0.0,0.0,0.0,0.0,0.0,0.0,0.0,0.0,0.0,0.0,0.0,0.0,0.0,0.0,0.0,0.0,0.0,0.0,0.0,0.0,0.0,0.0,0.0,0.0,0.0,0.0,0.0,0.0,0.0,0.0,0.0,0.0,0.0,0.0,0.0,0.0,0.0,0.0,0.0,0.0,0.0,0.0,0.0,0.0,0.0,0.0,0.0,0.0,0.0,0.0,0.0,0.0,0.0,0.0,0.0,0.0,0.0,0.0,0.0,0.0,0.0,0.0,0.0,0.0,0.0,0.0,0.0,0.0,0.0,0.0,0.0,0.0,0.0,0.0,0.0,0.0,0.0,0.0,0.0,0.0,0.0,0.0,0.0,0.0,0.0,0.0,0.0,0.0,0.0,0.0,0.0,0.0,0.0,0.0,0.0,0.0,0.0,0.0,0.0,0.0,0.0,0.0,0.0,0.0,0.0,0.0,0.0,0.0,0.0,0.0,0.0,0.0,0.0,0.0,0.0,0.0,0.0,0.0,0.0,0.0,0.0,0.0,0.0,0.0,0.0,0.0,0.0,0.0,0.0,0.0,0.0,0.0,0.0,0.0,0.0,0.0,0.0,0.0,0.0,0.0,0.0,0.0,0.0,0.0,0.0,0.0,0.0,0.0,0.0,0.0,0.0,0.0,0.0,0.0,0.0,0.0,0.0,0.0,0.0,0.0,0.0,0.0,0.0,0.0,0.0,0.0,0.0,0.0,0.0,0.0,0.0,0.0,0.0,0.0,0.0,0.0,0.0,0.0,0.0,0.0,0.0,0.0,0.0,0.0,0.0,0.0,0.0,0.0,0.0,0.0,0.0,0.0,0.0,0.0,0.0,0.0,0.0,0.0,0.0,0.0,0.0,0.0,0.0,0.0,0.0,0.0,0.0,0.0,0.0,0.0,0.0,0.0,0.0,0.0,0.0,0.0,0.0,0.0,0.0,0.0,0.0,0.0,0.0,0.0,0.0,0.0,0.0,0.0,0.0,0.0,0.0,0.0,0.0,0.0,0.0,0.0,0.0,0.0,0.0,0.0,0.0,0.0,0.0,0.0,0.0,0.0,0.0,0.0,0.0,0.0,0.0,0.0,0.0,0.0,0.0,0.0,0.0,0.0,0.0,0.0,0.0,0.0,0.0,0.0,0.0,0.0,0.0,0.0,0.0,0.0,0.0,0.0,0.0,0.0,0.0,0.0,0.0,0.0,0.0,0.0,0.0,0.0,0.0,0.0,0.0,0.0,0.0,0.0,0.0,0.0,0.0,0.0,0.0,0.0,0.0,0.0,0.0,0.0,0.0,0.0,0.0,0.0,0.0,0.0,0.0,0.0,0.0,0.0,0.0,0.0,0.0,0.0,0.0,0.0,0.0,0.0,0.0,0.0,0.0,2.6717,0.0,0.0,0.0,0.0,0.0,0.0,0.0,0.0,0.0,0.0,0.0,0.0,0.0,0.0,0.0,0.0,0.0,0.0,0.0,0.0,0.0,0.0,0.0,0.0,0.0,0.0,0.0,0.0,0.0,0.0,0.0,0.0,0.0,0.0,0.0,0.0,0.0,0.0,0.0,2.5232,2.5163,2.5756,2.6547,2.686,2.6785,0.0,0.0,0.0,0.0,0.0,0.0,0.0,0.0,0.0,0.0,0.0,0.0,0.0,0.0,0.0,0.0,0.0,0.0,0.0,0.0,0.0,0.0,0.0,0.0,0.0,0.0,0.0,0.0,0.0,0.0,0.0,0.0,0.0,0.0,0.0,0.0,0.0,0.0,0.0,0.0,0.0,0.0,0.0,0.0,0.0,0.0,0.0,0.0,0.0,0.0,0.0,0.0,0.0,0.0,0.0,0.0,0.0,0.0,0.0,0.0,0.0,0.0,0.0,0.0,0.0,0.0,0.0,0.0,0.0,0.0,2.8658,2.7914,0.0,0.0,0.0,0.0,0.0,0.0,0.0,0.0,0.0,0.0,0.0,0.0,0.0,0.0,0.0,0.0,0.0,0.0,0.0,0.0,0.0,0.0,0.0,0.0,2.4037,2.2968,2.4375,2.5354,0.0,0.0,0.0,0.0,0.0,0.0,0.0,0.0,0.0,0.0,2.6834,2.6974,2.815,2.9885,3.0254,2.9475,2.9255,0.0,0.0,0.0,0.0,0.0,0.0,0.0,0.0,0.0,0.0,0.0,0.0,0.0,0.0,0.0,0.0,0.0,0.0,0.0,0.0,0.0,0.0,0.0,0.0,0.0,0.0,0.0,0.0,0.0,0.0,0.0,0.0,0.0,0.0,0.0,0.0,0.0,0.0,0.0,0.0,0.0,0.0,0.0,0.0,0.0,0.0,0.0,0.0,0.0,0.0,0.0,0.0,0.0,0.0,0.0,0.0,0.0,0.0,0.0,0.0,0.0,0.0,0.0,3.1964,3.2753,3.3693,3.3668,3.3506,3.3133,3.1813,3.0743,2.988,2.9308,0.0,0.0,0.0,0.0,0.0,0.0,0.0,0.0,0.0,0.0,0.0,0.0,0.0,0.0,0.0,0.0,0.0,0.0,0.0,0.0,0.0,2.3684,2.3751,2.3585,2.427,2.4758,0.0,0.0,0.0,0.0,0.0,0.0,0.0,2.7591,2.7878,2.8464,2.9387,3.0484,3.1722,3.2624,3.3882,3.5227,3.1533,3.1288,3.3558,0.0,0.0,0.0,0.0,0.0,0.0,0.0,0.0,0.0,0.0,0.0,0.0,0.0,0.0,0.0,0.0,0.0,0.0,0.0,0.0,0.0,0.0,0.0,0.0,0.0,0.0,0.0,0.0,0.0,0.0,0.0,0.0,0.0,0.0,0.0,0.0,0.0,0.0,0.0,0.0,0.0,2.8021,2.8332,0.0,0.0,0.0,0.0,0.0,0.0,0.0,0.0,0.0,0.0,0.0,0.0,0.0,3.1321,3.2336,3.3409,3.4,3.4176,3.5241,3.583,3.5944,3.5954,3.6431,3.7224,3.6998,0.0,3.0437,2.9905,0.0,0.0,0.0,0.0,0.0,0.0,0.0,0.0,0.0,0.0,0.0,0.0,0.0,0.0,0.0,0.0,0.0,0.0,0.0,0.0,0.0,2.4994,2.5897,2.5878,2.8175,2.8979,2.7548,2.7748,0.0,0.0,0.0,0.0,2.7591,2.7968,2.8846,3.0232,3.2677,3.4151,3.473,3.6552,3.7644,3.8058,3.6118,3.4936,3.4252,3.2325,0.0,0.0,0.0,0.0,0.0,0.0,0.0,0.0,0.0,0.0,0.0,0.0,0.0,0.0,0.0,0.0,0.0,0.0,0.0,0.0,0.0,0.0,0.0,0.0,0.0,0.0,0.0,0.0,0.0,0.0,0.0,0.0,0.0,0.0,0.0,0.0,0.0,0.0,0.0,3.0023,2.9709,2.7991,2.8329,2.8115,0.0,0.0,0.0,0.0,0.0,0.0,0.0,0.0,0.0,3.2405,3.2957,3.3807,3.4935,3.5716,3.6584,3.7526,3.8329,3.8856,3.9169,3.9522,3.9735,3.9847,3.9847,3.8103,3.5114,3.3309,3.1842,3.0588,0.0,0.0,0.0,0.0,2.9704,3.0131,0.0,0.0,0.0,0.0,0.0,0.0,0.0,0.0,0.0,0.0,0.0,0.0,2.4287,2.6493,2.807,2.8545,3.1285,3.2078,2.9967,2.9624,0.0,0.0,0.0,2.6914,2.7591,2.8913,3.0635,3.2774,3.5938,3.7742,3.8311,4.0247,4.1046,4.0887,4.0558,3.8772,3.5865,3.3873,3.2811,3.2407,0.0,0.0,0.0,0.0,0.0,0.0,0.0,0.0,0.0,0.0,0.0,0.0,0.0,0.0,0.0,0.0,0.0,0.0,0.0,0.0,0.0,0.0,0.0,0.0,0.0,0.0,0.0,0.0,0.0,0.0,0.0,0.0,0.0,0.0,0.0,0.0,0.0,3.1431,3.1039,2.8411,2.9477,2.9487,0.0,0.0,0.0,0.0,0.0,0.0,3.2164,3.3043,3.4073,3.5353,3.6045,3.6935,3.8077,3.8492,3.9383,4.0752,4.114,4.1553,4.1955,4.2548,4.2423,4.1729,4.1879,4.109,3.9535,3.6558,3.4427,3.2846,3.0939,3.0548,3.111,3.1501,3.1903,3.2491,0.0,0.0,0.0,0.0,0.0,0.0,0.0,0.0,0.0,0.0,0.0,2.2962,2.6122,2.7724,2.9277,3.1148,3.1489,3.1271,3.0522,2.8164,2.7033,2.7591,2.695,2.6914,2.7591,3.0702,3.3604,3.6254,3.8901,4.1175,4.304,4.313,4.3818,4.4945,4.3668,4.1993,3.9858,3.6014,3.4757,3.5062,3.2505,0.0,0.0,0.0,0.0,0.0,0.0,0.0,0.0,0.0,0.0,0.0,0.0,0.0,0.0,0.0,0.0,0.0,0.0,0.0,0.0,0.0,0.0,0.0,0.0,0.0,0.0,0.0,0.0,0.0,0.0,0.0,0.0,0.0,0.0,0.0,0.0,0.0,0.0,3.0826,3.1546,0.0,0.0,0.0,0.0,3.122,3.2717,3.3922,3.4502,3.6056,3.7701,3.9358,4.0424,4.1517,4.2663,4.2674,4.3,4.3589,4.3614,4.3639,4.3689,4.4227,4.3915,4.2925,4.3438,4.3051,4.1772,3.8441,3.6396,3.5207,3.4087,3.3986,3.4452,3.4477,3.4502,3.4552,0.0,0.0,0.0,0.0,0.0,0.0,0.0,0.0,2.1092,2.2794,2.338,2.4867,2.8177,3.083,3.3164,3.5128,3.6101,3.5772,3.3836,3.1622,3.0306,3.0126,2.8697,2.9392,3.2624,3.4614,3.7165,4.0314,4.2043,4.3509,4.4616,4.5044,4.5254,4.5315,4.5254,4.4356,4.2661,3.87,3.6425,3.5272,3.2594,3.1361,0.0,0.0,0.0,0.0,0.0,0.0,0.0,0.0,0.0,0.0,0.0,0.0,0.0,0.0,0.0,0.0,0.0,0.0,0.0,0.0,0.0,0.0,0.0,0.0,0.0,0.0,0.0,0.0,0.0,0.0,0.0,0.0,0.0,0.0,0.0,0.0,0.0,3.4316,3.5256,0.0,3.257,3.3058,3.3972,3.5063,3.6381,3.7638,3.8881,3.9886,4.1004,4.2283,4.2696,4.3625,4.5121,4.4392,4.4478,4.5407,4.5045,4.4694,4.4328,4.4905,4.4769,4.4027,4.4227,4.3714,4.2612,4.1431,3.966,3.7513,3.5656,3.5292,3.5792,3.5792,3.6232,3.6873,0.0,0.0,0.0,0.0,0.0,0.0,0.0,0.0,2.113,2.3096,2.4891,2.7358,3.086,3.3979,3.6613,3.8571,3.8952,3.8234,3.6259,3.3417,3.1645,3.1189,3.0149,3.1532,3.5759,3.7524,3.9918,4.305,4.469,4.5635,4.6003,4.6792,4.674,4.5992,4.6431,4.6001,4.4785,4.1953,3.9089,3.6267,3.3828,3.2991,3.2901,0.0,0.0,0.0,0.0,0.0,0.0,0.0,0.0,0.0,0.0,0.0,0.0,0.0,0.0,0.0,0.0,0.0,0.0,0.0,0.0,0.0,0.0,0.0,0.0,0.0,0.0,0.0,0.0,0.0,0.0,0.0,0.0,0.0,0.0,0.0,3.7405,3.6746,3.8119,3.8329,3.6296,3.661,3.7475,3.8793,3.9924,4.1016,4.208,4.3076,4.3905,4.4618,4.4995,4.5723,4.6813,4.6085,4.6085,4.6838,4.6476,4.5924,4.5206,4.5759,4.5508,4.4614,4.483,4.4292,4.3251,4.3076,4.1808,3.9848,3.8116,3.7689,3.8052,3.8052,3.8492,3.9132,0.0,0.0,0.0,0.0,0.0,0.0,0.0,2.1359,2.2381,2.4406,2.7009,3.02,3.4166,3.6972,3.9367,4.1313,3.9628,3.8153,3.7486,3.3088,3.0552,3.0575,3.1308,3.3305,3.6693,3.9254,4.187,4.4498,4.6741,4.7661,4.7385,4.8314,4.8231,4.7309,4.7328,4.6969,4.633,4.5663,4.2761,3.8461,3.6447,3.6006,3.6254,0.0,0.0,0.0,0.0,0.0,0.0,0.0,0.0,0.0,0.0,0.0,0.0,0.0,0.0,0.0,0.0,0.0,0.0,0.0,0.0,0.0,0.0,0.0,0.0,0.0,0.0,0.0,0.0,0.0,0.0,0.0,0.0,0.0,3.5026,3.7559,3.9083,3.8115,4.0033,4.0826,3.9271,4.0565,4.1746,4.2299,4.3383,4.3987,4.3987,4.5546,4.6411,4.6411,4.7478,4.8017,4.7933,4.7954,4.7954,4.7908,4.7908,4.7355,4.6311,4.6863,4.6195,4.4704,4.5271,4.4884,4.379,4.3251,4.2713,4.2174,4.1542,4.1289,4.1289,4.1289,4.1264,4.1177,0.0,0.0,0.0,0.0,0.0,0.0,0.0,2.1199,2.22,2.5598,2.8773,3.2213,3.6178,3.981,4.2382,4.3409,4.1265,3.9349,3.8191,3.3798,3.1675,3.2617,3.513,3.8422,4.2497,4.3771,4.5811,4.8716,4.8577,4.8481,4.8387,4.7914,4.757,4.7328,4.7818,4.7908,4.7709,4.704,4.5753,4.3798,3.99,3.7875,3.6866,0.0,0.0,0.0,0.0,0.0,0.0,0.0,0.0,0.0,0.0,0.0,0.0,0.0,0.0,0.0,0.0,0.0,0.0,0.0,0.0,0.0,0.0,0.0,0.0,0.0,0.0,0.0,0.0,0.0,0.0,0.0,0.0,3.7881,3.8444,4.0522,4.2174,4.2655,4.3683,4.4317,4.4267,4.5327,4.595,4.5787,4.7486,4.8513,4.8513,4.8942,4.9188,4.9188,5.0626,5.0462,4.8583,4.9281,4.906,4.7908,4.7908,4.7355,4.6311,4.6863,4.6622,4.5834,4.601,4.5432,4.4378,4.4227,4.3614,4.2688,4.1679,4.1289,4.1239,4.0851,4.0487,4.0124,0.0,0.0,0.0,0.0,0.0,0.0,0.0,2.1034,2.255,2.6488,3.0133,3.3828,3.7815,4.1266,4.3369,4.3489,4.1345,3.92,3.7315,3.4135,3.3058,3.4689,3.8044,4.1588,4.5226,4.6981,4.8824,5.0874,5.0509,5.0354,5.0354,4.9268,4.8797,4.8807,4.8749,4.8708,4.8678,4.8308,4.7919,4.7309,4.4307,4.2162,4.0427,3.7802,3.7135,3.7426,3.5922,3.602,3.6665,3.5228,0.0,0.0,0.0,0.0,0.0,0.0,0.0,0.0,0.0,0.0,0.0,0.0,0.0,0.0,0.0,0.0,0.0,0.0,0.0,0.0,0.0,0.0,0.0,0.0,4.0538,4.2714,4.4178,4.4949,4.5697,4.6538,4.7759,4.8743,4.925,4.964,4.9551,4.888,5.0358,5.1007,5.0337,5.0556,5.0688,5.0688,5.1803,5.1346,4.9161,5.0166,4.9854,4.8259,4.8033,4.7465,4.6662,4.6948,4.6813,4.6286,4.6286,4.5784,4.498,4.498,4.4342,4.3251,0.0,0.0,0.0,0.0,4.0852,4.0337,0.0,0.0,0.0,0.0,0.0,0.0,0.0,2.0994,2.3166,2.7292,3.1068,3.4891,3.8862,4.1575,4.2901,4.244,4.0546,3.8315,3.5789,3.4562,3.4895,3.7037,4.0565,4.3778,4.652,4.9413,5.1247,5.1969,5.2316,5.2527,5.2547,5.1257,5.0663,5.0684,4.9859,4.9516,4.9516,4.9576,4.9617,4.9587,4.8977,4.75,4.5374,4.281,4.2551,4.321,4.0737,3.9191,3.8182,3.7413,0.0,0.0,0.0,0.0,0.0,0.0,0.0,0.0,0.0,0.0,0.0,0.0,0.0,0.0,0.0,0.0,0.0,0.0,0.0,0.0,0.0,0.0,0.0,0.0,4.5651,4.8385,5.092,5.0365,4.9764,4.9931,5.1638,5.301,5.3546,5.3265,5.2662,5.1736,5.2676,5.265,5.1198,0.0,0.0,0.0,0.0,5.1865,4.9886,5.0975,5.0584,4.8677,4.8209,4.7691,4.7099,4.7099,4.6848,4.6386,4.6311,4.5999,4.5512,4.5512,4.4834,4.374,4.3201,4.2964,4.2838,4.2299,4.1706,4.1138,0.0,0.0,0.0,0.0,0.0,0.0,0.0,2.1558,2.3501,2.8537,3.124,3.4195,3.8161,4.0496,4.1942,4.2351,4.0546,3.8533,3.6425,3.6507,3.7903,4.0742,4.4157,4.751,5.0738,5.2515,5.3882,5.4906,5.3269,5.2517,5.2477,5.05,4.9594,4.9665,5.0476,5.0828,5.0858,5.1409,5.1648,5.163,5.151,4.9954,4.75,4.5374,4.4706,4.4706,4.318,4.312,4.3509,4.1832,4.1424,4.1186,3.8823,0.0,0.0,0.0,0.0,0.0,0.0,0.0,0.0,0.0,0.0,0.0,0.0,0.0,0.0,0.0,0.0,0.0,0.0,0.0,0.0,4.5984,4.9541,5.2617,5.5154,5.578,5.5163,5.2981,5.3082,5.3588,5.418,5.4869,5.5068,5.4558,5.5881,5.6608,5.6276,5.6375,5.6204,5.565,5.7003,5.572,5.157,5.3018,5.1846,4.8083,4.8451,0.0,4.7099,4.7099,4.7048,4.6923,4.6486,4.5999,4.5512,4.5512,4.4834,4.374,4.3201,4.2738,4.2286,4.1692,4.1127,4.0588,0.0,0.0,0.0,0.0,0.0,0.0,0.0,2.1986,2.3746,2.8034,3.0027,3.2168,3.513,3.6943,3.7691,3.6985,3.6431,3.62,3.6489,3.8554,4.118,4.432,4.7693,5.0621,5.2988,5.4081,5.4849,5.5399,5.3606,5.2996,5.3502,5.1292,5.0735,5.1606,5.166,5.2085,5.2713,5.3042,5.3204,5.3234,5.3563,5.2917,5.154,4.9535,4.8356,4.7706,4.7418,4.6879,4.6142,4.5165,4.4377,4.3399,4.1115,3.926,3.7213,0.0,0.0,0.0,0.0,0.0,0.0,0.0,0.0,0.0,0.0,0.0,0.0,0.0,0.0,3.6319,0.0,0.0,4.6814,5.1063,5.3806,5.5951,5.747,5.8373,5.7953,5.5409,5.5823,5.6418,5.6707,5.7496,5.759,5.6568,5.8002,5.8558,5.7729,5.7384,5.7052,5.6707,5.7482,5.6007,5.2024,5.304,5.1803,4.835,4.8083,4.7641,4.7099,4.7099,4.6948,4.6672,4.6411,4.615,4.5849,4.5282,4.4704,4.4127,4.3302,4.2838,4.2487,4.1628,4.1138,4.0775,0.0,0.0,0.0,0.0,0.0,0.0,0.0,2.2262,2.3841,2.6986,2.8364,2.9758,3.1712,3.2893,3.2983,3.163,3.2887,3.4884,3.7405,4.1126,4.4772,4.8281,5.1122,5.328,5.4656,5.5243,5.5423,5.5195,5.3923,5.3685,5.4412,5.2482,5.2448,5.3922,5.3121,5.3443,5.461,5.4718,5.4748,5.482,5.5359,5.5581,5.5371,5.3623,5.2235,5.1164,5.1176,4.9512,4.7328,4.7459,4.6172,4.4277,4.295,4.1903,4.02,3.5399,3.414,0.0,0.0,0.0,0.0,0.0,0.0,0.0,0.0,0.0,3.2741,3.5268,3.8254,4.1685,4.5774,4.8936,5.2078,5.5644,5.7639,5.8884,5.9306,6.0016,5.9718,5.7604,5.8508,5.9308,5.9308,5.9787,5.9616,5.8463,5.9569,5.9664,5.8231,5.7783,5.7434,5.7159,5.7159,5.5647,5.2501,5.2836,5.1603,4.8793,4.7883,4.7365,4.7249,4.7149,4.6873,4.6461,4.6336,4.6235,4.606,4.5031,4.4554,4.4382,4.3661,4.3164,4.2724,4.1679,4.1289,4.1138,0.0,0.0,0.0,0.0,0.0,0.0,0.0,0.0,2.3661,2.6345,2.6854,2.7692,2.9698,3.0057,3.0499,3.1421,3.5069,3.8496,4.1299,4.4822,4.8817,5.3278,5.4411,5.5518,5.683,5.6918,5.6509,5.5536,5.4974,5.443,5.3956,5.3292,5.3409,5.4179,5.4643,5.5281,5.6013,5.6539,5.6778,5.6765,5.6855,5.6898,5.6795,5.6042,5.5281,5.4341,5.2025,4.9512,4.7399,4.7978,4.6841,4.5374,4.6322,4.5354,4.3069,3.9057,0.0,3.3221,3.0301,2.9318,0.0,3.2049,3.1612,3.2003,0.0,0.0,3.8217,4.1862,4.4558,4.6867,4.8818,5.263,5.5965,5.7496,5.9922,6.1655,6.17,6.1813,6.1347,5.9896,5.9884,5.998,5.998,6.007,6.0257,6.0687,6.0886,6.0645,5.9866,6.0315,6.0077,5.8885,5.8825,5.7314,5.4149,5.4174,5.239,4.8793,4.8677,4.8325,4.7792,4.7315,4.7074,4.6973,4.6512,4.6024,4.5537,4.488,4.4328,4.3943,4.455,4.3762,4.2224,4.1528,4.1289,4.1138,0.0,0.0,0.0,0.0,0.0,0.0,0.0,0.0,0.0,2.519,2.5453,2.5752,2.659,2.6333,2.6796,2.8448,3.3327,3.7797,4.1237,4.6968,5.1508,5.434,5.5726,5.6537,5.6794,5.6188,5.5455,5.4606,5.4141,5.3562,5.2924,5.3519,5.4132,5.482,5.5491,5.6359,5.7334,5.756,5.7902,5.8261,5.8261,5.8261,5.8082,5.6299,5.4952,5.3755,5.1445,4.8933,0.0,4.7029,4.658,4.5982,4.655,4.5217,4.2693,3.8643,3.6211,0.0,3.2673,0.0,0.0,0.0,3.5465,3.6734,3.991,4.0777,4.2015,4.5867,4.8985,5.1815,5.4529,5.7544,5.9943,0.0,6.1942,6.2674,6.2674,6.093,5.9193,5.7984,5.7741,5.815,5.939,5.9028,5.8817,5.911,5.911,5.8993,5.8729,5.9482,5.9697,5.9129,5.9099,5.7595,5.4416,5.4962,5.3239,4.927,4.9537,4.9733,4.9785,4.8834,4.8209,4.784,4.6767,4.5999,4.5462,4.4855,4.4754,4.494,4.4152,4.3821,4.3729,4.285,4.1794,4.0738,0.0,0.0,0.0,0.0,0.0,0.0,0.0,0.0,0.0,0.0,2.4306,2.4306,2.4306,2.3903,2.4387,2.6322,3.1662,3.6753,4.1145,4.8074,5.2977,5.5234,5.6537,5.7032,5.6659,5.5675,5.4777,5.3971,5.4026,5.3695,5.3067,5.4371,5.5359,5.6017,5.6509,5.7334,5.8397,5.8577,5.8816,5.9129,5.9308,5.8949,5.8022,5.5581,5.3246,5.1079,4.9441,4.7048,4.4636,4.4247,4.4127,4.4146,4.4259,4.3398,4.1631,3.8026,3.5977,3.4728,3.3897,0.0,0.0,3.6909,3.8869,4.0922,4.2924,4.4259,4.6256,5.0464,5.3317,5.6003,5.8972,6.0915,6.2241,6.2734,6.2988,6.2874,6.2245,5.9712,5.7395,5.5976,5.5099,5.5512,5.7802,5.8053,5.7898,5.7455,5.8015,5.8101,5.747,5.8662,5.9279,5.9099,5.9099,5.779,5.5064,5.5766,5.4371,5.0932,5.1066,5.1305,5.1489,4.9843,4.865,4.7831,4.6618,4.5773,4.524,4.5052,4.5009,4.5025,4.4377,4.4069,4.3935,4.3532,4.2255,4.0625,0.0,0.0,0.0,0.0,0.0,0.0,0.0,0.0,0.0,0.0,0.0,0.0,0.0,2.361,2.4387,2.6322,3.1178,3.6489,4.2097,4.7944,5.3013,5.6941,5.7151,5.714,5.6986,5.6231,5.5325,5.4181,5.5486,5.5773,5.5132,5.6419,5.7363,5.7995,5.8025,5.8427,5.9129,5.9771,5.9681,5.9159,5.9801,5.8544,5.6072,5.4024,5.0451,4.642,4.5683,4.3359,4.0367,3.9089,3.864,3.8707,3.9089,4.003,0.0,3.8228,3.5494,3.3158,0.0,0.0,3.6147,3.8919,4.0879,4.3259,4.7588,4.9449,5.1667,5.6622,5.8118,5.9074,6.0737,6.1614,6.2121,6.2121,6.2674,6.2333,6.0117,5.874,5.7193,5.5094,5.2778,5.238,0.0,5.7593,5.8415,5.6849,5.8769,5.9052,5.685,5.8839,5.9757,5.9129,5.9099,5.8303,5.6665,5.6664,5.585,5.4253,5.3591,5.3014,5.2366,4.9742,4.7725,4.6336,4.5778,4.5171,4.468,4.5515,4.4765,4.3362,4.5964,4.4691,4.1581,4.2918,4.25,4.1113,0.0,0.0,0.0,0.0,0.0,0.0,0.0,0.0,0.0,0.0,0.0,0.0,0.0,0.0,0.0,0.0,2.9898,3.4181,3.9202,4.5545,5.0203,5.2653,5.4942,5.592,5.5472,5.5005,5.4568,5.4209,5.5551,5.5863,5.5251,5.6961,5.7876,5.8145,5.9039,5.9308,5.9145,5.9831,5.9697,5.9009,5.7945,5.7,5.5743,5.1552,4.7619,4.3867,0.0,3.7707,3.627,3.5275,3.493,3.5052,3.5965,3.5834,3.4952,3.3004,3.3017,3.3883,3.4986,0.0,4.0878,4.4762,4.6991,4.9217,5.2919,5.4379,5.5461,5.7368,5.7168,5.6899,5.7696,5.8035,5.8454,5.9295,5.9772,5.983,5.9261,5.6566,5.3452,5.0159,4.9546,0.0,0.0,0.0,0.0,5.4467,5.6205,5.6633,5.5254,5.7884,5.9338,5.9129,5.9099,5.8331,5.6736,5.7776,5.6962,5.4401,5.4753,5.4189,5.277,5.1306,5.0113,4.9083,4.6576,4.569,4.5922,4.4916,4.5535,4.6912,4.4705,4.4151,4.4364,4.2255,4.1186,4.0675,0.0,0.0,0.0,0.0,0.0,0.0,0.0,0.0,0.0,0.0,0.0,0.0,0.0,0.0,0.0,0.0,0.0,3.2355,3.6649,4.1977,4.5791,4.7711,4.9943,5.1087,5.0987,5.0332,5.0308,5.0977,5.2685,5.3489,5.3473,5.5513,5.6452,5.6393,5.7513,5.7752,5.738,5.8052,5.7543,5.6154,5.467,5.2947,5.0815,4.6691,4.2763,0.0,3.471,3.2311,3.1096,3.0845,3.118,3.174,3.2146,3.2336,3.2202,3.1255,3.2928,3.5566,3.7851,4.1317,4.5187,4.9021,5.1558,5.3785,5.6529,5.7279,5.7459,5.7781,5.591,5.4226,5.4196,5.3187,5.286,5.4492,5.5324,5.5972,5.6666,5.3955,5.1035,4.87,4.7925,4.7381,0.0,0.0,0.0,5.2357,5.4544,5.5565,5.4903,5.7576,5.9099,5.9099,5.9099,5.8607,5.7566,5.8356,5.7494,5.5069,5.56,5.4591,5.216,5.1585,5.0444,4.872,4.6777,4.5834,4.5625,4.5166,4.5768,4.6704,4.3963,4.3558,4.4234,4.2009,4.1067,4.0849,0.0,0.0,0.0,0.0,0.0,0.0,0.0,0.0,0.0,0.0,0.0,0.0,0.0,0.0,0.0,0.0,0.0,0.0,3.4381,3.7339,3.9999,4.2401,4.2743,4.3269,4.4115,4.2938,4.3182,4.5011,4.7302,4.8909,4.9901,5.2132,5.305,5.2857,5.3503,5.379,5.385,5.4461,5.3234,5.0727,5.0028,4.6741,4.2012,3.9932,3.6326,3.2075,3.0019,2.7534,2.5332,2.6127,0.0,0.0,2.8055,2.9839,3.2405,3.309,3.5251,3.8177,4.1578,4.5354,4.8959,5.1805,5.4486,5.6867,5.8404,5.8205,5.7664,5.7662,5.4351,5.1171,0.0,0.0,4.6063,4.8292,4.9864,5.1302,5.2672,5.1155,5.0065,0.0,0.0,0.0,0.0,0.0,0.0,5.0864,5.4015,5.5853,5.5744,5.7867,5.9099,5.9099,5.9099,5.9099,5.9099,5.836,5.7387,5.6192,5.6128,5.4274,5.0933,5.0809,4.8961,4.5863,4.6493,4.5723,4.4153,4.618,4.5515,4.3333,4.3844,4.2993,4.1524,4.2047,4.1978,4.1603,0.0,0.0,0.0,0.0,0.0,0.0,0.0,0.0,0.0,0.0,0.0,0.0,0.0,0.0,0.0,0.0,0.0,0.0,2.9332,3.2268,3.4849,3.6915,3.8951,4.0618,4.1814,4.1222,4.1389,4.2371,4.3906,4.482,4.5165,4.6716,4.7658,4.8076,4.8256,4.8304,4.8334,4.8495,4.7317,4.5213,4.4097,4.2252,3.9833,3.6804,3.3993,3.1295,2.8705,2.6624,0.0,0.0,0.0,0.0,0.0,3.1498,3.3746,3.5161,3.8102,4.174,4.5486,4.9373,5.3201,5.6859,5.825,5.8862,5.9581,5.8436,5.6225,5.2645,4.9115,4.5974,0.0,0.0,0.0,4.7685,4.9805,0.0,5.2191,5.1124,0.0,4.9263,0.0,4.9526,5.0338,5.106,0.0,0.0,5.5044,5.622,5.6447,5.8146,5.9099,5.9099,5.9099,5.9099,5.9099,5.7337,5.6354,5.6179,5.5034,5.434,5.3987,5.2408,5.118,5.0247,4.839,4.731,4.68,4.5902,4.606,4.6553,4.3297,4.2697,4.3423,4.1195,4.091,4.1739,0.0,0.0,0.0,0.0,0.0,0.0,0.0,0.0,0.0,0.0,0.0,0.0,0.0,0.0,0.0,0.0,0.0,0.0,0.0,2.859,3.0312,3.168,3.291,3.4182,3.55,3.5017,3.523,3.6182,3.7906,3.8836,3.9098,4.0519,4.1321,4.1575,4.1883,4.2153,4.2392,4.2123,4.1016,0.0,0.0,3.6152,3.3978,3.21,3.0098,2.8084,0.0,0.0,0.0,0.0,0.0,3.1526,3.2753,3.465,3.7027,3.9922,0.0,4.6001,5.0164,5.378,5.6913,5.9084,5.9684,5.9367,5.7865,5.5645,5.2487,4.7454,4.3567,0.0,3.7998,3.8214,0.0,0.0,0.0,0.0,5.0274,4.9923,4.9773,0.0,5.1076,0.0,5.2217,5.3194,5.436,0.0,5.5995,5.6439,5.7264,5.8442,5.9099,5.9099,5.8816,5.8397,5.7826,5.6638,5.5781,5.5299,5.4444,5.3794,5.3305,5.2104,5.1062,5.0136,4.9223,4.8333,4.7499,4.6725,4.6755,4.6975,4.3842,4.3357,4.4235,4.2736,4.2641,4.3456,0.0,0.0,0.0,0.0,0.0,0.0,0.0,0.0,0.0,0.0,0.0,0.0,0.0,0.0,0.0,0.0,0.0,0.0,0.0,0.0,2.6494,2.7159,2.6638,2.6904,2.809,2.76,2.7896,2.8984,3.1038,3.2245,3.2609,3.4115,3.471,3.4614,3.5108,3.5647,3.6199,3.5587,3.4615,3.335,3.2191,2.991,2.7207,0.0,0.0,0.0,0.0,0.0,0.0,0.0,3.2441,3.3671,3.6331,3.8831,4.1627,4.5827,4.825,5.0516,5.4882,5.7878,5.9748,5.9558,5.9534,5.85,5.4361,5.1023,4.7306,4.2126,0.0,3.4959,3.3218,3.2596,3.3326,3.6315,0.0,4.3281,4.7861,4.8242,4.9405,5.3079,5.2909,5.3289,5.5273,5.6071,5.6958,5.8145,5.7065,5.6872,5.8151,5.8786,5.9069,5.8966,5.8397,5.7483,5.6222,5.5982,5.5313,5.4209,5.4005,5.3006,5.1295,5.1195,5.0185,4.854,4.967,4.9044,4.7286,4.7926,4.738,4.5989,4.4765,4.4372,4.451,4.4953,4.5241,4.5576,0.0,0.0,0.0,0.0,0.0,0.0,0.0,0.0,0.0,0.0,2.3525,2.3057,0.0,0.0,0.0,0.0,0.0,0.0,0.0,0.0,0.0,2.5089,2.5023,2.5326,2.6079,2.5997,2.6063,2.629,2.7236,2.7718,2.7812,2.8665,2.9301,2.9774,2.9345,2.9518,3.0073,2.9435,2.8686,2.794,2.766,2.6846,2.5761,0.0,0.0,0.0,0.0,0.0,0.0,0.0,3.6019,3.873,4.0602,4.3653,4.7078,4.9685,5.1977,5.4445,5.8016,5.9669,6.0266,5.9777,5.8262,5.5548,5.054,4.6309,0.0,0.0,3.3852,3.2014,3.1067,3.2114,3.4399,3.8328,0.0,0.0,0.0,0.0,4.8821,0.0,0.0,0.0,0.0,0.0,0.0,0.0,5.869,5.8662,5.8906,5.9039,5.8846,5.8308,5.8145,5.7483,5.6222,5.4942,5.427,5.4197,5.2946,5.2531,5.2814,5.2225,5.1807,5.1423,5.1137,4.9866,4.8015,4.816,4.7415,4.6064,4.4784,4.4685,4.5098,4.4156,4.4489,4.5423,0.0,0.0,0.0,0.0,0.0,0.0,0.0,2.1729,2.2557,2.4819,2.4592,2.4333,2.4621,2.4029,0.0,0.0,0.0,0.0,0.0,0.0,0.0,0.0,0.0,0.0,2.4562,2.4915,2.4915,2.4562,0.0,2.5369,2.5057,2.5357,2.568,2.5974,2.5656,2.5884,2.647,2.58,2.536,2.511,2.5364,2.482,0.0,0.0,0.0,0.0,0.0,0.0,0.0,0.0,3.5743,4.0331,4.3919,4.6929,4.9871,5.3558,5.5406,5.7006,6.0531,6.166,6.1351,5.9277,5.6539,5.2665,4.6385,0.0,0.0,0.0,3.0283,2.9119,2.8496,0.0,0.0,0.0,0.0,0.0,0.0,0.0,0.0,0.0,0.0,0.0,0.0,0.0,5.8234,5.8547,5.8577,5.8726,5.9085,5.8756,5.8278,5.759,5.7274,5.6658,5.5683,5.4957,5.4264,5.3683,5.2967,5.246,5.2157,5.1828,5.1292,5.0626,5.0667,4.9758,4.8189,4.8232,4.7871,4.7216,4.6245,4.6074,4.6311,4.57,4.5857,4.6377,0.0,0.0,0.0,0.0,0.0,0.0,0.0,2.2708,2.3536,2.5938,2.5752,2.5513,2.5782,2.4621,2.3759,0.0,0.0,0.0,0.0,0.0,0.0,0.0,0.0,0.0,0.0,0.0,0.0,0.0,2.4137,0.0,0.0,0.0,0.0,0.0,0.0,2.3832,2.415,2.3627,2.3358,0.0,0.0,2.34,0.0,0.0,0.0,0.0,0.0,0.0,0.0,0.0,3.3861,3.8867,4.4322,4.8113,5.1355,5.541,5.7482,5.9085,6.206,6.2713,6.1717,5.8248,5.4375,4.9619,4.2575,3.7112,0.0,0.0,2.7455,2.6674,2.6365,0.0,3.0071,0.0,3.3886,3.6917,0.0,0.0,0.0,0.0,0.0,0.0,0.0,0.0,0.0,5.7889,5.7889,5.8128,5.865,5.8158,5.759,5.6928,5.6462,5.5893,5.5222,5.5059,5.4384,5.3198,5.3037,5.2366,5.1206,5.1206,5.0627,4.9662,5.0028,4.9514,4.8428,4.8323,4.8218,4.8038,4.7519,4.7309,4.7309,4.7309,4.7399,4.7519,0.0,0.0,0.0,0.0,0.0,0.0,0.0,2.2708,2.4045,2.7829,2.6195,2.5154,2.6369,2.5304,2.4246,0.0,0.0,0.0,0.0,0.0,0.0,0.0,0.0,0.0,0.0,0.0,0.0,0.0,0.0,0.0,0.0,0.0,0.0,0.0,0.0,0.0,0.0,2.2808,0.0,0.0,0.0,0.0,0.0,0.0,0.0,0.0,0.0,0.0,0.0,0.0,0.0,3.3151,3.8829,4.5751,5.1919,5.2807,0.0,0.0,6.1943,6.1483,5.9929,5.6571,5.1679,4.6048,3.9787,0.0,0.0,2.7293,2.5812,2.5168,2.5594,0.0,0.0,0.0,0.0,3.4158,0.0,0.0,0.0,0.0,0.0,0.0,0.0,5.5867,5.6598,5.7154,5.7184,5.7214,5.7287,5.7214,5.6898,5.6312,5.6222,5.5893,5.5222,5.461,5.3922,5.3198,5.2576,5.1905,5.1206,5.1206,5.1117,5.0993,5.043,4.9803,4.9148,4.8544,4.7948,4.7399,4.7328,4.7309,4.7309,4.7309,4.7698,4.8218,0.0,0.0,0.0,0.0,0.0,0.0,2.2846,2.3231,2.4399,2.7578,2.6728,2.5848,2.5968,2.4801,2.3754,0.0,0.0,0.0,0.0,0.0,0.0,0.0,0.0,0.0,0.0,0.0,0.0,0.0,0.0,0.0,0.0,0.0,0.0,0.0,0.0,0.0,0.0,0.0,0.0,0.0,0.0,0.0,0.0,0.0,0.0,0.0,0.0,0.0,0.0,0.0,0.0,0.0,3.1616,3.7239,0.0,0.0,5.4239,5.762,6.0685,6.1013,5.9517,5.5484,5.0059,4.4097,3.7963,0.0,2.8106,2.6331,2.5092,2.4473,2.5025,2.5126,2.5862,2.8099,2.8718,0.0,3.6092,0.0,0.0,0.0,0.0,0.0,0.0,0.0,5.6312,5.6551,5.6551,5.6389,5.597,5.6329,5.6462,5.6222,5.5803,5.5461,5.5192,5.4551,5.3862,5.3198,5.2516,5.1846,5.1176,5.0775,5.017,4.9379,4.9164,4.8438,4.7453,4.7629,4.7549,4.7309,4.7309,4.7309,4.7309,4.7309,4.7489,4.7698,0.0,0.0,0.0,0.0,0.0,2.0342,2.2941,2.3495,2.4483,2.6986,2.6548,2.5818,2.5364,2.3784,2.2657,2.2428,0.0,0.0,0.0,0.0,0.0,0.0,0.0,0.0,0.0,0.0,0.0,2.361,2.3814,0.0,0.0,0.0,0.0,0.0,0.0,0.0,0.0,0.0,0.0,0.0,0.0,0.0,0.0,0.0,0.0,0.0,0.0,0.0,0.0,0.0,0.0,0.0,0.0,0.0,0.0,0.0,4.9879,5.3461,5.711,5.8075,5.7106,5.3264,4.7849,4.2019,0.0,0.0,2.6925,2.5636,2.4498,2.3838,2.4231,2.4307,2.4716,2.6013,2.6692,2.8691,3.3344,3.5709,0.0,0.0,0.0,4.9647,0.0,5.4726,5.5893,5.5893,5.5893,5.57,5.5222,5.5641,5.5803,5.5611,5.5162,5.479,5.4623,5.3952,5.3354,5.2887,5.2217,5.1666,5.1176,5.0715,4.9981,4.9083,4.8732,4.8044,4.7112,4.7236,4.7309,4.7309,4.7309,4.7309,4.7309,4.7309,4.7429,4.7608,0.0,0.0,0.0,0.0,0.0,0.0,2.2332,2.3231,2.4333,2.6345,2.5453,2.4634,2.4599,2.2273,2.0992,2.164,0.0,0.0,0.0,0.0,0.0,0.0,0.0,0.0,0.0,0.0,2.361,2.361,2.4246,2.4246,2.361,2.4281,0.0,0.0,0.0,0.0,0.0,0.0,0.0,0.0,0.0,0.0,0.0,0.0,0.0,0.0,0.0,0.0,0.0,0.0,0.0,0.0,0.0,0.0,0.0,0.0,4.347,4.9354,5.0727,5.1638,5.1648,4.9406,4.4651,3.9521,0.0,0.0,2.6825,2.5143,2.3898,2.312,2.312,2.312,2.3672,2.5335,2.6114,2.842,3.391,3.6882,0.0,0.0,0.0,4.7367,4.746,5.2162,5.5222,5.5222,5.5222,5.5222,5.5192,5.5222,5.491,5.4239,5.4209,5.3892,5.3228,5.2558,5.2217,5.2187,5.1517,5.1206,5.1206,5.1176,5.1176,5.1104,4.9834,4.9277,4.9176,4.7848,4.7309,4.7309,4.7309,4.7309,4.7309,4.7309,4.7728,4.8278,0.0,0.0,0.0,0.0,0.0,0.0,0.0,2.151,2.2173,2.3716,2.3166,2.2797,2.3256,2.1744,2.0783,2.0997,0.0,0.0,0.0,0.0,0.0,0.0,0.0,0.0,0.0,0.0,2.3814,2.4276,2.4509,2.446,2.4194,2.406,2.3263,0.0,0.0,0.0,0.0,0.0,0.0,0.0,0.0,0.0,0.0,0.0,0.0,0.0,0.0,0.0,0.0,0.0,0.0,0.0,0.0,0.0,0.0,2.8946,0.0,0.0,4.4664,4.5626,4.5342,4.3133,3.9266,3.5166,3.2064,0.0,2.577,2.4498,2.3637,2.3088,2.3088,2.3088,2.378,2.5887,2.6692,2.8487,0.0,0.0,0.0,4.2677,4.797,5.1345,0.0,0.0,5.4521,5.4521,5.494,5.4999,5.4551,5.4521,5.4418,5.4209,5.4209,5.3892,5.3228,5.2558,5.2187,5.2187,5.1517,5.1206,5.1176,5.0727,5.029,4.9834,4.9007,4.8368,4.7919,4.7489,4.7309,4.7309,4.7309,4.7309,4.7309,4.7309,4.7418,4.7608,0.0,0.0,0.0,0.0,0.0,0.0,0.0,2.0548,2.0997,2.1854,2.1575,2.158,2.2248,2.1131,2.0428,2.0693,0.0,0.0,0.0,0.0,0.0,0.0,0.0,0.0,0.0,2.361,2.4053,2.4969,2.5238,2.52,2.4891,2.4797,2.3622,2.1582,2.1265,0.0,0.0,0.0,0.0,0.0,0.0,0.0,1.755,0.0,0.0,0.0,0.0,0.0,0.0,0.0,0.0,0.0,0.0,0.0,0.0,0.0,2.8319,3.3247,0.0,3.9294,3.9456,3.7648,3.4907,0.0,0.0,0.0,2.5059,2.418,2.3529,2.3088,2.3088,2.335,2.4048,2.5602,0.0,0.0,0.0,0.0,0.0,0.0,0.0,0.0,0.0,5.3503,5.4299,5.4551,5.473,5.464,5.4209,5.3952,5.3713,5.3443,5.3443,5.3114,5.2456,5.2037,5.1816,5.1828,5.1397,5.1206,5.1176,5.0757,5.0219,4.9583,4.8966,4.8308,0.0,4.7399,4.7309,4.7309,4.7309,4.7309,4.7309,4.7309,4.7309,4.7309,0.0,0.0,0.0,0.0,0.0,0.0,0.0,0.0,2.0633,2.0633,2.0663,2.0907,2.1485,2.0444,1.9968,2.0576,0.0,0.0,0.0,0.0,0.0,0.0,0.0,0.0,0.0,2.3525,2.4178,2.5519,2.6189,2.6184,2.5558,2.6121,2.4693,2.1662,2.1609,0.0,0.0,0.0,0.0,0.0,0.0,0.0,0.0,0.0,0.0,0.0,0.0,0.0,0.0,0.0,0.0,0.0,0.0,0.0,0.0,0.0,0.0,0.0,0.0,3.2582,0.0,0.0,0.0,0.0,0.0,0.0,0.0,2.4046,2.3487,2.3113,2.3221,2.385,2.4562,0.0,0.0,0.0,0.0,0.0,0.0,0.0,4.8085,0.0,5.1004,5.2953,5.4371,5.494,5.4461,5.4119,5.4059,5.3486,5.2827,5.2157,5.2127,5.1828,5.1217,5.1206,5.1206,5.1206,5.1206,5.1206,5.1206,5.1146,5.0757,5.0088,4.9475,4.8858,4.8188,4.7549,4.7309,4.7309,4.7309,4.7309,4.7309,4.7309,4.7309,4.7309,0.0,0.0,0.0,0.0,0.0,0.0,0.0,0.0,0.0,0.0,2.0373,2.0548,2.0208,1.9984,1.9866,0.0,0.0,0.0,0.0,0.0,0.0,0.0,0.0,0.0,0.0,2.2662,2.355,2.4844,2.5357,2.5745,2.6043,2.5619,2.426,2.2122,2.1711,2.0654,0.0,0.0,0.0,0.0,0.0,0.0,0.0,0.0,0.0,0.0,1.8641,1.9181,0.0,0.0,0.0,0.0,0.0,0.0,0.0,0.0,2.1482,2.1664,2.3483,0.0,2.6331,2.5619,2.5494,2.5327,0.0,0.0,0.0,0.0,0.0,2.3371,2.4231,2.4732,2.5889,0.0,0.0,0.0,0.0,0.0,0.0,4.8959,5.1435,5.2263,5.0614,5.2235,5.3276,5.2935,5.3246,5.3216,5.2695,5.2516,5.2127,5.1457,5.1427,5.1367,5.1206,5.1206,5.1206,5.1206,5.1206,5.1206,5.1176,5.0656,5.011,4.9486,4.8828,4.8158,4.7519,4.7369,4.7309,4.7309,4.7309,4.7309,4.7309,4.7309,4.7309,4.7309,0.0,0.0,0.0,0.0,0.0,0.0,0.0,0.0,0.0,0.0,0.0,0.0,0.0,0.0,0.0,0.0,0.0,0.0,0.0,0.0,0.0,0.0,0.0,0.0,2.0957,2.1807,2.2889,2.4191,2.4687,2.5217,2.5718,2.5332,2.4005,2.1895,2.1091,2.0081,0.0,0.0,0.0,0.0,1.836,0.0,0.0,0.0,0.0,0.0,1.9072,1.9462,0.0,1.9811,1.9811,1.9868,0.0,0.0,0.0,0.0,2.0735,2.0408,2.0986,2.2537,2.3929,2.3587,2.3938,2.4264,0.0,0.0,0.0,0.0,0.0,0.0,2.515,0.0,0.0,0.0,0.0,0.0,0.0,0.0,0.0,5.1654,5.3042,5.3653,0.0,5.3521,5.3503,5.3144,5.2875,5.2576,5.2217,5.1606,5.1265,5.1206,5.0631,5.0601,5.1176,5.1206,5.1206,5.1206,5.1206,5.1026,5.0727,5.0357,4.971,4.8828,4.8457,4.7908,4.7309,4.7309,4.7309,4.7309,4.7309,4.7309,4.7309,4.7309,4.7309,4.7309,0.0,0.0,0.0,0.0,0.0,0.0,0.0,0.0,0.0,0.0,0.0,0.0,0.0,0.0,0.0,0.0,0.0,0.0,0.0,0.0,0.0,0.0,0.0,1.9854,2.0046,2.1054,2.2252,2.3677,2.428,2.4815,2.5313,2.538,2.4061,2.1575,2.0345,1.9547,0.0,0.0,0.0,0.0,1.8436,0.0,0.0,0.0,0.0,0.0,0.0,0.0,0.0,1.9811,1.9811,1.9811,1.9811,0.0,0.0,0.0,0.0,0.0,2.0641,2.2437,2.4029,2.3602,2.4097,2.4641,0.0,0.0,0.0,0.0,0.0,0.0,0.0,0.0,0.0,0.0,0.0,0.0,0.0,0.0,4.9853,5.388,5.3963,0.0,5.6112,5.4866,5.3843,5.3545,5.2622,5.1947,5.1768,5.0757,5.0416,5.0888,4.9875,4.9816,5.0888,5.0918,5.0948,5.1056,5.0948,5.0619,5.0069,4.9968,4.9333,4.8278,4.8188,4.7818,4.7309,4.7309,4.7309,4.7309,4.7309,4.7309,4.7309,4.7309,4.7309,4.7309,0.0,0.0,0.0,0.0,0.0,0.0,0.0,0.0,0.0,0.0,0.0,0.0,0.0,0.0,0.0,0.0,0.0,0.0,0.0,0.0,0.0,0.0,1.8912,1.93,1.9839,2.0565,2.1789,2.3543,2.442,2.5185,2.5891,2.6167,2.4834,2.2114,2.0507,1.9754,1.9685,0.0,0.0,0.0,0.0,0.0,0.0,0.0,0.0,0.0,0.0,0.0,0.0,1.9811,1.9811,1.9811,1.9811,0.0,0.0,0.0,0.0,0.0,2.108,2.3,2.4114,2.1791,2.2688,2.3871,0.0,0.0,0.0,0.0,0.0,0.0,0.0,0.0,0.0,0.0,0.0,4.4636,0.0,0.0,5.3611,5.488,0.0,5.5169,5.2843,5.2764,5.2193,5.0591,5.1021,5.087,4.9786,5.0021,5.0009,4.9606,4.9408,4.9378,4.9576,4.9576,4.9853,5.0357,4.9823,4.9546,4.9426,4.8846,4.8476,4.8278,4.7698,4.7399,4.7309,4.7309,4.7309,4.7309,4.7309,4.7309,4.7309,4.7309,4.7309,4.7309,0.0,0.0,0.0,0.0,0.0,0.0,0.0,0.0,0.0,0.0,0.0,0.0,0.0,0.0,0.0,0.0,0.0,0.0,0.0,0.0,0.0,1.9144,1.9061,1.9173,1.9519,2.1378,2.3128,2.4685,2.5761,2.6635,2.72,2.5648,2.3669,2.1382,2.0295,1.9811,1.9811,1.9811,0.0,0.0,0.0,0.0,0.0,0.0,0.0,0.0,0.0,0.0,0.0,0.0,1.9534,1.9286,1.9663,0.0,0.0,0.0,0.0,0.0,2.0836,2.2447,2.3579,2.2314,2.413,2.6013,0.0,0.0,0.0,0.0,0.0,0.0,0.0,0.0,0.0,0.0,0.0,4.7448,5.0278,5.1475,5.2631,0.0,0.0,5.4639,5.3712,5.2939,5.2034,5.0904,5.0336,4.9799,4.9344,4.9224,4.9194,4.9288,4.8588,4.8558,4.9288,4.8577,4.8716,4.9703,4.9426,4.9108,4.8738,4.8438,4.8098,4.7728,4.7418,4.7309,4.7309,4.7309,4.7309,4.7309,4.7309,4.7309,4.7309,4.7309,4.7309,4.7238,0.0,0.0,0.0,0.0,0.0,0.0,0.0,0.0,0.0,0.0,0.0,0.0,0.0,0.0,0.0,0.0,0.0,0.0,0.0,0.0,1.8618,1.9934,1.9712,1.9796,2.0329,2.2533,2.4506,2.6122,2.6987,2.7464,2.7496,2.482,2.253,2.0673,2.0068,1.9811,1.9811,1.9811,1.9811,0.0,0.0,0.0,0.0,0.0,0.0,0.0,0.0,0.0,0.0,0.0,0.0,0.0,0.0,0.0,0.0,2.0199,2.015,1.9968,2.0685,2.197,2.3138,2.3278,0.0,0.0,0.0,0.0,0.0,0.0,0.0,0.0,0.0,0.0,0.0,0.0,4.7687,4.9254,5.0697,5.0875,5.1662,5.3781,5.3679,5.369,5.4387,5.2991,5.173,5.0982,4.9725,4.8945,4.885,4.8498,4.8457,4.8828,4.7859,4.7788,4.8828,4.7818,4.7878,4.9067,4.8917,4.8558,4.8068,4.8068,4.7788,4.7309,4.7309,4.7209,4.7089,4.7249,4.713,4.686,4.6999,4.7059,4.7059,4.7059,4.7189,4.7209,0.0,0.0,0.0,0.0,0.0,0.0,0.0,0.0,0.0,0.0,0.0,0.0,0.0,0.0,0.0,0.0,0.0,0.0,0.0,0.0,1.8226,1.994,2.0605,2.1725,2.3352,2.3578,2.4914,2.7382,2.7261,2.6561,2.5289,2.4012,2.2434,2.0673,2.0068,1.9811,1.9811,1.9811,1.9811,1.9811,0.0,0.0,0.0,0.0,0.0,0.0,0.0,0.0,0.0,0.0,0.0,0.0,0.0,0.0,1.9746,1.9848,1.983,2.0037,2.1149,2.2257,2.3221,2.3803,0.0,0.0,0.0,0.0,0.0,0.0,0.0,0.0,0.0,0.0,4.2204,4.5722,4.8413,5.0757,5.2707,0.0,5.3284,5.4577,5.3618,5.2686,5.2269,5.1419,5.0265,4.8749,4.8857,4.8555,4.7502,4.7978,4.8038,4.7459,4.7369,4.7369,4.7429,4.7369,4.7668,4.8368,4.7728,4.7429,4.7358,4.7358,4.7369,4.7309,4.7309,4.6939,4.642,4.7029,4.6561,4.5514,4.6121,4.636,4.636,4.636,4.676,4.7209,0.0,0.0,0.0,0.0,0.0,0.0,0.0,0.0,0.0,0.0,0.0,0.0,0.0,0.0,0.0,0.0,0.0,0.0,0.0,0.0,1.8524,1.9884,2.028,2.1648,2.42,2.5898,2.7817,3.0002,2.9498,2.816,2.6001,2.4365,2.2575,2.0739,2.0079,1.9811,1.9811,1.9811,1.9811,1.9811,1.9811,0.0,0.0,0.0,0.0,0.0,0.0,0.0,0.0,0.0,1.9501,1.9208,1.965,1.9488,1.9221,1.9657,1.9811,1.9886,2.0345,2.173,2.3138,2.3379,0.0,0.0,0.0,0.0,0.0,0.0,0.0,0.0,0.0,0.0,4.5114,4.7219,4.9392,5.1236,5.2396,5.1816,5.1486,5.2096,5.1246,5.0455,5.0051,4.9081,4.8143,4.7284,4.7166,4.6838,4.6142,4.7095,4.7549,4.7298,4.7309,4.7309,4.7309,4.7309,4.7429,4.7668,4.7429,4.7309,4.7309,4.7309,4.7309,4.7279,4.685,4.654,4.63,4.6102,4.5753,4.5345,4.5574,4.5693,4.5693,4.5693,4.5843,4.5963,0.0,0.0,0.0,0.0,0.0,0.0,0.0,0.0,0.0,0.0,0.0,0.0,0.0,0.0,0.0,0.0,0.0,0.0,1.7417,1.7903,1.8621,1.962,2.0307,2.1811,2.429,2.6725,2.884,3.0584,2.9917,2.8251,2.5654,2.4333,2.2748,2.1058,2.0602,2.0276,2.0105,2.0105,1.9978,1.9811,1.9811,1.9811,0.0,0.0,0.0,0.0,0.0,0.0,0.0,0.0,1.9462,1.9131,1.9631,1.9456,1.9162,1.9644,1.9811,1.9811,1.9811,2.1185,2.2676,0.0,0.0,0.0,0.0,0.0,0.0,0.0,0.0,0.0,0.0,0.0,0.0,0.0,4.9475,5.084,5.1487,5.0016,4.9113,4.9664,4.8748,4.8086,4.8032,4.7154,4.6423,4.6021,4.5826,4.5633,4.5395,4.6399,4.6969,4.6969,4.677,4.677,4.6969,4.676,4.676,4.6969,4.677,4.677,4.6969,4.677,4.6681,4.6651,4.6191,4.5852,4.5642,4.5394,4.5195,4.4975,4.4766,4.4796,4.4975,4.4975,4.5125,4.5185,0.0,0.0,0.0,0.0,0.0,0.0,0.0,0.0,0.0,0.0,0.0,0.0,0.0,0.0,0.0,0.0,0.0,0.0,1.7392,1.7908,1.8473,1.9067,2.0885,2.2472,2.3751,2.5621,2.723,2.8577,2.7908,2.6273,2.371,2.371,2.2983,2.1722,2.171,2.1346,2.0795,2.0783,2.0409,1.9811,1.9811,1.9811,0.0,0.0,0.0,0.0,0.0,0.0,0.0,0.0,1.9786,1.9786,1.9811,1.9811,1.9811,1.9811,1.9811,1.9811,1.9811,2.0646,2.1769,0.0,0.0,0.0,0.0,0.0,0.0,0.0,0.0,0.0,0.0,0.0,0.0,4.685,4.8409,4.9475,5.0088,4.7831,4.6525,4.766,4.6427,4.5688,4.621,4.5773,4.5298,4.4884,4.4974,4.5147,4.5355,4.5953,4.629,4.63,4.5663,4.5633,4.629,4.5623,4.5623,4.6271,4.5603,4.5623,4.6271,4.5603,4.5315,4.5315,4.5285,4.4915,4.4366,4.5005,4.4885,4.4207,4.3569,4.3698,4.4307,4.4307,4.4696,4.5185,0.0,0.0,0.0,0.0,0.0,0.0,0.0,0.0,0.0,0.0,0.0,0.0,0.0,0.0,0.0,0.0,0.0,0.0,1.7417,1.8248,1.8833,1.9012,2.041,2.1563,2.2314,2.3787,2.5424,2.7177,2.7003,2.601,2.4313,2.3432,2.2781,2.2351,2.147,2.098,2.0764,2.0295,1.9965,1.9811,1.9811,1.9811,1.9811,0.0,0.0,0.0,0.0,0.0,0.0,0.0,0.0,0.0,1.9679,2.01,2.0358,1.9911,2.01,2.0333,1.9918,2.1178,0.0,0.0,0.0,0.0,0.0,0.0,0.0,0.0,0.0,4.5324,4.5892,0.0,0.0,4.5843,4.7021,4.8117,4.8775,4.7312,4.6264,4.6559,4.5369,4.4361,4.4004,4.3098,4.2333,4.184,4.1983,4.228,4.2781,4.3814,4.4763,4.5583,4.5394,4.5394,4.5593,4.5394,4.5394,4.5603,4.4915,4.4935,4.5603,4.5394,4.5315,4.5274,4.4796,4.4486,4.4277,4.3997,4.3788,4.3569,4.3389,4.3419,4.3599,4.3599,4.3718,4.3878,0.0,0.0,0.0,0.0,0.0,0.0,0.0,0.0,0.0,0.0,0.0,0.0,0.0,0.0,0.0,0.0,0.0,0.0,0.0,1.8261,1.8915,1.8741,2.0323,2.1484,2.2068,2.3155,2.4,2.4654,2.5199,2.4911,2.3844,2.3309,2.3054,2.3009,2.1997,2.1403,2.1119,2.0472,2.0029,1.9811,1.9811,1.9811,1.9811,0.0,0.0,0.0,0.0,0.0,0.0,0.0,0.0,0.0,1.9704,2.0043,2.0283,1.9918,1.9918,2.0043,2.0125,0.0,0.0,0.0,0.0,0.0,0.0,0.0,0.0,0.0,0.0,4.7681,4.8224,4.7354,0.0,4.7034,4.7219,4.7549,4.8218,4.6909,4.5967,4.613,4.4981,4.3998,4.3506,4.2034,4.085,4.0261,4.0574,4.0962,4.1327,4.2951,4.4181,4.4895,4.4417,4.4267,4.4486,4.3988,4.3878,4.4127,4.3459,4.3359,4.3758,4.4277,4.4516,4.4456,4.3808,4.3549,4.3509,4.312,4.307,4.33,4.33,4.33,4.33,4.33,4.33,4.324,0.0,0.0,0.0,0.0,0.0,0.0,0.0,0.0,0.0,0.0,0.0,0.0,0.0,0.0,0.0,0.0,0.0,0.0,0.0,0.0,1.8798,1.8466,2.0599,2.2068,2.2683,2.3253,2.289,2.1627,2.2958,2.331,2.2706,2.3253,2.3561,2.3583,2.2909,2.2271,2.1663,2.0984,2.0352,1.9811,1.9811,1.9811,1.9811,1.9811,0.0,0.0,0.0,0.0,0.0,0.0,0.0,0.0,1.9779,1.9811,1.9811,1.9811,1.9422,1.9265,2.0459,0.0,0.0,0.0,0.0,0.0,0.0,0.0,0.0,0.0,0.0,4.9933,5.119,4.9097,4.777,4.945,4.8376,4.7518,4.8049,4.6545,4.5566,4.5976,4.4959,4.4139,4.3958,4.1941,4.0321,3.9671,4.0146,4.0476,4.0586,4.2698,4.3926,4.4027,4.29,4.2531,4.303,4.1962,4.1682,4.2191,4.1643,4.1403,4.1433,4.2601,4.312,4.31,4.2541,4.2321,4.2321,4.2321,4.2621,4.312,4.318,4.321,4.321,4.327,4.33,4.312,0.0,0.0,0.0,0.0,0.0,0.0,0.0,0.0,0.0,0.0,0.0,0.0,0.0,0.0,0.0,0.0,0.0,0.0,0.0,0.0,1.8759,1.9607,2.1459,2.2563,2.2694,2.232,2.1759,2.0978,2.2278,2.284,2.2694,2.283,2.3143,2.3537,2.2409,2.1834,2.1639,2.0489,1.992,1.9811,1.9811,1.9811,1.9811,1.9811,1.9547,0.0,0.0,0.0,0.0,0.0,0.0,0.0,1.9679,1.9811,1.9811,1.9811,1.9422,1.934,0.0,2.2344,0.0,0.0,0.0,0.0,0.0,0.0,0.0,0.0,5.038,5.1072,5.134,5.0427,4.9518,4.9077,4.8286,4.7466,4.6817,4.593,4.5181,4.4828,4.4069,4.3206,4.2175,4.029,3.888,3.8206,3.7916,3.8141,3.9016,4.0042,4.1027,4.1993,4.1762,4.1424,4.1016,4.1274,4.1224,4.0825,4.1224,4.1403,4.1403,4.1663,4.1813,4.1813,4.1673,4.1622,4.1622,4.1622,4.1703,4.1873,4.2391,4.2601,4.2661,4.313,4.33,4.3071,0.0,0.0,0.0,0.0,0.0,0.0,0.0,0.0,0.0,0.0,0.0,0.0,0.0,0.0,0.0,0.0,0.0,0.0,0.0,0.0,1.847,1.9934,2.1736,2.2414,2.1785,2.1452,2.096,2.0314,2.0991,2.1629,2.2236,2.2896,2.3171,2.3155,2.2488,2.183,2.121,2.0226,1.9811,1.9811,1.9811,1.9811,1.9811,1.9811,1.9472,1.8958,1.8688,0.0,0.0,0.0,0.0,0.0,0.0,0.0,1.9077,1.9346,1.8851,1.86,0.0,0.0,0.0,0.0,0.0,0.0,0.0,0.0,0.0,5.081,5.1926,5.2824,5.2463,5.1717,5.0939,5.0365,4.929,4.8332,4.7798,4.71,4.6374,4.5572,4.5189,4.4305,4.2589,4.0494,3.8805,3.7826,3.7554,3.7853,3.8783,4.0298,4.1252,4.152,4.1243,4.054,3.9448,3.9478,3.932,3.8952,3.932,3.9658,3.9996,4.0954,4.1214,4.0915,4.0915,4.0915,4.0915,4.0915,4.1094,4.1433,4.1762,4.1922,4.1942,4.2282,4.2392,4.2098,0.0,0.0,0.0,0.0,0.0,0.0,0.0,0.0,0.0,0.0,0.0,0.0,0.0,0.0,0.0,0.0,0.0,0.0,0.0,0.0,0.0,1.9781,2.1582,2.198,2.0826,2.0795,2.0465,1.9811,1.9927,0.0,0.0,0.0,2.311,2.2666,2.2563,2.1869,2.0752,2.0074,1.9811,1.9811,1.9811,1.9811,1.9811,1.9811,1.9472,1.9002,1.9002,1.9002,1.8933,1.8393,0.0,0.0,0.0,0.0,1.8179,1.8707,1.8092,1.763,0.0,0.0,0.0,0.0,0.0,0.0,0.0,0.0,4.9937,5.1266,5.2941,5.3969,5.3236,5.2382,5.1728,5.1568,5.0199,4.9148,4.897,4.8031,4.7148,4.6598,4.6086,4.5112,4.3398,4.1116,3.917,3.7837,3.7955,3.8313,3.8821,4.1028,4.1943,4.1183,4.0642,3.9608,3.808,3.7644,3.7413,3.7445,3.7688,3.8088,3.8685,4.0218,4.0604,4.0038,3.9918,3.9948,4.0038,4.0038,4.0466,4.1074,4.1184,4.1224,4.1254,4.1373,4.1403,4.1107,0.0,0.0,0.0,0.0,0.0,0.0,0.0,0.0,0.0,0.0,0.0,0.0,0.0,0.0,0.0,0.0,0.0,0.0,1.5592,0.0,0.0,1.9201,2.0894,2.1502,2.0814,2.0795,2.0465,1.9811,2.0371,0.0,0.0,0.0,0.0,2.2594,0.0,2.14,2.0752,2.0074,1.9811,1.9811,1.9811,1.9811,1.9811,1.9811,1.9472,1.9002,0.0,1.9002,1.8933,1.8393,1.8562,0.0,0.0,0.0,1.7607,1.8148,1.752,1.7193,0.0,0.0,0.0,0.0,0.0,0.0,0.0,0.0,4.8976,0.0,5.0696,5.2394,5.1625,5.1374,5.0994,5.0154,4.9321,4.8474,4.7604,4.5687,4.4753,4.5734,4.3636,4.2215,4.251,4.0674,3.8903,3.7555,3.8118,3.83,3.7817,3.9346,3.9827,3.9052,3.8943,3.8188,3.6771,3.7195,3.7446,3.7587,3.8874,3.9541,3.9605,3.9183,3.8842,3.864,3.8054,3.8123,3.867,3.867,3.905,3.972,4.0307,4.0516,4.0606,4.1194,4.1403,4.1152,0.0,0.0,0.0,0.0,0.0,0.0,0.0,0.0,0.0,0.0,0.0,0.0,0.0,0.0,0.0,1.388,1.522,1.6088,1.6088,1.7985,1.8957,1.861,2.027,2.0687,1.9658,2.0035,1.9895,1.917,0.0,0.0,0.0,2.2438,2.2923,0.0,0.0,0.0,0.0,2.0633,2.0137,1.9811,1.9811,1.9629,1.939,1.9685,1.9277,1.8644,0.0,0.0,0.0,0.0,1.8148,1.8047,1.7839,0.0,0.0,0.0,1.7169,0.0,2.0938,0.0,0.0,0.0,0.0,0.0,4.4198,0.0,4.6984,4.668,4.7631,4.8852,4.9809,4.9958,4.9966,4.994,4.858,4.7298,4.6676,4.457,4.2919,4.2359,4.1682,4.0904,3.9912,3.924,3.8302,3.6985,3.7266,3.7537,3.7646,3.8703,3.8946,3.8111,3.8537,3.8044,3.6576,3.7257,3.7638,3.7721,3.8742,3.9243,3.9213,3.8411,3.8223,3.8476,3.7729,3.7793,3.8401,3.8401,3.8811,3.9421,3.972,3.9849,3.9879,4.0178,4.0277,4.0019,0.0,0.0,0.0,0.0,0.0,0.0,0.0,0.0,0.0,0.0,0.0,0.0,0.0,0.0,0.0,0.0,1.5321,1.633,1.6495,1.7989,1.8673,1.8222,1.9531,1.9773,1.8721,1.9052,1.9052,0.0,0.0,0.0,2.3131,2.3122,2.4278,0.0,2.5683,0.0,0.0,0.0,0.0,1.9786,1.9654,1.9371,1.9033,0.0,0.0,1.8518,1.9302,0.0,0.0,0.0,0.0,0.0,0.0,0.0,0.0,0.0,0.0,0.0,0.0,0.0,2.6796,3.2634,3.5661,3.8274,0.0,0.0,4.4518,0.0,4.476,4.5264,4.6997,4.7759,4.8395,4.9078,4.735,4.5685,4.5013,4.2634,4.0417,3.8948,3.8947,3.8702,3.7688,3.7714,3.7419,3.6567,3.6731,3.6948,3.7142,3.8076,3.8175,3.7204,3.8091,3.7955,3.66,3.7587,3.8069,3.8101,3.8789,3.9134,3.9098,3.8088,3.7919,3.8332,3.7356,3.7315,3.793,3.793,3.8302,3.8883,3.8883,3.8883,3.8883,3.8883,3.8883,3.8725,0.0,0.0,0.0,0.0,0.0,0.0,0.0,0.0,0.0,0.0,0.0,0.0,1.4766,1.4726,1.4485,1.3857,1.4932,1.5886,1.6468,1.7605,1.8233,1.8198,1.8596,0.0,1.8701,1.8056,1.8043,0.0,0.0,0.0,2.4588,2.4598,2.5983,2.833,2.5729,2.3188,2.0887,0.0,0.0,0.0,0.0,0.0,0.0,0.0,0.0,0.0,0.0,0.0,0.0,0.0,0.0,0.0,0.0,0.0,0.0,0.0,0.0,0.0,0.0,2.202,0.0,2.8372,0.0,0.0,0.0,0.0,4.1641,4.2325,4.2461,4.2515,4.2645,4.4418,4.6046,4.6604,4.5213,4.3462,4.1868,3.869,3.6512,3.6493,3.4615,3.4306,3.679,3.6481,3.6216,3.6486,3.7159,3.7018,3.5778,3.7082,3.7211,3.5738,3.7104,3.7467,3.66,3.8086,3.884,3.8847,3.9644,4.0033,3.9988,3.8472,3.7806,3.775,3.6263,3.5968,3.6613,3.6613,3.6964,3.7516,3.7516,3.7516,3.7516,3.7516,3.7516,3.7477,0.0,0.0,0.0,0.0,0.0,0.0,0.0,0.0,0.0,0.0,0.0,0.0,0.0,1.5616,1.5605,1.5005,1.5705,1.6232,1.6368,1.7073,1.7452,1.7298,1.7742,1.7777,1.7295,1.7488,0.0,0.0,0.0,2.0357,2.2843,2.3227,2.4153,2.5454,2.5285,2.4266,2.2626,2.2003,0.0,0.0,0.0,0.0,0.0,0.0,0.0,0.0,0.0,0.0,0.0,0.0,0.0,0.0,0.0,0.0,0.0,0.0,0.0,0.0,0.0,0.0,0.0,2.6177,2.921,3.2141,3.448,3.6744,3.8442,3.8713,3.9525,4.0293,4.0631,4.2236,4.3584,4.3767,4.1288,3.8618,3.6494,3.3799,3.1742,3.0991,3.1488,3.2622,3.4511,3.5094,3.5233,3.4914,3.5353,3.5151,3.4063,3.4645,3.4796,3.4273,3.5638,3.6704,3.7359,3.84,3.8901,3.8901,3.8697,3.888,3.9282,3.7714,3.7024,3.6964,3.5957,3.5878,3.6493,3.6493,3.6874,3.7396,3.7396,3.7396,3.7396,3.7396,3.7396,3.7336,0.0,0.0,0.0,0.0,0.0,0.0,0.0,0.0,0.0,0.0,0.0,0.0,0.0,0.0,1.641,1.6219,1.6578,1.6849,1.6941,1.7206,1.7316,1.7188,1.7201,1.701,1.6503,1.6751,0.0,0.0,0.0,0.0,0.0,2.1986,2.2653,2.3733,2.4099,2.3825,0.0,0.0,0.0,1.9736,0.0,0.0,1.8443,0.0,0.0,0.0,0.0,0.0,0.0,0.0,0.0,0.0,0.0,0.0,0.0,0.0,0.0,0.0,1.9362,0.0,0.0,0.0,0.0,2.8318,3.1016,3.3411,3.5346,3.6214,3.7387,3.8379,3.8741,3.9715,4.0655,4.1253,3.8268,3.49,3.2012,2.9604,2.7729,2.665,2.8095,3.0075,3.2317,3.2903,3.3213,3.3366,3.3597,3.3355,3.2511,3.3117,3.3622,3.3879,3.4799,3.599,3.7445,3.7959,3.8291,3.8525,3.8019,3.8048,3.849,3.7203,3.6592,3.6546,3.5822,3.5759,3.6156,3.6156,3.6387,3.6768,3.6768,3.6768,3.6768,3.6768,3.6768,3.6708,0.0,0.0,0.0,0.0,0.0,0.0,0.0,0.0,0.0,1.6505,0.0,0.0,0.0,0.0,0.0,1.7367,1.7417,1.7626,1.8168,1.7981,1.7853,1.7858,1.6971,1.6461,1.6461,0.0,0.0,0.0,0.0,0.0,0.0,0.0,2.1799,2.3565,2.2271,2.1671,2.1687,0.0,2.1529,1.971,0.0,1.8518,1.8933,0.0,0.0,0.0,1.8958,1.8958,0.0,0.0,0.0,0.0,0.0,0.0,0.0,0.0,0.0,0.0,0.0,0.0,0.0,0.0,0.0,0.0,2.8297,0.0,3.2345,3.4902,3.6079,3.6659,3.6679,3.664,3.7201,3.8914,3.6238,3.2583,2.8719,2.6306,2.464,2.3866,2.4512,2.655,3.0424,3.0024,3.0228,3.2007,3.2136,3.1803,3.1109,3.2519,3.3728,3.4585,3.4636,3.529,3.6677,3.6737,3.7068,3.7739,3.7717,3.7717,3.7749,3.6926,3.6554,3.6546,3.5814,3.5511,3.5511,3.5511,3.5511,3.5511,3.5511,3.5511,3.5511,3.5511,3.5511,3.5511,0.0,0.0,0.0,0.0,0.0,0.0,0.0,0.0,0.0,0.0,0.0,0.0,0.0,1.678,1.7381,1.7934,1.7984,1.7971,1.7992,1.743,1.7037,1.6883,1.6136,1.5708,1.5708,0.0,0.0,0.0,0.0,1.8528,2.0354,2.0663,0.0,0.0,2.1678,2.1232,2.0478,2.0684,0.0,0.0,1.8625,1.8518,0.0,0.0,0.0,0.0,0.0,1.8078,0.0,0.0,1.7392,1.7457,0.0,0.0,0.0,0.0,0.0,0.0,1.9373,0.0,0.0,0.0,0.0,0.0,0.0,0.0,2.9586,3.0805,3.2068,3.3117,3.3598,3.2989,3.2313,3.2158,3.0832,2.8699,2.5499,2.3723,2.2912,2.3311,2.4725,2.7,3.0452,3.0145,2.9945,3.0543,3.0195,2.9402,2.8159,2.9171,3.0585,3.2324,3.2957,3.364,3.4415,3.4997,3.5577,3.6183,3.5676,3.5953,3.6896,3.6164,3.5806,3.579,3.5587,3.5511,3.5511,3.5511,3.5511,3.5511,3.5511,3.5511,3.5511,3.5511,3.5511,3.5511,0.0,0.0,0.0,0.0,0.0,0.0,0.0,0.0,0.0,0.0,0.0,0.0,1.7188,1.7526,1.7953,1.8493,1.8537,1.8456,1.8258,1.7547,1.6948,1.6525,1.5801,1.5396,1.5396,1.5396,1.6126,0.0,1.7605,1.836,1.9817,2.0194,0.0,0.0,0.0,0.0,0.0,0.0,0.0,0.0,1.8549,0.0,0.0,1.8631,1.8392,0.0,0.0,0.0,1.8393,1.7375,1.7349,0.0,0.0,0.0,0.0,0.0,0.0,0.0,0.0,0.0,0.0,0.0,0.0,0.0,2.2837,2.4554,2.6258,0.0,2.862,2.9584,2.9972,2.9309,2.8312,2.7109,2.5814,2.4393,2.2805,2.2146,2.2029,2.2625,2.4225,2.6444,2.9477,2.88,2.8351,2.8805,2.8212,2.7608,2.7097,2.7899,2.9065,3.0579,3.1369,3.2198,3.3066,3.3552,3.4246,3.5141,3.4701,3.5078,3.6118,3.5716,3.5511,3.5511,3.5511,3.5511,3.5511,3.5511,3.5511,3.5511,3.5511,3.5511,3.5511,3.5511,3.5511,3.5511,0.0,0.0,0.0,0.0,0.0,0.0,0.0,0.0,0.0,0.0,1.713,1.7682,1.8223,1.8298,1.8487,1.9033,1.9083,1.9,1.8837,1.8063,1.7309,1.6652,1.5845,1.5396,1.5396,1.5396,1.6083,1.7482,1.7564,1.832,1.967,0.0,0.0,0.0,0.0,0.0,0.0,0.0,0.0,1.8882,1.8393,1.8826,0.0,0.0,1.9704,0.0,1.9164,1.9002,1.8769,1.7297,1.7581,0.0,0.0,0.0,0.0,0.0,2.1395,0.0,0.0,0.0,0.0,0.0,0.0,0.0,2.186,2.2392,2.3035,2.4652,2.5554,2.6044,2.6059,2.5635,2.4815,2.3434,2.1498,2.0288,2.0713,2.115,2.1533,2.1908,2.3358,2.5291,2.784,2.67,2.6157,2.6934,2.6142,2.5982,2.6776,2.7433,2.8226,2.916,2.9885,3.0915,3.2273,3.2362,3.3028,3.4286,3.4346,3.4727,3.54,3.5459,3.5511,3.5511,3.5421,3.5373,3.5343,3.5253,3.534,3.5511,3.5511,3.5511,3.5511,3.5511,3.5511,3.5511,0.0,0.0,0.0,0.0,0.0,0.0,0.0,0.0,0.0,1.7211,1.7702,1.8248,0.0,0.0,1.9064,1.9604,1.9629,1.9621,1.9592,1.8347,1.7537,1.7392,1.6112,1.5396,1.5396,1.5396,1.5817,1.6715,1.7309,1.8056,1.8927,0.0,0.0,0.0,0.0,0.0,0.0,0.0,0.0,1.8349,1.8248,0.0,1.9754,1.9315,1.9158,1.9133,1.9033,1.9002,1.8962,0.0,1.9385,2.0556,0.0,0.0,0.0,0.0,0.0,0.0,0.0,0.0,0.0,0.0,0.0,0.0,2.1075,2.1757,2.2446,2.242,2.2544,2.2671,2.2734,2.1903,2.1119,2.082,1.9576,1.8937,1.9805,1.9737,2.0103,2.1445,2.2872,2.453,2.6505,2.5883,2.5448,2.5722,2.3874,2.3048,2.379,2.3975,2.5222,2.7799,2.8485,2.9479,3.0874,3.1428,3.2086,3.2908,3.3432,3.4039,3.4697,3.525,3.5511,3.5459,3.4929,3.4556,3.4266,3.3765,3.434,3.5511,3.5511,3.5511,3.5511,3.5511,3.5511,3.5511,0.0,0.0,0.0,0.0,0.0,0.0,0.0,0.0,1.7808,1.7808,1.8273,1.892,0.0,0.0,0.0,0.0,2.0251,2.0081,1.9729,1.8589,1.7802,1.7505,1.656,1.5837,1.5415,1.5632,1.6,1.6496,1.6877,1.7433,1.8165,0.0,0.0,0.0,0.0,0.0,0.0,0.0,1.8826,1.8587,1.8587,0.0,1.9397,1.9397,1.9397,1.9365,1.9108,1.8832,1.8747,1.963,2.0595,0.0,0.0,2.3641,2.4472,0.0,2.3406,2.3027,0.0,0.0,0.0,2.17,0.0,0.0,0.0,2.0713,2.0592,2.0349,2.0077,1.9988,2.0294,1.9448,1.8704,1.8667,1.7583,1.6918,1.7385,1.811,1.9073,2.0338,2.178,2.3388,2.5267,2.4508,2.3521,2.2571,2.1516,2.1144,2.1656,2.2539,2.4218,2.6877,2.7602,2.8636,3.0043,3.0687,3.1338,3.2026,3.2669,3.3335,3.4009,3.4697,3.4989,3.4965,3.4469,3.4155,3.3933,3.2888,3.3176,3.4324,3.4617,3.486,3.5048,3.537,3.5511,3.5511,0.0,0.0,0.0,0.0,0.0,0.0,0.0,0.0,1.8399,1.8499,1.9001,0.0,0.0,0.0,0.0,0.0,0.0,2.0449,0.0,0.0,0.0,1.7628,1.6948,1.6215,1.5422,1.5777,1.6073,1.6283,1.6425,1.6807,1.7392,1.753,0.0,0.0,0.0,0.0,0.0,0.0,0.0,1.9008,0.0,1.9158,1.9208,1.9635,1.9811,1.9729,1.9315,1.8895,1.8759,2.0389,0.0,2.2247,2.3474,2.4746,0.0,0.0,0.0,0.0,0.0,0.0,0.0,0.0,0.0,2.1337,0.0,0.0,0.0,1.8988,1.8422,1.8057,1.8393,1.7739,1.7088,1.6927,1.5928,1.5119,1.4957,1.6285,1.775,1.9046,2.0469,2.2026,2.3733,2.2564,2.0877,1.883,1.9005,1.9332,1.9643,2.1303,2.3339,2.5739,2.6672,2.7767,2.9173,2.9951,3.0665,3.1308,3.1996,3.2729,3.3514,3.4188,3.4555,3.465,3.3964,3.3623,3.346,3.1843,3.1693,3.2531,3.3324,3.3916,3.4368,3.4929,3.519,3.528,1.6505,1.6923,0.0,0.0,1.8148,0.0,0.0,0.0,1.9089,1.956,2.0125,0.0,0.0,0.0,0.0,0.0,0.0,0.0,2.2583,0.0,0.0,0.0,1.6967,0.0,1.5415,1.5442,1.5498,1.5526,1.6176,1.6539,1.6638,1.7288,0.0,0.0,1.8357,0.0,0.0,0.0,1.944,0.0,1.9528,1.9704,0.0,1.9786,1.9811,1.9786,1.9729,1.9679,1.9813,0.0,2.2012,2.2816,0.0,2.5378,2.6339,0.0,0.0,0.0,0.0,0.0,0.0,0.0,2.3425,0.0,0.0,0.0,2.0366,1.9306,0.0,1.7266,1.684,0.0,0.0,1.5858,1.521,1.459,1.4034,1.4157,1.5225,1.7777,1.9282,2.0414,2.1244,1.9631,1.7637,1.5506,1.6194,1.6797,1.7023,1.8624,2.084,2.3657,2.5039,2.6375,2.7733,2.9035,3.0027,3.0635,3.1301,3.2273,3.3514,3.4188,3.4817,3.5269,3.3284,3.2264,3.1882,2.9748,2.9383,3.031,3.1829,3.2894,3.3612,3.3694,3.4091,3.4526,1.7002,1.6948,0.0,0.0,1.8028,1.8562,1.8638,1.9434,2.0075,2.0276,2.081,0.0,0.0,0.0,0.0,0.0,0.0,2.163,0.0,0.0,0.0,0.0,0.0,0.0,0.0,1.5823,1.5671,1.5396,1.5715,1.5866,1.5881,1.6183,0.0,0.0,1.7628,0.0,1.841,0.0,1.9679,0.0,0.0,0.0,0.0,1.9811,1.9811,1.9811,1.9811,1.9811,1.9881,0.0,2.1773,0.0,0.0,0.0,0.0,0.0,0.0,0.0,0.0,0.0,0.0,0.0,0.0,0.0,2.1181,0.0,1.9581,0.0,0.0,0.0,0.0,0.0,0.0,0.0,1.4572,1.3962,1.337,1.3582,1.4479,1.6284,1.7302,1.7953,1.8156,1.6692,1.494,1.2972,1.3474,1.4382,1.5556,1.7399,1.998,2.3413,2.4434,2.5588,2.6956,2.8356,2.9152,2.9415,3.0418,3.1203,3.1809,3.2856,3.3477,3.3669,3.209,3.1313,3.1068,2.9238,2.901,2.9886,3.0755,3.184,3.2976,3.3365,3.3672,3.3889,0.0,0.0,0.0,0.0,0.0,0.0,0.0,0.0,0.0,0.0,0.0,0.0,2.3228,2.3354,0.0,0.0,0.0,2.2892,0.0,0.0,1.9757,0.0,0.0,0.0,0.0,0.0,1.5862,1.5396,1.5606,1.5606,1.5396,1.5613,1.5822,0.0,0.0,1.785,1.8333,0.0,0.0,1.9811,1.9811,1.9811,1.9811,1.9811,1.9811,1.9811,1.9811,1.9811,1.9836,1.9993,2.166,0.0,2.3877,0.0,0.0,0.0,0.0,0.0,2.5988,0.0,0.0,0.0,0.0,0.0,0.0,0.0,0.0,0.0,0.0,0.0,0.0,0.0,1.5757,1.5038,0.0,1.3727,1.3,1.328,1.4034,1.5339,1.5876,1.5952,1.5521,1.408,1.2486,1.0852,1.1481,1.2616,1.4183,1.6415,1.9319,2.2986,2.386,2.4914,2.6251,2.7427,2.8116,2.83,2.9233,2.9983,3.0515,3.1502,3.2153,3.2437,3.1214,3.0654,3.0533,2.9001,2.8782,2.9441,2.9846,3.08,3.2033,3.2699,3.3066,3.3215,1.7781,1.7282,0.0,0.0,0.0,0.0,0.0,0.0,0.0,0.0,0.0,0.0,0.0,0.0,0.0,0.0,0.0,2.4381,2.5418,0.0,2.1156,0.0,0.0,1.7912,0.0,0.0,0.0,1.5396,1.6112,1.609,1.5417,1.6139,1.6475,0.0,0.0,1.7993,1.8731,1.9488,1.9811,1.9811,1.9811,1.9811,1.9811,0.0,1.9811,1.9811,1.9811,0.0,0.0,2.0459,2.2029,2.3785,0.0,0.0,0.0,0.0,0.0,0.0,0.0,0.0,0.0,2.3113,0.0,0.0,0.0,0.0,2.059,0.0,0.0,0.0,1.8273,1.7557,1.6702,1.5644,1.4854,0.0,0.0,1.2927,1.3582,1.5294,1.5471,0.0,1.3804,1.1945,1.034,0.9165,1.0592,1.1858,1.2636,1.5436,1.8512,2.1756,2.306,2.4294,2.5425,2.6182,2.6888,2.7528,2.7586,2.8626,3.0485,3.0545,3.1263,3.2408,3.0935,3.0319,3.0193,2.8641,2.8146,2.8419,2.9066,2.9841,3.0635,3.1308,3.1959,3.2452,0.0,0.0,0.0,0.0,0.0,0.0,0.0,2.1525,0.0,0.0,0.0,0.0,0.0,0.0,2.6482,0.0,0.0,2.5636,2.5594,2.3596,0.0,0.0,0.0,1.8247,0.0,0.0,0.0,1.5396,0.0,1.565,1.5403,1.5664,0.0,0.0,0.0,1.8015,0.0,0.0,0.0,0.0,0.0,2.0043,2.0358,0.0,1.9811,1.9811,1.9811,1.9811,1.9836,2.005,2.1374,2.3088,2.3749,2.5322,2.6857,2.6857,2.6709,2.6383,2.5906,0.0,2.4425,2.3386,0.0,0.0,0.0,0.0,0.0,0.0,0.0,0.0,0.0,0.0,1.5907,1.5562,1.4318,1.3297,0.0,1.3238,1.357,0.0,0.0,0.0,0.0,1.0542,0.9033,0.8207,0.9282,1.071,1.2376,1.483,1.7563,2.053,2.216,2.3362,2.419,2.5248,2.6119,2.6855,2.7285,2.8101,2.9265,2.9691,3.014,3.0547,2.9915,2.9628,2.9605,2.9079,2.8917,2.9037,2.981,3.0261,3.0575,3.1241,3.163,3.1817,1.8883,0.0,0.0,0.0,0.0,0.0,0.0,0.0,0.0,0.0,2.5276,0.0,2.716,0.0,2.7654,0.0,2.7386,2.6658,2.5661,2.4419,0.0,2.2585,2.0777,0.0,0.0,0.0,0.0,0.0,0.0,1.6054,1.5801,0.0,0.0,0.0,0.0,1.7763,1.8728,0.0,1.956,0.0,0.0,2.0043,0.0,0.0,1.9936,2.01,0.0,1.9811,1.9811,1.9811,2.1042,2.2678,2.3166,2.461,2.6109,2.6109,2.5926,2.5619,2.5147,2.4452,2.3727,2.3138,2.2397,0.0,2.0874,0.0,2.0653,0.0,0.0,0.0,0.0,0.0,0.0,1.6066,1.4658,1.3476,0.0,1.3461,0.0,0.0,0.0,0.0,0.0,0.0,0.8554,0.8122,0.9132,0.0,1.242,1.4541,1.7036,1.9948,2.155,2.2724,2.3512,2.4531,2.5259,2.5735,2.6417,2.7157,2.7889,2.8568,2.9016,2.9245,2.9103,2.9054,2.9054,2.9054,2.8761,2.8374,2.9127,2.9558,2.9918,3.1066,3.1503,3.1503,0.0,0.0,0.0,0.0,2.0432,0.0,0.0,0.0,2.5017,0.0,2.6214,2.6792,2.7361,2.7871,2.8389,2.8897,2.848,0.0,2.5837,2.5686,0.0,0.0,2.2131,2.1471,2.0466,1.9054,0.0,0.0,0.0,0.0,0.0,0.0,0.0,0.0,1.6517,0.0,1.8648,1.8721,1.9168,1.9811,1.9811,1.9811,1.9836,1.9811,2.0169,2.0623,2.0018,1.9811,1.9811,1.9811,2.101,2.2538,2.2584,2.3872,2.5363,2.5363,2.4858,2.4279,2.4243,2.3684,2.297,2.2483,2.2314,2.2038,0.0,0.0,2.1199,0.0,0.0,0.0,0.0,0.0,0.0,1.7056,1.573,1.4479,1.3646,0.0,0.0,0.0,0.0,0.0,0.0,0.0,0.0,0.8798,1.0038,0.0,0.0,1.4474,1.6872,1.9904,2.1181,2.2272,2.3301,2.3947,2.4252,2.4267,2.5001,2.5741,2.6493,2.7238,2.7938,2.8547,2.8577,2.8607,2.8607,2.8568,2.7751,2.6611,2.7216,2.7877,2.8697,3.0752,3.1503,3.1503,1.9514,2.0055,2.0456,0.0,2.0954,2.1985,0.0,0.0,0.0,0.0,2.7595,2.8056,2.906,2.9286,2.9428,2.9553,2.9453,0.0,0.0,0.0,0.0,2.4808,2.3304,2.2027,2.1014,1.9617,0.0,1.6786,0.0,0.0,1.5686,0.0,0.0,0.0,0.0,0.0,1.7961,1.9045,1.9618,1.9811,1.9811,2.0068,2.0408,0.0,2.0169,2.0623,2.0018,1.9811,1.9811,1.9811,2.0672,2.1884,2.2443,2.3509,2.4581,2.4581,2.4445,2.4156,2.3573,2.3253,2.307,2.292,2.2601,2.2239,2.1938,2.1676,0.0,0.0,0.0,0.0,0.0,0.0,0.0,0.0,0.0,0.0,0.0,0.0,0.0,1.2631,0.0,0.0,0.0,0.0,0.8798,0.8798,1.0038,1.1369,1.2626,1.4474,1.6491,1.8629,1.975,2.0868,2.1977,2.2165,2.272,2.364,2.4375,2.5155,2.5943,2.7092,2.7675,2.7878,2.8368,2.8607,2.8568,2.8004,2.7564,2.7202,2.682,2.7691,2.9334,3.0908,3.1503,3.1503,2.0091,0.0,0.0,2.2117,0.0,0.0,2.4205,0.0,0.0,2.7921,2.8304,0.0,2.9343,2.9628,2.9814,2.9814,2.9553,0.0,2.7821,0.0,0.0,2.5644,2.4098,2.2887,2.2063,2.0239,0.0,1.778,0.0,0.0,1.6177,0.0,0.0,0.0,0.0,1.7295,1.7702,1.9181,1.9936,2.0175,1.9918,1.9987,0.0,1.9943,2.0018,2.0257,1.9911,1.9811,1.9811,1.9811,2.0571,2.1577,2.1975,2.2886,2.3787,2.3787,2.3787,2.3735,2.3533,2.3303,2.3163,2.3436,2.3085,2.2576,2.2357,2.1902,2.1425,2.1187,2.071,2.0215,1.9885,0.0,0.0,0.0,0.0,0.0,0.0,0.0,0.0,0.0,1.081,0.0,0.0,0.0,0.8918,0.8811,1.0038,1.1369,1.2626,1.4474,1.6342,1.8131,1.9825,2.0977,2.1534,2.2136,2.2594,2.2985,2.402,2.4751,2.5217,2.6847,2.7591,2.7615,2.7998,2.8164,2.8139,2.7702,2.7358,2.7046,2.6833,2.7244,2.8156,2.9803,3.0866,3.1503,0.0,0.0,0.0,0.0,0.0,0.0,0.0,2.654,0.0,2.8348,0.0,2.9123,2.9123,2.9528,2.9814,2.9814,0.0,2.848,2.7462,2.7336,2.6783,2.5644,2.4632,2.377,2.302,2.0832,0.0,0.0,0.0,0.0,1.7121,1.6021,0.0,0.0,0.0,0.0,0.0,1.9227,2.0094,2.0541,2.0018,1.9811,1.9811,1.9811,1.9811,1.9811,1.9811,1.9811,1.9811,1.9886,2.0621,2.15,2.1575,2.2282,2.3088,2.3088,2.3088,2.3213,2.3745,2.3512,2.3221,2.3745,2.3487,2.297,2.2508,2.1945,2.1354,2.0877,2.0162,1.9455,1.8803,0.0,0.0,0.0,0.0,0.0,0.0,0.0,0.0,0.0,0.0,0.0,0.8944,0.9031,0.9044,0.8824,0.9955,1.1238,1.2508,1.4287,1.6119,1.8012,2.0314,2.1552,2.1595,2.2674,2.2906,2.2301,2.3627,2.4304,2.4475,2.6521,2.7531,2.7591,2.7591,2.7591,2.7578,2.749,2.6954,2.6249,2.662,2.6461,2.6198,2.7958,2.9616,3.0975,0.0,0.0,0.0,0.0,0.0,2.751,2.751,2.8154,2.8982,3.002,3.0236,3.0312,3.0312,3.0005,2.9814,2.9814,2.9258,0.0,0.0,0.0,0.0,2.5644,2.5,2.3963,2.2483,2.101,1.9681,0.0,0.0,0.0,1.6782,1.6229,0.0,0.0,0.0,0.0,1.8561,1.943,0.0,1.9943,1.9836,1.9811,1.9811,1.9811,1.9811,1.9811,1.9811,1.9811,1.9893,2.0383,2.0961,2.1575,2.2013,2.2601,2.3088,2.3088,2.3088,2.3113,2.3221,2.317,2.312,2.3221,2.317,2.307,2.297,2.2207,2.1439,2.117,1.9944,1.8824,1.8572,1.7531,0.0,0.0,0.0,0.0,0.0,0.0,0.0,0.0,0.0,1.0227,0.0,0.0,0.8844,0.8798,0.9523,1.0531,1.181,1.3231,1.5048,1.7294,1.8812,2.0208,2.1491,2.1373,2.1407,2.167,2.2572,2.3305,2.3907,2.5883,2.7069,2.7591,2.7591,2.7591,2.7541,2.6951,2.5912,2.469,2.4605,2.4891,2.5455,2.6302,2.7197,2.8124,0.0,0.0,0.0,0.0,0.0,0.0,0.0,2.9609,2.9885,3.0156,3.0181,3.0071,2.976,2.9779,2.9814,2.9814,2.9258,2.8671,2.8147,2.7604,2.6934,2.6114,2.5251,0.0,2.2751,2.1026,1.9634,1.8614,0.0,0.0,1.7043,1.6621,0.0,1.6103,0.0,1.7281,0.0,0.0,1.9418,1.9691,1.9769,1.9811,1.9811,1.9811,1.9811,1.9811,1.9811,1.9811,1.9836,2.0125,2.0804,2.1557,2.1794,2.2433,2.3088,2.3088,2.3088,2.317,2.3487,2.3328,2.3072,2.2931,2.2683,2.2349,2.19,2.1168,2.0538,2.0433,1.9561,1.867,1.8232,1.7129,1.6179,0.0,0.0,0.0,0.0,0.0,0.0,0.0,0.0,0.0,0.0,0.0,0.0,0.0,0.0,1.0368,1.1637,1.2943,1.4609,1.6721,1.859,1.9927,2.0713,2.1117,2.1255,2.1159,2.1877,2.2564,2.3185,2.5226,2.6457,2.7061,2.7427,2.7591,2.7534,2.6785,2.5865,2.4848,2.4648,2.4571,2.4645,2.523,2.5496,2.58,0.0,2.5444,0.0,0.0,2.7946,0.0,3.0221,3.0623,3.0648,3.0357,3.0105,2.9804,2.9299,2.9569,2.9814,2.9814,2.9258,2.8671,2.8147,2.7604,2.701,2.6348,2.5335,2.4178,2.2871,2.0903,1.9542,0.0,0.0,0.0,1.7508,1.7054,1.6582,0.0,0.0,0.0,1.8258,1.8799,1.9278,1.974,1.9911,1.9993,1.9993,1.9836,1.9811,1.9811,1.9811,1.9886,1.9993,1.9993,2.0671,2.1525,2.1769,2.2433,2.3088,2.3088,2.3088,2.3188,2.367,2.3454,2.3006,2.2639,2.221,2.1675,2.0798,2.0124,1.9666,1.9495,1.8914,1.8254,1.767,1.6763,1.6093,0.0,0.0,0.0,0.0,0.0,0.0,0.0,0.0,0.0,1.1361,0.0,0.0,0.0,0.0,1.0189,1.158,1.2733,1.432,1.6456,1.8628,1.9865,2.0142,2.1108,2.133,2.0793,2.133,2.1955,2.2664,2.4451,2.5698,2.6551,2.7273,2.7661,2.7731,2.6844,2.6052,2.5342,2.4861,2.4399,2.4029,2.434,2.4315,2.4376,0.0,0.0,0.0,0.0,0.0,0.0,2.9864,3.0693,3.1486,3.1928,3.1125,3.0487,3.0437,3.0055,2.9814,2.9814,2.9258,2.8671,2.8147,2.7604,2.6834,2.572,2.5126,2.3931,2.2049,2.0619,1.9456,0.0,0.0,1.7547,1.7941,1.7528,1.6891,1.6142,1.7205,1.755,1.7429,1.9278,2.0086,2.0165,2.0491,2.0623,2.0572,2.0018,1.9811,1.9811,1.9811,2.015,2.0623,2.0623,2.1018,2.1676,2.2651,2.302,2.3088,2.3088,2.3088,2.312,2.317,2.3138,2.2931,2.2166,2.1948,2.1675,2.0798,2.0124,1.9511,1.8842,1.7741,1.6876,1.6813,1.6421,1.6093,1.6093,0.0,0.0,0.0,0.0,0.0,0.0,0.0,0.0,0.0,1.1356,0.0,0.0,0.9205,0.0,1.1424,1.2161,1.3872,1.6846,1.8283,1.95,2.0524,2.0772,2.0841,2.0723,2.0828,2.1494,2.2618,2.343,2.4779,2.6553,2.7209,2.7896,2.8389,2.6973,2.6022,2.5266,2.3828,2.358,2.3929,2.3446,2.3873,2.4615,0.0,0.0,0.0,0.0,0.0,0.0,0.0,3.0357,3.0633,3.1175,3.0874,3.0472,3.0156,2.993,2.9814,2.9814,2.9258,2.8797,2.8596,2.777,2.711,2.6633,2.5762,2.4377,2.2424,2.1337,2.0034,0.0,0.0,0.0,0.0,1.7832,1.745,1.6895,1.7066,1.7059,1.7022,1.8784,1.9343,1.9169,2.0253,2.0484,2.0125,1.9886,1.9811,1.9811,1.9811,1.9968,2.0251,2.0961,2.1525,2.2071,2.2476,2.2844,2.3088,2.3088,2.3088,2.3088,2.3088,2.2869,2.2313,2.1011,2.0641,2.0252,1.8962,1.868,1.8602,1.8289,1.7822,1.7483,1.7483,1.6926,1.6457,1.6457,0.0,0.0,0.0,0.0,0.0,0.0,0.0,0.0,0.0,1.2295,0.0,0.0,0.0,0.0,1.1021,1.13,1.2871,1.6012,1.7255,1.8451,1.9634,2.0374,2.0736,2.0705,2.0717,2.1335,2.2433,2.3148,2.4583,2.6547,2.7131,2.7834,2.8442,2.6564,2.5875,2.5817,2.3854,2.3479,2.3979,2.372,2.4139,2.4814,2.8304,0.0,2.8505,0.0,2.9157,2.9443,3.0246,3.003,2.9939,3.0331,3.0372,3.0221,2.9839,2.9814,2.9814,2.9814,2.9418,2.9082,2.8897,2.8037,2.7453,2.7311,2.6222,0.0,2.2792,2.1855,2.0467,1.8537,1.8172,0.0,0.0,1.7999,1.7793,1.738,1.7054,1.6898,1.6994,1.836,1.8954,1.9089,2.0302,2.0594,2.0288,2.0119,1.9936,1.9811,1.9811,1.9911,2.0219,2.1181,2.187,2.234,2.2483,2.2802,2.3088,2.3088,2.3088,2.3088,2.3088,2.2819,2.2132,2.0503,2.0029,1.9542,1.7935,1.7793,1.8076,1.8327,1.8087,1.7964,1.8436,1.7616,1.692,1.7131,1.6061,0.0,0.0,1.4332,0.0,0.0,1.4179,1.3932,1.4067,1.3508,0.0,0.0,0.0,0.0,1.1432,1.1683,1.3068,1.5863,1.7224,1.8294,1.9108,1.9952,2.0248,1.9978,1.9978,2.0622,2.1797,2.3072,2.4569,2.6173,2.7004,2.767,2.8069,2.6378,2.5817,2.5849,2.4047,2.3712,2.423,2.423,2.4682,2.5391,2.8797,2.8897,2.9082,2.9679,2.9789,2.9789,2.9814,2.9804,2.9814,2.9814,2.9814,2.9814,2.9814,2.9814,2.9814,2.9814,2.9789,2.9553,2.8947,2.8389,2.7846,0.0,0.0,2.4755,2.2946,2.1908,2.047,1.8596,0.0,0.0,1.7999,1.7999,1.7793,1.7399,1.7399,1.7399,1.7429,1.8265,1.9369,2.0603,2.0887,2.1192,2.1432,2.0893,2.0333,1.9811,1.9811,2.0169,2.0774,2.1313,2.187,2.2383,2.292,2.3088,2.3088,2.3088,2.3088,2.3088,2.3088,2.3095,2.2685,2.1021,2.0598,2.0139,1.8395,1.7999,1.8234,1.911,1.8278,1.7885,1.9492,1.8355,1.7437,1.8165,1.7878,0.0,0.0,1.7093,0.0,1.6942,1.6497,1.5969,1.5518,1.4934,0.0,0.0,0.0,0.0,1.3059,1.3763,1.5023,1.6911,1.8668,1.9506,1.9409,1.9544,1.9188,1.8322,1.8322,1.906,2.0514,2.3104,2.462,2.5313,2.6842,2.74,2.7181,2.6624,2.5891,2.503,2.4289,2.4323,2.4783,2.4783,2.5519,2.6434,2.9478,2.9518,2.9569,2.9764,2.9814,2.9814,2.9814,2.9814,2.9814,2.9814,2.9814,2.9814,2.9814,2.9814,2.9814,0.0,2.9814,2.9543,0.0,2.8414,2.7871,2.7311,2.6591,2.5161,2.295,2.2271,2.0857,1.8598,0.0,1.7999,1.7991,1.7715,1.7508,1.738,1.707,1.6918,1.6974,1.7827,1.8235,1.8392,1.9567,2.0111,2.0204,2.0123,2.0226,2.0358,1.9943,1.9911,2.0219,2.1181,2.1382,2.1273,2.1677,2.2019,2.2272,2.2272,2.2272,2.2395,2.2944,2.2819,2.2157,2.0526,2.0083,1.9625,1.7963,1.825,1.9135,2.0009,1.9868,1.9743,2.0255,1.9316,1.8577,1.8821,1.8135,1.748,1.7118,0.0,1.6257,1.588,1.5442,1.5129,1.4962,1.477,0.0,0.0,0.0,0.0,1.2307,1.3483,1.5103,1.7061,1.826,1.9203,1.993,1.9758,1.9388,1.8858,1.9111,1.9795,2.0855,2.2489,2.35,2.4026,2.5314,2.616,2.6573,2.5429,2.5059,2.5041,2.3847,2.3738,2.4247,2.4247,2.4941,2.6046,2.9814,2.9814,2.9814,2.9814,2.9814,2.9814,2.9814,2.9814,2.9814,2.9814,2.9814,2.9814,2.9814,2.9603,2.9543,2.9789,2.9603,2.9308,2.8922,2.8213,2.7654,2.7302,2.6801,2.5618,2.3743,2.2874,2.1468,1.9435,1.8462,1.7921,1.7773,1.7508,1.7321,1.7109,1.6672,1.6566,1.6727,1.7113,1.7541,1.7996,1.9011,1.9641,2.0015,2.0118,2.0226,2.0308,1.9943,1.9943,2.0276,2.1181,2.1288,2.1013,2.1111,2.1109,2.109,2.1136,2.1502,2.2002,2.2519,2.2628,2.2206,2.0564,2.0128,1.9756,1.841,1.8734,1.9634,2.0838,2.068,2.0459,2.0865,2.0032,1.9298,1.934,1.8664,1.8003,1.7673,0.0,1.6877,0.0,0.0,1.625,1.6027,1.5997,1.5654,0.0,0.0,1.5434,1.3293,1.4955,1.6295,1.7038,1.8597,1.9489,1.9561,1.9372,1.9014,1.8463,1.9021,1.9668,2.0416,2.1769,2.257,2.2919,2.4219,2.5057,2.5465,2.4842,2.467,2.4671,2.4004,2.3838,2.4029,2.423,2.4899,2.5926,2.9814,2.9814,2.9814,2.9814,2.9814,2.9814,2.9814,2.9814,2.9814,2.9814,2.9814,2.9814,2.9814,2.9292,2.9157,2.9679,2.9183,2.8822,2.8797,2.7846,2.7286,2.7245,2.6776,2.5999,2.4912,2.3573,2.2161,2.064,1.8846,1.7773,1.7399,1.7341,1.7078,1.6637,1.6226,1.6258,1.6597,1.6207,1.7121,1.8844,1.8948,1.9612,2.0564,2.0608,2.0308,1.9868,1.9811,2.015,2.0723,2.1263,2.1432,2.1342,2.1006,2.0335,1.9676,1.9836,2.0803,2.1823,2.1877,2.2503,2.2709,2.1021,2.051,2.0236,1.9543,1.94,1.9879,2.1628,2.0974,2.0379,2.1365,2.0482,1.9644,1.9783,1.9321,1.8933,1.8876,1.8493,1.8374,1.8832,1.8958,1.8782,1.8242,1.8191,1.7513,1.5889,0.0,1.7295,1.5813,1.7907,1.8464,1.6982,1.9512,2.0159,1.8563,1.8563,1.8189,1.7447,1.8164,1.8762,1.9296,2.1045,2.1815,2.1938,2.3522,2.4112,2.3983,2.4668,2.4565,2.3979,2.449,2.4365,2.4004,2.449,2.515,2.5916,2.9814,2.9814,2.9814,2.9814,2.9814,2.9814,2.9814,2.9814,2.9814,2.9814,2.9814,2.9814,2.9814,2.9679,2.9468,2.9132,2.8615,2.8122,2.7704,2.7428,2.7119,2.67,2.6583,2.5678,2.3891,2.3234,2.1671,1.9114,1.8068,1.7489,1.7388,1.6723,1.6359,1.6207,1.5769,1.5618,1.5708,1.5605,1.5833,1.638,1.7512,1.8381,1.9086,1.9773,2.0201,2.044,1.9968,1.9886,2.0094,2.0685,2.0577,2.0162,1.9996,1.9542,1.9177,1.9617,2.0297,2.1045,2.1721,2.2503,2.2709,2.1021,1.9593,1.8902,2.0034,2.0293,2.0774,2.2463,2.2243,2.181,2.2074,2.0811,1.9748,1.9779,1.9007,1.8248,1.7833,1.8028,1.8103,1.7802,1.8487,1.8782,1.8242,1.8572,1.8431,1.7573,0.0,1.8965,1.8133,2.0258,2.0452,1.8164,1.9396,1.9772,1.9125,1.8477,1.8054,1.7852,1.7742,1.8039,1.8736,2.022,2.1019,2.1298,2.2753,2.3351,2.3319,2.35,2.347,2.3328,2.3446,2.3421,2.3321,2.3454,2.3942,2.4728,2.9814,2.9814,2.9814,2.9814,2.9814,2.9814,2.9814,2.9814,2.9814,2.9814,2.9814,2.9814,2.9814,2.9327,2.8891,2.8555,2.8263,2.7871,2.7336,2.7069,2.6792,2.6499,2.6508,2.5765,2.4208,2.3341,2.1491,1.8598,1.798,1.7461,1.7062,1.6609,1.616,1.5777,1.55,1.5396,1.5396,1.5396,1.5592,1.5997,1.7142,1.7997,1.8681,1.9476,1.9987,2.0251,1.9918,1.9993,2.0257,2.0591,2.0484,2.0192,2.0122,1.9544,1.8947,1.9236,1.9938,2.0703,2.1172,2.1924,2.2141,2.043,1.9481,1.9242,2.0345,2.0598,2.1077,2.2763,2.2869,2.2596,2.2379,2.1372,2.0501,2.0303,1.9306,1.8468,1.8173,1.8393,1.8549,1.8511,1.9258,1.966,1.9371,1.9836,1.98,1.894,2.0159,2.058,1.9769,2.1585,2.1448,1.8775,1.9834,1.9884,1.8731,1.8415,1.8275,1.8275,1.8049,1.8169,1.8586,1.9555,2.0298,2.0889,2.2051,2.2763,2.312,2.3404,2.3354,2.312,2.3404,2.3346,2.3088,2.3088,2.3573,2.4389,2.9814,2.9814,2.9814,2.9814,2.9814,2.9814,2.9814,2.9814,2.9814,2.9814,2.9814,2.9764,2.9679,2.88,2.8163,2.7987,2.7971,2.7754,2.7211,2.6742,2.6508,2.6508,2.6287,2.5735,2.4788,2.3193,2.1169,1.8704,1.8175,1.7531,1.6812,1.6676,1.6215,1.55,1.5442,1.5396,1.5396,1.5396,1.5765,1.6397,1.7135,1.7811,1.8454,1.9201,1.9534,1.9625,1.9625,2.0034,2.0566,2.0566,2.0616,2.0698,2.0698,2.0019,1.9239,1.9321,2.0034,2.0743,2.0478,2.1106,2.1516,2.0246,2.0172,2.0504,2.0839,2.092,2.1327,2.2793,2.311,2.2985,2.2484,2.1843,2.1279,2.0853,1.9702,1.8907,1.8976,1.9083,1.9315,1.9861,2.0603,2.1062,2.1062,2.1557,2.1475,2.0514,2.1762,2.2196,2.1363,2.2608,2.2116,1.9445,2.0551,2.0227,1.8212,1.8537,1.8676,1.8598,1.8598,1.8638,1.8716,1.9251,1.9968,2.0838,2.1714,2.2456,2.3145,2.3637,2.3562,2.3138,2.3662,2.3562,2.3088,2.3088,2.3569,2.4319,2.9814,2.9814,2.9814,2.9814,2.9814,2.9814,2.9814,2.9814,2.9814,2.9814,2.9814,2.9603,2.9107,2.8872,2.8405,2.7503,2.7428,2.7194,2.665,2.6558,2.6508,2.6508,2.53,2.4368,2.3763,2.1192,1.9644,1.918,1.8055,1.7411,1.7282,1.6547,1.6117,1.596,1.5586,1.5396,1.5396,1.5396,1.5468,1.5642,1.6368,1.6744,1.6912,1.766,1.8333,1.8867,1.8867,1.9335,1.9936,1.9936,2.0283,2.0698,2.0698,2.0688,2.0766,2.129,2.1549,2.1369,1.9895,2.0479,2.1696,2.2613,2.2356,2.1967,2.2299,2.2359,2.2496,2.3006,2.3236,2.315,2.2441,2.1599,2.0924,2.0742,1.9359,1.8493,1.8933,1.9397,1.9886,2.049,2.1838,2.2726,2.2726,2.3268,2.3527,2.3351,2.3577,2.3871,2.4147,2.4407,2.362,2.1568,2.1305,2.0531,1.9109,1.9169,1.8995,1.8598,1.8598,1.8811,1.9223,2.0036,2.087,2.1745,2.2572,2.2975,2.312,2.3195,2.317,2.312,2.3195,2.317,2.3088,2.3088,2.3255,2.3558,2.9814,2.9814,2.9814,2.9814,2.9814,2.9814,2.9814,2.9814,2.9814,2.9814,2.9528,2.9217,2.8922,2.838,2.7846,2.7336,2.7043,2.6767,2.6533,2.6508,2.6508,2.6508,2.5864,2.4643,2.2848,2.05,1.9071,1.8594,1.8008,1.7606,1.738,1.6719,1.6304,1.6073,1.5605,1.5396,1.5396,1.5396,1.5396,1.5461,1.619,1.6496,1.6574,1.7323,1.7811,1.8117,1.8117,1.8333,1.8681,1.9059,1.9613,2.018,2.0577,2.0846,2.1111,2.1711,2.2313,2.2533,2.1428,2.2362,2.3521,2.2937,2.2853,2.2935,2.3105,2.2901,2.3079,2.4436,2.451,2.4226,2.4021,2.3022,2.222,2.2117,2.0652,1.9842,2.0669,2.0733,2.1041,2.1895,2.2935,2.3712,2.3981,2.4264,2.4415,2.4415,2.4415,2.454,2.4791,2.4808,2.3935,2.2064,2.08,2.0004,1.9638,1.9404,1.918,1.8984,1.9206,1.9414,1.9658,2.0289,2.1077,2.1916,2.2279,2.2702,2.3088,2.3088,2.3088,2.3088,2.3088,2.3088,2.3088,2.3088,2.3175,2.341,2.9814,2.9814,2.9814,2.9814,2.9814,2.9814,2.9814,2.9814,2.9764,2.9603,2.9183,2.8806,2.8555,2.7795,2.7261,2.711,2.6751,2.6508,2.6508,2.6508,2.6508,2.6508,2.6267,2.4812,2.1931,2.0603,1.9331,1.8147,1.8251,1.8034,1.7528,1.7082,1.6699,1.6386,1.5808,1.5559,1.5554,1.5442,1.5461,1.5591,1.6065,1.6316,1.6449,1.6906,1.7198,1.7336,1.7336,1.7514,1.7861,1.8431,1.9188,2.0045,2.0769,2.1303,2.1835,2.2549,2.3449,2.402,2.3285,2.4147,2.4952,2.3553,2.371,2.4158,2.4029,2.3667,2.3951,2.5913,2.6069,2.5827,2.5814,2.4995,2.4174,2.3728,2.2307,2.1575,2.2566,2.2347,2.2415,2.3371,2.4014,2.4582,2.5151,2.5209,2.5209,2.5209,2.5209,2.5209,2.5209,2.5209,2.4276,2.2278,2.0317,1.9443,1.9756,1.9453,1.9356,1.9445,1.9742,2.0063,2.0381,2.0754,2.1361,2.2172,2.2172,2.241,2.2838,2.3012,2.299,2.2838,2.3027,2.2982,2.2823,2.2823,2.2765,2.277,2.9814,2.9814,2.9814,2.9814,2.9814,2.9814,2.9814,2.9814,2.9603,2.9032,2.8922,2.853,2.7537,2.7361,2.7094,2.66,2.6524,2.6508,2.6508,2.6508,2.6508,2.6508,2.5608,2.3782,2.0951,2.1485,2.0753,1.8559,1.899,1.8786,1.7949,1.7547,1.7332,1.7262,1.641,1.6053,1.6026,1.5586,1.5652,1.6014,1.5625,1.5733,1.6097,1.5721,1.5983,1.6574,1.6574,1.7305,1.8263,1.832,1.9475,2.1008,2.1613,2.2715,2.3993,2.5027,2.577,2.5967,2.455,2.4284,2.469,2.5881,2.6236,2.6129,2.5578,2.5394,2.5691,2.6794,2.753,2.7769,2.7106,2.7009,2.6491,2.4941,2.3693,2.3153,2.377,2.3828,2.4021,2.4608,2.5151,2.5728,2.6323,2.6373,2.6373,2.6373,2.6373,2.6373,2.6373,2.6373,2.5293,2.2914,2.0536,1.9306,1.9345,1.9306,1.9484,1.9851,1.9899,2.0555,2.1745,2.18,2.2241,2.3005,2.3005,2.2625,2.204,2.2793,2.2664,2.2056,2.2808,2.2648,2.1986,2.1986,2.1479,2.0913,2.9814,2.9493,2.9368,2.9729,2.9493,2.9233,2.9233,2.9553,2.9578,2.8972,2.8605,2.8263,2.7846,2.7211,2.6725,2.6533,2.6508,2.6508,2.6508,2.6508,2.6323,2.5954,2.5026,2.37,2.203,2.1674,2.096,1.9832,2.0015,1.965,1.8802,1.8353,1.7725,1.6937,1.6351,1.594,1.5644,1.5488,1.5778,1.6332,1.5962,1.6218,1.6732,1.6359,1.6384,1.6607,1.6607,1.6926,1.746,1.8467,1.9456,2.0603,2.2148,2.3274,2.4205,2.5293,2.6038,2.6389,2.5822,2.5653,2.5805,2.6355,2.6214,2.5979,2.6122,2.6602,2.7376,2.8644,2.9064,2.9136,2.8935,2.8133,2.7238,2.646,2.5377,2.4975,2.5912,2.5444,2.5217,2.5778,2.603,2.6248,2.6474,2.6508,2.6508,2.6508,2.6508,2.6508,2.6508,2.4812,2.315,2.165,2.009,1.9303,1.9296,1.9558,1.9742,1.9921,2.0731,2.165,2.2588,2.315,2.3562,2.3853,2.3853,2.3206,2.2162,2.2483,2.2431,2.211,2.1883,2.1852,2.187,2.1565,2.111,2.0683,2.9261,2.9067,2.8982,2.9227,2.9057,2.8897,2.8897,2.9258,2.9368,2.8947,2.858,2.8288,2.8122,2.7286,2.6751,2.6751,2.6415,2.6298,2.6483,2.6323,2.603,2.5619,2.4827,2.3873,2.2726,2.2291,2.1598,2.0598,2.087,2.0341,1.9078,1.8763,1.7927,1.6687,1.6406,1.6159,1.5985,1.6135,1.6644,1.7305,1.7152,1.7328,1.7602,1.7242,1.6931,1.6707,1.6707,1.6785,1.7093,1.8188,1.9373,2.065,2.2297,2.3711,2.4924,2.5678,2.6164,2.6508,2.6508,2.6508,2.6508,2.6508,2.6197,2.6038,2.6625,2.7259,2.8161,2.9803,3.0058,3.0025,3.0117,2.9227,2.8265,2.7646,2.69,2.6674,2.7428,2.6875,2.6482,2.6725,2.6751,2.6675,2.6533,2.6508,2.6508,2.6508,2.6508,2.6296,2.5822,2.3646,2.1986,2.1012,2.0003,1.9555,1.9713,1.9977,2.0255,2.0546,2.1698,2.2658,2.3434,2.4267,2.4652,2.4631,2.4394,2.3616,2.2515,2.2357,2.209,2.173,2.1208,2.1019,2.1066,2.0864,2.0373,1.9878,2.8088,2.853,2.8722,2.8188,2.853,2.8897,2.8897,2.8897,2.8897,2.8897,2.8897,2.8696,2.8163,2.7604,2.7286,2.7286,2.6272,2.5854,2.6449,2.5929,2.5586,2.5586,2.5076,2.4138,2.2726,2.3539,2.2892,2.0614,2.1487,2.0785,1.8619,1.8632,1.7943,1.673,1.673,1.6918,1.7244,1.7781,1.8421,1.9127,1.9253,1.9022,1.8562,1.8159,1.7471,1.6707,1.6707,1.7023,1.7399,1.7407,1.9197,2.1503,2.2049,2.4194,2.6508,2.6508,2.6508,2.6508,2.6508,2.6508,2.6508,2.6508,2.6508,2.6659,2.7185,2.732,2.7907,2.9985,3.0411,3.0411,3.0411,3.0411,2.9893,2.8362,2.8113,2.8113,2.8113,2.8113,2.7921,2.7386,2.7311,2.7085,2.6558,2.6508,2.6508,2.6508,2.6508,2.5855,2.4371,2.3403,2.2447,2.1419,2.044,2.0137,2.0598,2.0614,2.1045,2.1916,2.2664,2.3463,2.433,2.5077,2.5419,2.5384,2.4631,2.3805,2.2964,2.2498,2.1644,2.0619,2.0879,2.0299,1.9343,1.9745,1.9088,1.8186,2.8088,2.7921,2.7855,2.8063,2.7921,2.7887,2.8288,2.8656,2.8747,2.8389,2.8339,2.8138,2.7604,2.7069,2.6751,2.6751,2.6424,2.6139,2.5871,2.4991,2.4481,2.4481,2.433,2.3854,2.2994,2.3232,2.3043,2.2349,2.2048,2.1557,2.0894,2.0287,1.9617,1.8941,1.8941,1.8645,1.8136,1.8674,1.9131,1.9405,1.8987,1.9051,1.9336,1.8357,1.7841,1.7601,1.7601,1.7698,1.7905,1.8527,1.9456,2.0731,2.2911,2.4945,2.6575,2.6943,2.7069,2.7069,2.7069,2.7336,2.7428,2.67,2.6776,2.7094,2.7261,2.8437,2.9648,3.0269,3.0693,3.0957,3.0957,3.0425,2.984,2.9384,2.9277,2.9277,2.9277,2.8941,2.8605,2.843,2.7754,2.7236,2.7069,2.6725,2.6508,2.6508,2.6508,2.5692,2.3843,2.322,2.228,2.0886,2.0821,2.1051,2.1518,2.1518,2.1916,2.2686,2.3511,2.4604,2.5858,2.6075,2.6169,2.6162,2.5946,2.488,2.3268,2.3138,2.2049,2.0435,2.0251,1.9613,1.8821,1.8943,1.8567,1.8092,2.7462,2.7386,2.7336,2.7462,2.7361,2.7403,2.772,2.8063,2.8238,2.8113,2.8088,2.7971,2.7654,2.7135,2.6826,2.6826,2.639,2.5804,2.5008,2.4356,2.4004,2.4004,2.3577,2.3268,2.3088,2.3088,2.2937,2.2633,2.2473,2.1928,2.1098,2.0919,2.0419,1.9659,1.9831,1.9652,1.9272,1.9766,1.9952,1.9873,1.9478,1.9318,1.9256,1.8516,1.8146,1.7999,1.7999,1.7999,1.8095,1.8798,1.995,2.1503,2.3787,2.5434,2.6608,2.7135,2.7311,2.7361,2.7553,2.7846,2.7937,2.7286,2.7386,2.7679,2.7871,2.8892,2.9862,3.0095,3.0406,3.0649,3.0649,3.0187,2.9814,2.9814,2.9814,2.9814,2.9814,2.9503,2.9157,2.8922,2.8339,2.7779,2.7336,2.7194,2.7043,2.6817,2.6826,2.5931,2.3917,2.3591,2.293,2.1776,2.1777,2.211,2.272,2.2799,2.3075,2.3522,2.4654,2.5653,2.6496,2.6785,2.6945,2.6932,2.6615,2.5499,2.3783,2.2967,2.1567,1.9814,1.9051,1.8393,1.7897,1.8237,1.8108,1.7843,2.6424,2.6868,2.706,2.6575,2.6893,2.7236,2.7286,2.7311,2.7487,2.7971,2.8021,2.8021,2.7971,2.7528,2.7236,2.7236,2.6197,2.5084,2.4079,2.3954,2.3904,2.3853,2.2892,2.2576,2.302,2.302,2.269,2.2002,2.2679,2.2021,2.0204,2.0914,2.0686,1.9672,2.0023,2.034,2.0601,2.0893,2.0791,2.0387,2.0243,1.9546,1.858,1.8508,1.8283,1.7999,1.7999,1.7999,1.8077,1.8509,2.0469,2.2964,2.4474,2.5628,2.6571,2.7243,2.7428,2.7553,2.8047,2.8213,2.8247,2.8188,2.8213,2.8364,2.8806,2.8947,2.9132,2.9688,2.9814,2.9814,2.9814,2.9814,2.9814,2.9814,2.9814,2.9814,2.9814,2.9814,2.9603,2.9057,2.8922,2.8505,2.7528,2.7846,2.7896,2.7403,2.7361,2.6516,2.4619,2.4447,2.4191,2.364,2.3107,2.3216,2.3996,2.4309,2.444,2.4416,2.5838,2.6522,2.6608,2.7299,2.7591,2.7553,2.6834,2.5768,2.4419,2.2446,2.0662,1.9052,1.7817,1.7063,1.6812,1.7601,1.7676,1.7516,2.5804,2.6264,2.6625,2.6524,2.6608,2.6826,2.7236,2.7311,2.7336,2.7453,2.7478,2.7302,2.6893,2.6751,2.6675,2.6675,2.5636,2.4699,2.4029,2.3562,2.3103,2.2691,2.2827,2.2769,2.2476,2.2476,2.2588,2.2838,2.2372,2.2246,2.2399,2.1957,2.1931,2.2272,2.2365,2.2209,2.1854,2.1358,2.0857,2.0286,1.9022,1.8554,1.8524,1.7898,1.7803,1.7999,1.7999,1.7999,1.8116,1.8887,2.0086,2.163,2.3779,2.5148,2.6287,2.8051,2.8555,2.858,2.8696,2.9067,2.9327,2.8831,2.9092,2.9352,2.8972,2.9267,2.9628,2.9754,2.9814,2.9814,2.9814,2.9814,2.9814,2.9814,2.9814,2.9814,2.9814,2.9814,2.9754,2.9628,2.9183,2.8797,2.858,2.8288,2.8037,2.7946,2.7921,2.7396,2.6177,2.5693,2.5236,2.4692,2.4152,2.3926,2.3996,2.5189,2.559,2.5182,2.6075,2.6785,2.7369,2.7522,2.7591,2.7553,2.6834,2.6003,2.506,2.3377,2.1519,1.9626,1.8672,1.7644,1.6726,1.6902,1.716,1.7509,2.5544,2.5854,2.6164,2.6457,2.6508,2.66,2.6876,2.6918,2.6918,2.6918,2.6918,2.6817,2.6524,2.6508,2.6264,2.5753,2.5151,2.4457,2.3629,2.3278,2.297,2.2701,2.2701,2.2701,2.2676,2.2433,2.2367,2.2541,2.2503,2.2503,2.2541,2.2503,2.2702,2.3088,2.3088,2.2735,2.2054,2.1178,2.0319,1.9433,1.8148,1.7768,1.7979,1.7552,1.7645,1.7999,1.7999,1.8127,1.8401,1.9062,2.0096,2.1361,2.3018,2.4581,2.61,2.7686,2.8494,2.8947,2.9258,2.9553,2.9729,2.9418,2.9578,2.9704,2.9393,2.9569,2.9814,2.9814,2.9814,2.9814,2.9814,2.9814,2.9814,2.9814,2.9814,2.9814,2.9814,2.9814,2.9814,2.9814,2.9528,2.9343,2.9343,2.8816,2.848,2.848,2.848,2.8151,2.7372,2.6806,2.6382,2.6095,2.5296,2.5029,2.5387,2.6238,2.6738,2.6841,2.7289,2.7879,2.8537,2.8537,2.8387,2.8049,2.7284,2.6207,2.4826,2.2858,2.1055,1.9379,1.7959,1.712,1.6707,1.6707,1.7113,1.7725,2.5234,2.546,2.577,2.6273,2.6424,2.6508,2.6508,2.6508,2.6508,2.6508,2.6508,2.6508,2.6508,2.6508,2.6013,2.4766,2.4741,2.4307,2.3163,2.3088,2.307,2.297,2.2626,2.2601,2.297,2.2626,2.234,2.2102,2.277,2.2763,2.211,2.2793,2.3088,2.3088,2.3088,2.2656,2.1821,2.0773,1.9652,1.8509,1.7511,1.7239,1.7399,1.7399,1.7645,1.7999,1.7999,1.8264,1.8676,1.9141,2.012,2.134,2.2388,2.4088,2.5905,2.7018,2.8153,2.9157,2.9654,2.9814,2.9814,2.9814,2.9814,2.9814,2.9814,2.9814,2.9814,2.9814,2.9814,2.9814,2.9814,2.9814,2.9814,2.9814,2.9814,2.9814,2.9814,2.9814,2.9814,2.9814,2.9814,2.9814,2.9814,2.9343,2.9048,2.9048,2.9048,2.8856,2.8414,2.7871,2.7528,2.7437,2.6569,2.6351,2.6881,2.7329,2.7906,2.8561,2.8816,2.9152,2.9615,2.9615,2.9309,2.871,2.7832,2.6459,2.4627,2.2119,2.0395,1.9155,1.7111,1.6539,1.6828,1.6979,1.7489,1.8125,2.4205,2.4958,2.5619,2.572,2.6139,2.6508,2.6508,2.6508,2.6508,2.6508,2.6508,2.6508,2.6508,2.6508,2.5837,2.4255,2.454,2.4307,2.3163,2.3088,2.2895,2.2433,2.2777,2.2819,2.2433,2.2802,2.296,2.2937,2.3042,2.3035,2.2937,2.3042,2.3088,2.3088,2.3088,2.2656,2.1806,2.0519,1.9443,1.849,1.7259,1.7013,1.7399,1.7399,1.7645,1.7999,1.7999,1.8264,1.8676,1.9141,1.9663,2.0436,2.2294,2.3969,2.5579,2.704,2.8533,2.9713,2.9789,2.9814,2.9814,2.9814,2.9814,2.9814,2.9814,2.9814,2.9814,2.9814,2.9814,2.9814,2.9814,2.9814,2.9814,2.9814,2.9814,2.9814,2.9814,2.9814,2.9814,2.9814,2.9814,2.9814,2.9814,2.9739,2.9688,2.9688,2.9688,2.9654,2.9563,2.9016,2.8455,2.8021,2.8074,2.7709,2.6924,2.8297,2.9094,2.9262,2.9925,3.002,2.9615,2.9615,2.9555,2.9384,2.7897,2.682,2.5877,2.2661,2.096,2.0193,1.8051,1.7262,1.7383,1.8086,1.842,1.8719,2.3921,2.4624,2.5259,2.5544,2.6088,2.6508,2.6508,2.6508,2.6508,2.6508,2.6508,2.6373,2.603,2.572,2.5142,2.4079,2.423,2.3988,2.3138,2.3088,2.2987,2.2751,2.297,2.2995,2.2744,2.297,2.3088,2.3088,2.3088,2.3088,2.3088,2.3088,2.3088,2.3073,2.2641,2.1963,2.1093,1.9739,1.8815,1.8195,1.742,1.7363,1.7743,1.7743,1.7852,1.8038,1.8255,1.845,1.8715,1.9405,1.9756,2.0134,2.1528,2.3007,2.4435,2.5387,2.7165,2.8846,2.8846,2.9326,2.9814,2.9814,2.9814,2.9814,2.9814,2.9814,2.9814,2.9814,2.9814,2.9814,2.9814,2.9814,2.9814,2.9814,2.9814,2.9814,2.9814,2.9814,2.9814,2.9814,2.9814,2.9814,2.9814,2.9814,2.9814,2.9814,2.9814,3.0014,3.0545,2.9504,2.9286,3.0131,2.946,2.9132,2.9299,3.0376,3.0807,3.0601,3.1655,3.1652,3.0658,3.0658,3.0455,2.9997,2.8074,2.6936,2.6131,2.2471,2.0816,2.0393,1.8243,1.7399,1.7525,1.8594,1.8994,1.9187]}]]